Time,TemperatureF,DewpointF,PressureIn,WindDirection,WindDirectionDegrees,WindSpeedMPH,WindSpeedGustMPH,Humidity,HourlyPrecipIn,Conditions,Clouds,dailyrainin,SoftwareType,DateUTC
2013-09-14 00:00:00,73.2,59.4,29.78,NE,40,0.0,0.0,62,0.00,,---,0.00,VWS V14.01,2013-09-14 04:00:00,
2013-09-14 00:01:00,73.2,59.0,29.78,NE,40,0.0,0.0,61,0.00,,---,0.00,VWS V14.01,2013-09-14 04:01:00,
2013-09-14 00:02:00,73.2,59.4,29.78,NE,40,0.0,0.0,62,0.00,,---,0.00,VWS V14.01,2013-09-14 04:02:00,
2013-09-14 00:03:00,73.2,59.4,29.78,NE,40,0.0,0.0,62,0.00,,---,0.00,VWS V14.01,2013-09-14 04:03:00,
2013-09-14 00:04:00,73.2,59.4,29.78,NE,40,0.0,0.0,62,0.00,,---,0.00,VWS V14.01,2013-09-14 04:04:00,
2013-09-14 00:05:00,73.2,59.4,29.78,NE,40,0.0,0.0,62,0.00,,---,0.00,VWS V14.01,2013-09-14 04:05:00,
2013-09-14 00:06:00,73.0,59.2,29.78,NE,40,0.0,0.0,62,0.00,,---,0.00,VWS V14.01,2013-09-14 04:06:00,
2013-09-14 00:07:00,73.0,59.2,29.78,NE,40,0.0,0.0,62,0.00,,---,0.00,VWS V14.01,2013-09-14 04:07:00,
2013-09-14 00:08:00,73.0,59.2,29.78,NE,40,0.0,0.0,62,0.00,,---,0.00,VWS V14.01,2013-09-14 04:08:00,
2013-09-14 00:09:00,73.0,58.8,29.78,NE,40,0.0,0.0,61,0.00,,---,0.00,VWS V14.01,2013-09-14 04:09:00,
2013-09-14 00:10:00,73.0,58.8,29.78,NE,40,0.0,0.0,61,0.00,,---,0.00,VWS V14.01,2013-09-14 04:10:00,
2013-09-14 00:11:00,73.0,59.2,29.78,NE,40,0.0,0.0,62,0.00,,---,0.00,VWS V14.01,2013-09-14 04:11:00,
2013-09-14 00:12:00,73.0,59.2,29.78,NE,40,0.0,0.0,62,0.00,,---,0.00,VWS V14.01,2013-09-14 04:12:00,
2013-09-14 00:13:00,73.0,59.2,29.78,NE,40,0.0,0.0,62,0.00,,---,0.00,VWS V14.01,2013-09-14 04:13:00,
2013-09-14 00:14:00,73.0,59.2,29.78,NE,40,0.0,0.0,62,0.00,,---,0.00,VWS V14.01,2013-09-14 04:14:00,
2013-09-14 00:15:00,73.0,59.7,29.78,NE,40,0.0,0.0,63,0.00,,---,0.00,VWS V14.01,2013-09-14 04:15:00,
2013-09-14 00:16:00,73.0,59.2,29.78,NE,40,0.0,0.0,62,0.00,,---,0.00,VWS V14.01,2013-09-14 04:16:00,
2013-09-14 00:17:00,73.0,59.7,29.78,NE,40,0.0,0.0,63,0.00,,---,0.00,VWS V14.01,2013-09-14 04:17:00,
2013-09-14 00:18:00,72.8,59.5,29.78,NE,40,0.0,0.0,63,0.00,,---,0.00,VWS V14.01,2013-09-14 04:18:00,
2013-09-14 00:19:00,72.8,59.0,29.78,NE,40,0.0,0.0,62,0.00,,---,0.00,VWS V14.01,2013-09-14 04:19:00,
2013-09-14 00:20:00,72.8,59.0,29.78,NE,40,0.0,0.0,62,0.00,,---,0.00,VWS V14.01,2013-09-14 04:20:00,
2013-09-14 00:21:00,72.8,59.0,29.78,NE,40,0.0,0.0,62,0.00,,---,0.00,VWS V14.01,2013-09-14 04:21:00,
2013-09-14 00:22:00,72.8,59.0,29.78,NE,40,0.0,0.0,62,0.00,,---,0.00,VWS V14.01,2013-09-14 04:22:00,
2013-09-14 00:23:00,72.8,59.0,29.78,NE,40,0.0,0.0,62,0.00,,---,0.00,VWS V14.01,2013-09-14 04:23:00,
2013-09-14 00:24:00,72.8,59.0,29.78,NE,40,0.0,0.0,62,0.00,,---,0.00,VWS V14.01,2013-09-14 04:24:00,
2013-09-14 00:25:00,72.8,59.0,29.78,NE,40,0.0,0.0,62,0.00,,---,0.00,VWS V14.01,2013-09-14 04:25:00,
2013-09-14 00:26:00,72.8,59.9,29.78,NE,40,0.0,0.0,64,0.00,,---,0.00,VWS V14.01,2013-09-14 04:26:00,
2013-09-14 00:27:00,72.8,59.9,29.78,NE,40,0.0,0.0,64,0.00,,---,0.00,VWS V14.01,2013-09-14 04:27:00,
2013-09-14 00:28:00,72.8,59.5,29.78,NE,40,0.0,0.0,63,0.00,,---,0.00,VWS V14.01,2013-09-14 04:28:00,
2013-09-14 00:29:00,72.8,59.5,29.78,NE,40,0.0,0.0,63,0.00,,---,0.00,VWS V14.01,2013-09-14 04:29:00,
2013-09-14 00:30:00,72.7,59.4,29.78,NE,40,0.0,0.0,63,0.00,,---,0.00,VWS V14.01,2013-09-14 04:30:00,
2013-09-14 00:31:00,72.7,59.4,29.78,NE,40,0.0,0.0,63,0.00,,---,0.00,VWS V14.01,2013-09-14 04:31:00,
2013-09-14 00:32:00,72.7,59.4,29.78,NE,40,0.0,0.0,63,0.00,,---,0.00,VWS V14.01,2013-09-14 04:32:00,
2013-09-14 00:33:00,72.7,59.8,29.78,NE,40,0.0,0.0,64,0.00,,---,0.00,VWS V14.01,2013-09-14 04:33:00,
2013-09-14 00:34:00,72.7,59.4,29.78,NE,42,0.0,1.0,63,0.00,,---,0.00,VWS V14.01,2013-09-14 04:34:00,
2013-09-14 00:35:00,72.7,58.9,29.78,NE,42,0.0,1.0,62,0.00,,---,0.00,VWS V14.01,2013-09-14 04:35:00,
2013-09-14 00:36:00,72.7,59.8,29.78,NE,42,0.0,1.0,64,0.00,,---,0.00,VWS V14.01,2013-09-14 04:36:00,
2013-09-14 00:37:00,72.7,59.8,29.78,NE,42,0.0,1.0,64,0.00,,---,0.00,VWS V14.01,2013-09-14 04:37:00,
2013-09-14 00:38:00,72.7,59.4,29.78,NE,42,0.0,1.0,63,0.00,,---,0.00,VWS V14.01,2013-09-14 04:38:00,
2013-09-14 00:39:00,72.7,58.9,29.78,NNE,18,0.0,1.0,62,0.00,,---,0.00,VWS V14.01,2013-09-14 04:39:00,
2013-09-14 00:40:00,72.7,58.9,29.78,NNE,18,0.0,1.0,62,0.00,,---,0.00,VWS V14.01,2013-09-14 04:40:00,
2013-09-14 00:41:00,72.7,59.8,29.78,NNE,18,0.0,0.0,64,0.00,,---,0.00,VWS V14.01,2013-09-14 04:41:00,
2013-09-14 00:42:00,72.7,59.8,29.78,NNE,18,0.0,0.0,64,0.00,,---,0.00,VWS V14.01,2013-09-14 04:42:00,
2013-09-14 00:43:00,72.7,59.8,29.78,NNE,18,0.0,0.0,64,0.00,,---,0.00,VWS V14.01,2013-09-14 04:43:00,
2013-09-14 00:44:00,72.7,59.8,29.78,NE,34,0.0,1.0,64,0.00,,---,0.00,VWS V14.01,2013-09-14 04:44:00,
2013-09-14 00:45:00,72.5,59.6,29.78,NE,34,1.0,3.0,64,0.00,,---,0.00,VWS V14.01,2013-09-14 04:45:00,
2013-09-14 00:46:00,72.5,59.2,29.78,NE,37,0.0,3.0,63,0.00,,---,0.00,VWS V14.01,2013-09-14 04:46:00,
2013-09-14 00:47:00,72.5,59.6,29.78,NE,40,4.0,5.0,64,0.00,,---,0.00,VWS V14.01,2013-09-14 04:47:00,
2013-09-14 00:48:00,72.5,59.6,29.78,NNE,14,0.0,5.0,64,0.00,,---,0.00,VWS V14.01,2013-09-14 04:48:00,
2013-09-14 00:49:00,72.5,59.6,29.78,NNE,21,0.0,5.0,64,0.00,,---,0.00,VWS V14.01,2013-09-14 04:49:00,
2013-09-14 00:50:00,72.5,59.6,29.78,NNE,21,0.0,5.0,64,0.00,,---,0.00,VWS V14.01,2013-09-14 04:50:00,
2013-09-14 00:51:00,72.5,59.6,29.78,North,0,5.0,6.0,64,0.00,,---,0.00,VWS V14.01,2013-09-14 04:51:00,
2013-09-14 00:52:00,72.5,59.6,29.78,North,0,0.0,6.0,64,0.00,,---,0.00,VWS V14.01,2013-09-14 04:52:00,
2013-09-14 00:53:00,72.5,59.6,29.78,NE,41,0.0,6.0,64,0.00,,---,0.00,VWS V14.01,2013-09-14 04:53:00,
2013-09-14 00:54:00,72.5,59.2,29.78,NNE,27,1.0,6.0,63,0.00,,---,0.00,VWS V14.01,2013-09-14 04:54:00,
2013-09-14 00:55:00,72.5,59.6,29.78,NNE,27,0.0,6.0,64,0.00,,---,0.00,VWS V14.01,2013-09-14 04:55:00,
2013-09-14 00:56:00,72.5,59.6,29.78,NNE,27,0.0,6.0,64,0.00,,---,0.00,VWS V14.01,2013-09-14 04:56:00,
2013-09-14 00:57:00,72.5,59.6,29.78,NNE,27,0.0,6.0,64,0.00,,---,0.00,VWS V14.01,2013-09-14 04:57:00,
2013-09-14 00:58:00,72.5,59.6,29.78,NNE,27,0.0,6.0,64,0.00,,---,0.00,VWS V14.01,2013-09-14 04:58:00,
2013-09-14 00:59:00,72.5,59.6,29.78,NE,34,2.0,6.0,64,0.00,,---,0.00,VWS V14.01,2013-09-14 04:59:00,
2013-09-14 01:00:00,72.5,59.6,29.78,NE,45,0.0,6.0,64,0.00,,---,0.00,VWS V14.01,2013-09-14 05:00:00,
2013-09-14 01:01:00,72.5,59.6,29.78,NE,45,0.0,0.0,64,0.00,,---,0.00,VWS V14.01,2013-09-14 05:01:00,
2013-09-14 01:02:00,72.3,59.5,29.78,NE,45,0.0,0.0,64,0.00,,---,0.00,VWS V14.01,2013-09-14 05:02:00,
2013-09-14 01:03:00,72.5,59.6,29.78,NE,42,1.0,2.0,64,0.00,,---,0.00,VWS V14.01,2013-09-14 05:03:00,
2013-09-14 01:04:00,72.5,60.1,29.78,NNE,27,0.0,3.0,65,0.00,,---,0.00,VWS V14.01,2013-09-14 05:04:00,
2013-09-14 01:05:00,72.5,60.1,29.78,NNE,27,0.0,3.0,65,0.00,,---,0.00,VWS V14.01,2013-09-14 05:05:00,
2013-09-14 01:06:00,72.3,59.5,29.78,NNE,27,0.0,3.0,64,0.00,,---,0.00,VWS V14.01,2013-09-14 05:06:00,
2013-09-14 01:07:00,72.3,59.9,29.78,NNE,27,1.0,3.0,65,0.00,,---,0.00,VWS V14.01,2013-09-14 05:07:00,
2013-09-14 01:08:00,72.3,59.9,29.78,NNE,27,0.0,3.0,65,0.00,,---,0.00,VWS V14.01,2013-09-14 05:08:00,
2013-09-14 01:09:00,72.3,59.9,29.78,NNE,27,0.0,3.0,65,0.00,,---,0.00,VWS V14.01,2013-09-14 05:09:00,
2013-09-14 01:10:00,72.3,59.9,29.78,NE,41,0.0,5.0,65,0.00,,---,0.00,VWS V14.01,2013-09-14 05:10:00,
2013-09-14 01:11:00,72.3,59.9,29.78,NE,41,0.0,0.0,65,0.00,,---,0.00,VWS V14.01,2013-09-14 05:11:00,
2013-09-14 01:12:00,72.3,59.9,29.78,NNE,20,0.0,1.0,65,0.00,,---,0.00,VWS V14.01,2013-09-14 05:12:00,
2013-09-14 01:13:00,72.3,59.9,29.78,NNE,20,0.0,1.0,65,0.00,,---,0.00,VWS V14.01,2013-09-14 05:13:00,
2013-09-14 01:14:00,72.3,59.9,29.78,NNE,20,0.0,1.0,65,0.00,,---,0.00,VWS V14.01,2013-09-14 05:14:00,
2013-09-14 01:15:00,72.3,59.9,29.78,NNE,24,1.0,2.0,65,0.00,,---,0.00,VWS V14.01,2013-09-14 05:15:00,
2013-09-14 01:16:00,72.3,59.9,29.78,NNE,24,0.0,2.0,65,0.00,,---,0.00,VWS V14.01,2013-09-14 05:16:00,
2013-09-14 01:17:00,72.3,60.3,29.78,NE,35,2.0,5.0,66,0.00,,---,0.00,VWS V14.01,2013-09-14 05:17:00,
2013-09-14 01:18:00,72.1,59.7,29.78,NE,42,0.0,5.0,65,0.00,,---,0.00,VWS V14.01,2013-09-14 05:18:00,
2013-09-14 01:19:00,72.1,59.7,29.78,NE,35,1.0,5.0,65,0.00,,---,0.00,VWS V14.01,2013-09-14 05:19:00,
2013-09-14 01:20:00,72.1,59.7,29.78,NE,34,0.0,5.0,65,0.00,,---,0.00,VWS V14.01,2013-09-14 05:20:00,
2013-09-14 01:21:00,72.1,59.7,29.78,NE,34,0.0,0.0,65,0.00,,---,0.00,VWS V14.01,2013-09-14 05:21:00,
2013-09-14 01:22:00,72.1,59.7,29.78,NE,34,0.0,0.0,65,0.00,,---,0.00,VWS V14.01,2013-09-14 05:22:00,
2013-09-14 01:23:00,72.1,59.7,29.78,NE,34,0.0,0.0,65,0.00,,---,0.00,VWS V14.01,2013-09-14 05:23:00,
2013-09-14 01:24:00,72.1,59.7,29.78,NE,34,0.0,0.0,65,0.00,,---,0.00,VWS V14.01,2013-09-14 05:24:00,
2013-09-14 01:25:00,72.1,60.1,29.78,ENE,71,2.0,2.0,66,0.00,,---,0.00,VWS V14.01,2013-09-14 05:25:00,
2013-09-14 01:26:00,72.1,60.1,29.78,NNE,14,0.0,2.0,66,0.00,,---,0.00,VWS V14.01,2013-09-14 05:26:00,
2013-09-14 01:27:00,72.1,59.7,29.78,NNE,27,0.0,2.0,65,0.00,,---,0.00,VWS V14.01,2013-09-14 05:27:00,
2013-09-14 01:28:00,72.1,59.7,29.78,NE,37,0.0,5.0,65,0.00,,---,0.00,VWS V14.01,2013-09-14 05:28:00,
2013-09-14 01:29:00,72.1,59.7,29.78,NE,34,0.0,5.0,65,0.00,,---,0.00,VWS V14.01,2013-09-14 05:29:00,
2013-09-14 01:30:00,72.1,60.1,29.78,NE,34,0.0,5.0,66,0.00,,---,0.00,VWS V14.01,2013-09-14 05:30:00,
2013-09-14 01:31:00,72.1,60.1,29.78,NE,34,0.0,0.0,66,0.00,,---,0.00,VWS V14.01,2013-09-14 05:31:00,
2013-09-14 01:32:00,72.1,60.1,29.78,ENE,69,3.0,3.0,66,0.00,,---,0.00,VWS V14.01,2013-09-14 05:32:00,
2013-09-14 01:33:00,72.1,60.1,29.78,NE,42,0.0,5.0,66,0.00,,---,0.00,VWS V14.01,2013-09-14 05:33:00,
2013-09-14 01:34:00,72.1,60.1,29.78,NE,40,2.0,5.0,66,0.00,,---,0.00,VWS V14.01,2013-09-14 05:34:00,
2013-09-14 01:35:00,72.1,59.7,29.78,North,10,0.0,5.0,65,0.00,,---,0.00,VWS V14.01,2013-09-14 05:35:00,
2013-09-14 01:36:00,72.1,60.1,29.78,NNE,31,0.0,5.0,66,0.00,,---,0.00,VWS V14.01,2013-09-14 05:36:00,
2013-09-14 01:37:00,72.1,59.7,29.78,NNE,20,0.0,5.0,65,0.00,,---,0.00,VWS V14.01,2013-09-14 05:37:00,
2013-09-14 01:38:00,72.1,59.7,29.78,NNE,21,0.0,5.0,65,0.00,,---,0.00,VWS V14.01,2013-09-14 05:38:00,
2013-09-14 01:39:00,72.1,59.3,29.78,NNE,30,0.0,5.0,64,0.00,,---,0.00,VWS V14.01,2013-09-14 05:39:00,
2013-09-14 01:40:00,72.1,59.7,29.78,NE,34,2.0,5.0,65,0.00,,---,0.00,VWS V14.01,2013-09-14 05:40:00,
2013-09-14 01:41:00,72.1,60.1,29.78,NE,52,1.0,4.0,66,0.00,,---,0.00,VWS V14.01,2013-09-14 05:41:00,
2013-09-14 01:42:00,72.1,60.1,29.78,NE,47,0.0,6.0,66,0.00,,---,0.00,VWS V14.01,2013-09-14 05:42:00,
2013-09-14 01:43:00,72.1,60.1,29.78,North,10,0.0,6.0,66,0.00,,---,0.00,VWS V14.01,2013-09-14 05:43:00,
2013-09-14 01:44:00,72.1,60.1,29.78,North,0,1.0,6.0,66,0.00,,---,0.00,VWS V14.01,2013-09-14 05:44:00,
2013-09-14 01:45:00,72.1,59.7,29.78,NNE,20,0.0,6.0,65,0.00,,---,0.00,VWS V14.01,2013-09-14 05:45:00,
2013-09-14 01:46:00,72.1,59.7,29.78,NNE,20,0.0,6.0,65,0.00,,---,0.00,VWS V14.01,2013-09-14 05:46:00,
2013-09-14 01:47:00,72.1,59.7,29.78,NNE,20,0.0,6.0,65,0.00,,---,0.00,VWS V14.01,2013-09-14 05:47:00,
2013-09-14 01:48:00,72.1,59.7,29.78,ENE,68,3.0,6.0,65,0.00,,---,0.00,VWS V14.01,2013-09-14 05:48:00,
2013-09-14 01:49:00,72.1,59.7,29.78,ENE,68,0.0,6.0,65,0.00,,---,0.00,VWS V14.01,2013-09-14 05:49:00,
2013-09-14 01:50:00,72.1,59.7,29.78,NE,38,1.0,6.0,65,0.00,,---,0.00,VWS V14.01,2013-09-14 05:50:00,
2013-09-14 01:51:00,72.1,59.7,29.78,NE,54,0.0,2.0,65,0.00,,---,0.00,VWS V14.01,2013-09-14 05:51:00,
2013-09-14 01:52:00,72.1,59.7,29.78,ENE,58,0.0,2.0,65,0.00,,---,0.00,VWS V14.01,2013-09-14 05:52:00,
2013-09-14 01:53:00,72.1,60.1,29.78,ENE,58,1.0,7.0,66,0.00,,---,0.00,VWS V14.01,2013-09-14 05:53:00,
2013-09-14 01:54:00,72.1,59.7,29.78,North,6,0.0,7.0,65,0.00,,---,0.00,VWS V14.01,2013-09-14 05:54:00,
2013-09-14 01:55:00,72.1,60.1,29.78,North,8,0.0,7.0,66,0.00,,---,0.00,VWS V14.01,2013-09-14 05:55:00,
2013-09-14 01:56:00,72.1,60.1,29.78,North,8,0.0,7.0,66,0.00,,---,0.00,VWS V14.01,2013-09-14 05:56:00,
2013-09-14 01:57:00,72.1,60.1,29.78,NNE,16,0.0,7.0,66,0.00,,---,0.00,VWS V14.01,2013-09-14 05:57:00,
2013-09-14 01:58:00,72.1,60.5,29.78,NNE,18,0.0,7.0,67,0.00,,---,0.00,VWS V14.01,2013-09-14 05:58:00,
2013-09-14 01:59:00,72.1,60.1,29.78,NNE,18,0.0,7.0,66,0.00,,---,0.00,VWS V14.01,2013-09-14 05:59:00,
2013-09-14 02:00:00,72.0,60.0,29.79,South,181,0.0,7.0,66,0.00,,---,0.00,VWS V14.01,2013-09-14 06:00:00,
2013-09-14 02:01:00,72.0,60.0,29.79,South,181,0.0,0.0,66,0.00,,---,0.00,VWS V14.01,2013-09-14 06:01:00,
2013-09-14 02:02:00,72.0,60.0,29.79,South,181,0.0,0.0,66,0.00,,---,0.00,VWS V14.01,2013-09-14 06:02:00,
2013-09-14 02:03:00,72.0,60.0,29.79,South,181,0.0,0.0,66,0.00,,---,0.00,VWS V14.01,2013-09-14 06:03:00,
2013-09-14 02:04:00,72.0,60.5,29.79,South,181,0.0,0.0,67,0.00,,---,0.00,VWS V14.01,2013-09-14 06:04:00,
2013-09-14 02:05:00,72.0,60.5,29.79,South,181,0.0,0.0,67,0.00,,---,0.00,VWS V14.01,2013-09-14 06:05:00,
2013-09-14 02:06:00,72.0,60.9,29.79,South,181,0.0,0.0,68,0.00,,---,0.00,VWS V14.01,2013-09-14 06:06:00,
2013-09-14 02:07:00,72.0,60.5,29.79,South,181,0.0,0.0,67,0.00,,---,0.00,VWS V14.01,2013-09-14 06:07:00,
2013-09-14 02:08:00,72.0,60.5,29.79,South,181,0.0,0.0,67,0.00,,---,0.00,VWS V14.01,2013-09-14 06:08:00,
2013-09-14 02:09:00,72.0,60.0,29.79,South,181,0.0,0.0,66,0.00,,---,0.00,VWS V14.01,2013-09-14 06:09:00,
2013-09-14 02:10:00,72.0,60.0,29.79,ENE,65,1.0,1.0,66,0.00,,---,0.00,VWS V14.01,2013-09-14 06:10:00,
2013-09-14 02:11:00,72.0,60.5,29.79,NNE,16,0.0,5.0,67,0.00,,---,0.00,VWS V14.01,2013-09-14 06:11:00,
2013-09-14 02:12:00,71.8,60.3,29.79,NNE,16,0.0,5.0,67,0.00,,---,0.00,VWS V14.01,2013-09-14 06:12:00,
2013-09-14 02:13:00,71.8,59.8,29.79,NNE,16,0.0,5.0,66,0.00,,---,0.00,VWS V14.01,2013-09-14 06:13:00,
2013-09-14 02:14:00,71.8,59.8,29.79,NE,40,0.0,5.0,66,0.00,,---,0.00,VWS V14.01,2013-09-14 06:14:00,
2013-09-14 02:15:00,71.8,59.8,29.79,NE,54,0.0,5.0,66,0.00,,---,0.00,VWS V14.01,2013-09-14 06:15:00,
2013-09-14 02:16:00,71.8,59.4,29.79,NE,56,0.0,8.0,65,0.00,,---,0.00,VWS V14.01,2013-09-14 06:16:00,
2013-09-14 02:17:00,71.8,59.8,29.79,NE,56,0.0,8.0,66,0.00,,---,0.00,VWS V14.01,2013-09-14 06:17:00,
2013-09-14 02:18:00,71.8,59.8,29.79,NE,35,3.0,8.0,66,0.00,,---,0.00,VWS V14.01,2013-09-14 06:18:00,
2013-09-14 02:19:00,71.8,60.3,29.79,NNE,27,0.0,8.0,67,0.00,,---,0.00,VWS V14.01,2013-09-14 06:19:00,
2013-09-14 02:20:00,71.8,60.3,29.79,NNE,27,0.0,8.0,67,0.00,,---,0.00,VWS V14.01,2013-09-14 06:20:00,
2013-09-14 02:21:00,71.8,60.7,29.79,NNE,27,0.0,0.0,68,0.00,,---,0.00,VWS V14.01,2013-09-14 06:21:00,
2013-09-14 02:22:00,71.8,60.3,29.79,NNE,27,0.0,0.0,67,0.00,,---,0.00,VWS V14.01,2013-09-14 06:22:00,
2013-09-14 02:23:00,71.8,60.3,29.79,NNE,27,0.0,1.0,67,0.00,,---,0.00,VWS V14.01,2013-09-14 06:23:00,
2013-09-14 02:24:00,71.8,60.3,29.79,NNE,27,0.0,1.0,67,0.00,,---,0.00,VWS V14.01,2013-09-14 06:24:00,
2013-09-14 02:25:00,71.8,59.8,29.79,NNE,24,0.0,1.0,66,0.00,,---,0.00,VWS V14.01,2013-09-14 06:25:00,
2013-09-14 02:26:00,71.8,60.3,29.79,NNE,24,0.0,1.0,67,0.00,,---,0.00,VWS V14.01,2013-09-14 06:26:00,
2013-09-14 02:27:00,71.8,59.8,29.79,NNE,24,0.0,1.0,66,0.00,,---,0.00,VWS V14.01,2013-09-14 06:27:00,
2013-09-14 02:28:00,71.8,59.8,29.79,North,10,1.0,2.0,66,0.00,,---,0.00,VWS V14.01,2013-09-14 06:28:00,
2013-09-14 02:29:00,71.8,60.3,29.79,East,89,2.0,2.0,67,0.00,,---,0.00,VWS V14.01,2013-09-14 06:29:00,
2013-09-14 02:30:00,71.8,59.4,29.79,NE,51,0.0,4.0,65,0.00,,---,0.00,VWS V14.01,2013-09-14 06:30:00,
2013-09-14 02:31:00,71.8,59.4,29.79,ESE,113,0.0,1.0,65,0.00,,---,0.00,VWS V14.01,2013-09-14 06:31:00,
2013-09-14 02:32:00,71.6,59.2,29.79,ESE,110,0.0,1.0,65,0.00,,---,0.00,VWS V14.01,2013-09-14 06:32:00,
2013-09-14 02:33:00,71.6,58.8,29.79,ENE,68,0.0,1.0,64,0.00,,---,0.00,VWS V14.01,2013-09-14 06:33:00,
2013-09-14 02:34:00,71.6,59.2,29.79,NNE,17,0.0,1.0,65,0.00,,---,0.00,VWS V14.01,2013-09-14 06:34:00,
2013-09-14 02:35:00,71.6,58.8,29.79,NE,40,2.0,3.0,64,0.00,,---,0.00,VWS V14.01,2013-09-14 06:35:00,
2013-09-14 02:36:00,71.6,59.7,29.79,NE,44,0.0,3.0,66,0.00,,---,0.00,VWS V14.01,2013-09-14 06:36:00,
2013-09-14 02:37:00,71.6,59.7,29.79,NE,44,0.0,3.0,66,0.00,,---,0.00,VWS V14.01,2013-09-14 06:37:00,
2013-09-14 02:38:00,71.6,59.2,29.79,NE,44,3.0,3.0,65,0.00,,---,0.00,VWS V14.01,2013-09-14 06:38:00,
2013-09-14 02:39:00,71.6,59.2,29.79,NNE,27,3.0,3.0,65,0.00,,---,0.00,VWS V14.01,2013-09-14 06:39:00,
2013-09-14 02:40:00,71.5,58.7,29.79,NE,55,0.0,5.0,64,0.00,,---,0.00,VWS V14.01,2013-09-14 06:40:00,
2013-09-14 02:41:00,71.5,58.7,29.79,NE,55,0.0,0.0,64,0.00,,---,0.00,VWS V14.01,2013-09-14 06:41:00,
2013-09-14 02:42:00,71.5,58.7,29.79,NNE,25,2.0,2.0,64,0.00,,---,0.00,VWS V14.01,2013-09-14 06:42:00,
2013-09-14 02:43:00,71.5,58.7,29.79,NNE,25,2.0,2.0,64,0.00,,---,0.00,VWS V14.01,2013-09-14 06:43:00,
2013-09-14 02:44:00,71.5,58.7,29.79,NE,51,0.0,2.0,64,0.00,,---,0.00,VWS V14.01,2013-09-14 06:44:00,
2013-09-14 02:45:00,71.5,59.1,29.79,NE,51,0.0,2.0,65,0.00,,---,0.00,VWS V14.01,2013-09-14 06:45:00,
2013-09-14 02:46:00,71.5,59.6,29.79,NE,51,0.0,2.0,66,0.00,,---,0.00,VWS V14.01,2013-09-14 06:46:00,
2013-09-14 02:47:00,71.5,59.6,29.79,NE,51,0.0,2.0,66,0.00,,---,0.00,VWS V14.01,2013-09-14 06:47:00,
2013-09-14 02:48:00,71.5,60.0,29.79,NE,51,0.0,2.0,67,0.00,,---,0.00,VWS V14.01,2013-09-14 06:48:00,
2013-09-14 02:49:00,71.3,59.8,29.79,NE,51,0.0,2.0,67,0.00,,---,0.00,VWS V14.01,2013-09-14 06:49:00,
2013-09-14 02:50:00,71.3,59.4,29.79,NE,51,0.0,2.0,66,0.00,,---,0.00,VWS V14.01,2013-09-14 06:50:00,
2013-09-14 02:51:00,71.3,59.4,29.79,NE,51,0.0,0.0,66,0.00,,---,0.00,VWS V14.01,2013-09-14 06:51:00,
2013-09-14 02:52:00,71.3,59.8,29.79,NE,42,0.0,0.0,67,0.00,,---,0.00,VWS V14.01,2013-09-14 06:52:00,
2013-09-14 02:53:00,71.3,59.8,29.79,NE,42,0.0,0.0,67,0.00,,---,0.00,VWS V14.01,2013-09-14 06:53:00,
2013-09-14 02:54:00,71.3,60.6,29.79,NE,42,0.0,0.0,69,0.00,,---,0.00,VWS V14.01,2013-09-14 06:54:00,
2013-09-14 02:55:00,71.1,60.0,29.79,NE,48,0.0,0.0,68,0.00,,---,0.00,VWS V14.01,2013-09-14 06:55:00,
2013-09-14 02:56:00,71.1,59.6,29.79,NE,48,0.0,0.0,67,0.00,,---,0.00,VWS V14.01,2013-09-14 06:56:00,
2013-09-14 02:57:00,71.1,59.6,29.79,NE,48,0.0,0.0,67,0.00,,---,0.00,VWS V14.01,2013-09-14 06:57:00,
2013-09-14 02:58:00,71.1,59.6,29.79,NE,48,0.0,0.0,67,0.00,,---,0.00,VWS V14.01,2013-09-14 06:58:00,
2013-09-14 02:59:00,71.1,59.2,29.79,NE,48,0.0,0.0,66,0.00,,---,0.00,VWS V14.01,2013-09-14 06:59:00,
2013-09-14 03:00:00,70.9,59.0,29.80,NE,41,0.0,0.0,66,0.00,,---,0.00,VWS V14.01,2013-09-14 07:00:00,
2013-09-14 03:01:00,70.9,59.4,29.80,NE,41,0.0,1.0,67,0.00,,---,0.00,VWS V14.01,2013-09-14 07:01:00,
2013-09-14 03:02:00,70.9,59.4,29.80,NE,41,0.0,1.0,67,0.00,,---,0.00,VWS V14.01,2013-09-14 07:02:00,
2013-09-14 03:03:00,70.9,60.2,29.80,NE,41,0.0,1.0,69,0.00,,---,0.00,VWS V14.01,2013-09-14 07:03:00,
2013-09-14 03:04:00,70.9,60.6,29.80,NE,41,0.0,1.0,70,0.00,,---,0.00,VWS V14.01,2013-09-14 07:04:00,
2013-09-14 03:05:00,70.9,59.4,29.80,NE,41,0.0,1.0,67,0.00,,---,0.00,VWS V14.01,2013-09-14 07:05:00,
2013-09-14 03:06:00,70.8,58.9,29.80,NE,42,0.0,1.0,66,0.00,,---,0.00,VWS V14.01,2013-09-14 07:06:00,
2013-09-14 03:07:00,70.8,58.9,29.80,NE,42,0.0,1.0,66,0.00,,---,0.00,VWS V14.01,2013-09-14 07:07:00,
2013-09-14 03:08:00,70.8,58.9,29.80,NE,42,0.0,1.0,66,0.00,,---,0.00,VWS V14.01,2013-09-14 07:08:00,
2013-09-14 03:09:00,70.8,58.9,29.80,NNE,24,0.0,2.0,66,0.00,,---,0.00,VWS V14.01,2013-09-14 07:09:00,
2013-09-14 03:10:00,70.8,58.9,29.80,NNE,24,0.0,2.0,66,0.00,,---,0.00,VWS V14.01,2013-09-14 07:10:00,
2013-09-14 03:11:00,70.8,60.1,29.80,NNE,24,0.0,0.0,69,0.00,,---,0.00,VWS V14.01,2013-09-14 07:11:00,
2013-09-14 03:12:00,70.8,60.1,29.80,NNE,24,0.0,0.0,69,0.00,,---,0.00,VWS V14.01,2013-09-14 07:12:00,
2013-09-14 03:13:00,70.8,60.9,29.80,NNE,24,0.0,0.0,71,0.00,,---,0.00,VWS V14.01,2013-09-14 07:13:00,
2013-09-14 03:14:00,70.6,60.3,29.80,NNE,24,0.0,0.0,70,0.00,,---,0.00,VWS V14.01,2013-09-14 07:14:00,
2013-09-14 03:15:00,70.6,60.3,29.80,NNE,24,0.0,0.0,70,0.00,,---,0.00,VWS V14.01,2013-09-14 07:15:00,
2013-09-14 03:16:00,70.6,60.3,29.80,NNE,24,0.0,0.0,70,0.00,,---,0.00,VWS V14.01,2013-09-14 07:16:00,
2013-09-14 03:17:00,70.6,59.5,29.80,ENE,68,0.0,0.0,68,0.00,,---,0.00,VWS V14.01,2013-09-14 07:17:00,
2013-09-14 03:18:00,70.6,60.0,29.80,ENE,66,0.0,0.0,69,0.00,,---,0.00,VWS V14.01,2013-09-14 07:18:00,
2013-09-14 03:19:00,70.4,60.2,29.80,ENE,66,0.0,0.0,70,0.00,,---,0.00,VWS V14.01,2013-09-14 07:19:00,
2013-09-14 03:20:00,70.4,60.2,29.80,ENE,66,0.0,0.0,70,0.00,,---,0.00,VWS V14.01,2013-09-14 07:20:00,
2013-09-14 03:21:00,70.4,59.3,29.80,NNE,28,3.0,3.0,68,0.00,,---,0.00,VWS V14.01,2013-09-14 07:21:00,
2013-09-14 03:22:00,70.4,59.3,29.80,NNE,17,0.0,3.0,68,0.00,,---,0.00,VWS V14.01,2013-09-14 07:22:00,
2013-09-14 03:23:00,70.4,59.3,29.80,NNE,17,0.0,3.0,68,0.00,,---,0.00,VWS V14.01,2013-09-14 07:23:00,
2013-09-14 03:24:00,70.4,58.9,29.80,NNE,17,0.0,3.0,67,0.00,,---,0.00,VWS V14.01,2013-09-14 07:24:00,
2013-09-14 03:25:00,70.3,58.8,29.80,NNE,17,0.0,3.0,67,0.00,,---,0.00,VWS V14.01,2013-09-14 07:25:00,
2013-09-14 03:26:00,70.3,60.1,29.80,NNE,17,0.0,3.0,70,0.00,,---,0.00,VWS V14.01,2013-09-14 07:26:00,
2013-09-14 03:27:00,70.3,60.1,29.80,NNE,17,0.0,3.0,70,0.00,,---,0.00,VWS V14.01,2013-09-14 07:27:00,
2013-09-14 03:28:00,70.3,60.1,29.80,NNE,17,0.0,3.0,70,0.00,,---,0.00,VWS V14.01,2013-09-14 07:28:00,
2013-09-14 03:29:00,70.3,60.1,29.80,NNE,17,0.0,3.0,70,0.00,,---,0.00,VWS V14.01,2013-09-14 07:29:00,
2013-09-14 03:30:00,70.3,59.7,29.81,NNE,17,0.0,3.0,69,0.00,,---,0.00,VWS V14.01,2013-09-14 07:30:00,
2013-09-14 03:31:00,70.1,59.5,29.81,NNE,17,0.0,0.0,69,0.00,,---,0.00,VWS V14.01,2013-09-14 07:31:00,
2013-09-14 03:32:00,70.1,59.1,29.81,NNE,17,0.0,2.0,68,0.00,,---,0.00,VWS V14.01,2013-09-14 07:32:00,
2013-09-14 03:33:00,70.1,59.9,29.81,NNE,17,0.0,2.0,70,0.00,,---,0.00,VWS V14.01,2013-09-14 07:33:00,
2013-09-14 03:34:00,70.1,59.5,29.81,NNE,24,0.0,2.0,69,0.00,,---,0.00,VWS V14.01,2013-09-14 07:34:00,
2013-09-14 03:35:00,70.1,59.5,29.81,NNE,24,0.0,2.0,69,0.00,,---,0.00,VWS V14.01,2013-09-14 07:35:00,
2013-09-14 03:36:00,70.1,59.1,29.81,NNE,23,0.0,2.0,68,0.00,,---,0.00,VWS V14.01,2013-09-14 07:36:00,
2013-09-14 03:37:00,69.9,58.9,29.81,NE,52,2.0,5.0,68,0.00,,---,0.00,VWS V14.01,2013-09-14 07:37:00,
2013-09-14 03:38:00,69.9,58.5,29.81,ENE,62,0.0,5.0,67,0.00,,---,0.00,VWS V14.01,2013-09-14 07:38:00,
2013-09-14 03:39:00,69.9,58.0,29.81,NE,56,0.0,5.0,66,0.00,,---,0.00,VWS V14.01,2013-09-14 07:39:00,
2013-09-14 03:40:00,69.9,57.6,29.81,North,0,2.0,5.0,65,0.00,,---,0.00,VWS V14.01,2013-09-14 07:40:00,
2013-09-14 03:41:00,69.9,57.2,29.81,North,0,0.0,3.0,64,0.00,,---,0.00,VWS V14.01,2013-09-14 07:41:00,
2013-09-14 03:42:00,69.9,57.6,29.81,North,11,2.0,3.0,65,0.00,,---,0.00,VWS V14.01,2013-09-14 07:42:00,
2013-09-14 03:43:00,69.9,57.6,29.81,NNE,27,0.0,6.0,65,0.00,,---,0.00,VWS V14.01,2013-09-14 07:43:00,
2013-09-14 03:44:00,69.8,57.5,29.81,NE,42,0.0,6.0,65,0.00,,---,0.00,VWS V14.01,2013-09-14 07:44:00,
2013-09-14 03:45:00,69.8,57.9,29.81,NE,42,0.0,6.0,66,0.00,,---,0.00,VWS V14.01,2013-09-14 07:45:00,
2013-09-14 03:46:00,69.8,58.4,29.81,NE,41,0.0,6.0,67,0.00,,---,0.00,VWS V14.01,2013-09-14 07:46:00,
2013-09-14 03:47:00,69.8,57.9,29.81,NE,51,1.0,6.0,66,0.00,,---,0.00,VWS V14.01,2013-09-14 07:47:00,
2013-09-14 03:48:00,69.8,57.9,29.81,ENE,66,0.0,6.0,66,0.00,,---,0.00,VWS V14.01,2013-09-14 07:48:00,
2013-09-14 03:49:00,69.8,57.9,29.81,NE,49,1.0,6.0,66,0.00,,---,0.00,VWS V14.01,2013-09-14 07:49:00,
2013-09-14 03:50:00,69.8,57.9,29.81,NE,52,2.0,6.0,66,0.00,,---,0.00,VWS V14.01,2013-09-14 07:50:00,
2013-09-14 03:51:00,69.8,57.5,29.81,NNE,31,0.0,4.0,65,0.00,,---,0.00,VWS V14.01,2013-09-14 07:51:00,
2013-09-14 03:52:00,69.8,57.9,29.81,NE,40,2.0,4.0,66,0.00,,---,0.00,VWS V14.01,2013-09-14 07:52:00,
2013-09-14 03:53:00,69.8,57.5,29.81,NNE,21,0.0,4.0,65,0.00,,---,0.00,VWS V14.01,2013-09-14 07:53:00,
2013-09-14 03:54:00,69.6,58.2,29.81,NNE,24,4.0,4.0,67,0.00,,---,0.00,VWS V14.01,2013-09-14 07:54:00,
2013-09-14 03:55:00,69.6,58.2,29.81,NNE,23,2.0,4.0,67,0.00,,---,0.00,VWS V14.01,2013-09-14 07:55:00,
2013-09-14 03:56:00,69.6,57.3,29.81,NNE,18,0.0,4.0,65,0.00,,---,0.00,VWS V14.01,2013-09-14 07:56:00,
2013-09-14 03:57:00,69.6,57.8,29.81,NE,38,0.0,5.0,66,0.00,,---,0.00,VWS V14.01,2013-09-14 07:57:00,
2013-09-14 03:58:00,69.6,57.8,29.81,NNE,13,1.0,5.0,66,0.00,,---,0.00,VWS V14.01,2013-09-14 07:58:00,
2013-09-14 03:59:00,69.6,57.8,29.81,NNE,13,0.0,5.0,66,0.00,,---,0.00,VWS V14.01,2013-09-14 07:59:00,
2013-09-14 04:00:00,69.6,57.8,29.81,NNE,13,0.0,5.0,66,0.00,,---,0.00,VWS V14.01,2013-09-14 08:00:00,
2013-09-14 04:01:00,69.6,57.8,29.81,NE,38,0.0,6.0,66,0.00,,---,0.00,VWS V14.01,2013-09-14 08:01:00,
2013-09-14 04:02:00,69.6,57.8,29.81,NNE,16,0.0,6.0,66,0.00,,---,0.00,VWS V14.01,2013-09-14 08:02:00,
2013-09-14 04:03:00,69.6,58.2,29.81,NNE,32,4.0,6.0,67,0.00,,---,0.00,VWS V14.01,2013-09-14 08:03:00,
2013-09-14 04:04:00,69.6,58.2,29.81,North,0,2.0,6.0,67,0.00,,---,0.00,VWS V14.01,2013-09-14 08:04:00,
2013-09-14 04:05:00,69.6,57.8,29.81,NE,52,2.0,6.0,66,0.00,,---,0.00,VWS V14.01,2013-09-14 08:05:00,
2013-09-14 04:06:00,69.6,57.3,29.81,NE,48,0.0,6.0,65,0.00,,---,0.00,VWS V14.01,2013-09-14 08:06:00,
2013-09-14 04:07:00,69.6,58.2,29.81,NE,48,0.0,6.0,67,0.00,,---,0.00,VWS V14.01,2013-09-14 08:07:00,
2013-09-14 04:08:00,69.6,58.6,29.81,NE,48,0.0,6.0,68,0.00,,---,0.00,VWS V14.01,2013-09-14 08:08:00,
2013-09-14 04:09:00,69.4,58.4,29.81,NNE,13,3.0,6.0,68,0.00,,---,0.00,VWS V14.01,2013-09-14 08:09:00,
2013-09-14 04:10:00,69.4,58.0,29.81,NNE,18,1.0,6.0,67,0.00,,---,0.00,VWS V14.01,2013-09-14 08:10:00,
2013-09-14 04:11:00,69.4,57.6,29.81,NNE,25,0.0,3.0,66,0.00,,---,0.00,VWS V14.01,2013-09-14 08:11:00,
2013-09-14 04:12:00,69.4,57.6,29.81,NNE,27,0.0,3.0,66,0.00,,---,0.00,VWS V14.01,2013-09-14 08:12:00,
2013-09-14 04:13:00,69.4,58.0,29.81,NE,42,3.0,4.0,67,0.00,,---,0.00,VWS V14.01,2013-09-14 08:13:00,
2013-09-14 04:14:00,69.4,57.6,29.81,ENE,58,0.0,4.0,66,0.00,,---,0.00,VWS V14.01,2013-09-14 08:14:00,
2013-09-14 04:15:00,69.4,57.6,29.82,ENE,58,0.0,4.0,66,0.00,,---,0.00,VWS V14.01,2013-09-14 08:15:00,
2013-09-14 04:16:00,69.3,58.7,29.82,ENE,58,0.0,4.0,69,0.00,,---,0.00,VWS V14.01,2013-09-14 08:16:00,
2013-09-14 04:17:00,69.3,58.7,29.82,ENE,58,0.0,4.0,69,0.00,,---,0.00,VWS V14.01,2013-09-14 08:17:00,
2013-09-14 04:18:00,69.3,58.7,29.82,ENE,58,0.0,4.0,69,0.00,,---,0.00,VWS V14.01,2013-09-14 08:18:00,
2013-09-14 04:19:00,69.3,58.7,29.82,ENE,58,0.0,4.0,69,0.00,,---,0.00,VWS V14.01,2013-09-14 08:19:00,
2013-09-14 04:20:00,69.3,58.7,29.82,ENE,58,0.0,4.0,69,0.00,,---,0.00,VWS V14.01,2013-09-14 08:20:00,
2013-09-14 04:21:00,69.3,59.1,29.82,North,4,4.0,4.0,70,0.00,,---,0.00,VWS V14.01,2013-09-14 08:21:00,
2013-09-14 04:22:00,69.3,59.1,29.82,North,4,0.0,4.0,70,0.00,,---,0.00,VWS V14.01,2013-09-14 08:22:00,
2013-09-14 04:23:00,69.3,58.7,29.82,NE,40,0.0,4.0,69,0.00,,---,0.00,VWS V14.01,2013-09-14 08:23:00,
2013-09-14 04:24:00,69.1,58.5,29.82,NE,34,4.0,5.0,69,0.00,,---,0.00,VWS V14.01,2013-09-14 08:24:00,
2013-09-14 04:25:00,69.1,58.1,29.82,North,8,0.0,5.0,68,0.00,,---,0.00,VWS V14.01,2013-09-14 08:25:00,
2013-09-14 04:26:00,69.1,58.1,29.82,North,8,0.0,5.0,68,0.00,,---,0.00,VWS V14.01,2013-09-14 08:26:00,
2013-09-14 04:27:00,69.1,58.1,29.82,North,8,0.0,5.0,68,0.00,,---,0.00,VWS V14.01,2013-09-14 08:27:00,
2013-09-14 04:28:00,69.1,58.5,29.82,NNE,27,0.0,5.0,69,0.00,,---,0.00,VWS V14.01,2013-09-14 08:28:00,
2013-09-14 04:29:00,69.1,58.5,29.82,NNE,31,0.0,5.0,69,0.00,,---,0.00,VWS V14.01,2013-09-14 08:29:00,
2013-09-14 04:30:00,69.1,58.1,29.83,NE,48,1.0,5.0,68,0.00,,---,0.00,VWS V14.01,2013-09-14 08:30:00,
2013-09-14 04:31:00,69.1,58.5,29.83,North,7,0.0,1.0,69,0.00,,---,0.00,VWS V14.01,2013-09-14 08:31:00,
2013-09-14 04:32:00,69.1,58.5,29.83,NNE,21,0.0,2.0,69,0.00,,---,0.00,VWS V14.01,2013-09-14 08:32:00,
2013-09-14 04:33:00,69.1,58.5,29.83,NNE,21,0.0,2.0,69,0.00,,---,0.00,VWS V14.01,2013-09-14 08:33:00,
2013-09-14 04:34:00,69.1,58.1,29.83,NE,47,0.0,2.0,68,0.00,,---,0.00,VWS V14.01,2013-09-14 08:34:00,
2013-09-14 04:35:00,69.1,58.1,29.83,NNE,25,1.0,2.0,68,0.00,,---,0.00,VWS V14.01,2013-09-14 08:35:00,
2013-09-14 04:36:00,69.1,58.5,29.83,North,352,6.0,7.0,69,0.00,,---,0.00,VWS V14.01,2013-09-14 08:36:00,
2013-09-14 04:37:00,69.1,58.5,29.83,ENE,71,0.0,7.0,69,0.00,,---,0.00,VWS V14.01,2013-09-14 08:37:00,
2013-09-14 04:38:00,69.1,58.1,29.83,NNE,25,2.0,7.0,68,0.00,,---,0.00,VWS V14.01,2013-09-14 08:38:00,
2013-09-14 04:39:00,69.1,58.1,29.83,North,6,0.0,7.0,68,0.00,,---,0.00,VWS V14.01,2013-09-14 08:39:00,
2013-09-14 04:40:00,69.1,58.5,29.83,NE,38,0.0,7.0,69,0.00,,---,0.00,VWS V14.01,2013-09-14 08:40:00,
2013-09-14 04:41:00,69.1,58.5,29.83,NNE,30,2.0,3.0,69,0.00,,---,0.00,VWS V14.01,2013-09-14 08:41:00,
2013-09-14 04:42:00,68.9,58.3,29.83,North,0,2.0,5.0,69,0.00,,---,0.00,VWS V14.01,2013-09-14 08:42:00,
2013-09-14 04:43:00,68.9,58.3,29.83,NE,37,0.0,5.0,69,0.00,,---,0.00,VWS V14.01,2013-09-14 08:43:00,
2013-09-14 04:44:00,68.9,58.3,29.83,NE,37,1.0,5.0,69,0.00,,---,0.00,VWS V14.01,2013-09-14 08:44:00,
2013-09-14 04:45:00,68.9,58.3,29.83,East,85,4.0,7.0,69,0.00,,---,0.00,VWS V14.01,2013-09-14 08:45:00,
2013-09-14 04:46:00,68.9,58.3,29.83,NNE,32,0.0,7.0,69,0.00,,---,0.00,VWS V14.01,2013-09-14 08:46:00,
2013-09-14 04:47:00,68.9,58.3,29.83,ENE,66,1.0,7.0,69,0.00,,---,0.00,VWS V14.01,2013-09-14 08:47:00,
2013-09-14 04:48:00,68.9,58.3,29.83,NNE,16,0.0,7.0,69,0.00,,---,0.00,VWS V14.01,2013-09-14 08:48:00,
2013-09-14 04:49:00,68.9,58.7,29.83,NE,47,3.0,7.0,70,0.00,,---,0.00,VWS V14.01,2013-09-14 08:49:00,
2013-09-14 04:50:00,68.9,59.1,29.83,NE,40,3.0,7.0,71,0.00,,---,0.00,VWS V14.01,2013-09-14 08:50:00,
2013-09-14 04:51:00,68.9,59.1,29.83,NE,41,0.0,3.0,71,0.00,,---,0.00,VWS V14.01,2013-09-14 08:51:00,
2013-09-14 04:52:00,68.9,59.1,29.83,NNE,14,4.0,4.0,71,0.00,,---,0.00,VWS V14.01,2013-09-14 08:52:00,
2013-09-14 04:53:00,68.9,58.7,29.83,NE,40,3.0,5.0,70,0.00,,---,0.00,VWS V14.01,2013-09-14 08:53:00,
2013-09-14 04:54:00,68.9,58.7,29.83,NNE,17,6.0,6.0,70,0.00,,---,0.00,VWS V14.01,2013-09-14 08:54:00,
2013-09-14 04:55:00,68.9,58.7,29.83,NNE,28,2.0,10.0,70,0.00,,---,0.00,VWS V14.01,2013-09-14 08:55:00,
2013-09-14 04:56:00,68.9,58.7,29.83,NE,41,2.0,10.0,70,0.00,,---,0.00,VWS V14.01,2013-09-14 08:56:00,
2013-09-14 04:57:00,69.1,58.9,29.83,East,96,0.0,10.0,70,0.00,,---,0.00,VWS V14.01,2013-09-14 08:57:00,
2013-09-14 04:58:00,69.1,58.9,29.83,ENE,61,1.0,10.0,70,0.00,,---,0.00,VWS V14.01,2013-09-14 08:58:00,
2013-09-14 04:59:00,69.1,59.3,29.83,NE,52,0.0,10.0,71,0.00,,---,0.00,VWS V14.01,2013-09-14 08:59:00,
2013-09-14 05:00:00,68.9,59.1,29.83,NNE,14,3.0,10.0,71,0.00,,---,0.00,VWS V14.01,2013-09-14 09:00:00,
2013-09-14 05:01:00,68.9,58.7,29.83,NNE,17,6.0,6.0,70,0.00,,---,0.00,VWS V14.01,2013-09-14 09:01:00,
2013-09-14 05:02:00,68.9,58.7,29.83,NE,42,4.0,6.0,70,0.00,,---,0.00,VWS V14.01,2013-09-14 09:02:00,
2013-09-14 05:03:00,68.9,59.1,29.83,East,89,6.0,6.0,71,0.00,,---,0.00,VWS V14.01,2013-09-14 09:03:00,
2013-09-14 05:04:00,68.9,59.1,29.83,NE,35,2.0,8.0,71,0.00,,---,0.00,VWS V14.01,2013-09-14 09:04:00,
2013-09-14 05:05:00,68.8,59.0,29.83,NE,44,2.0,8.0,71,0.00,,---,0.00,VWS V14.01,2013-09-14 09:05:00,
2013-09-14 05:06:00,68.8,58.6,29.83,NNE,30,1.0,8.0,70,0.00,,---,0.00,VWS V14.01,2013-09-14 09:06:00,
2013-09-14 05:07:00,68.8,59.0,29.83,SSE,152,5.0,8.0,71,0.00,,---,0.00,VWS V14.01,2013-09-14 09:07:00,
2013-09-14 05:08:00,68.8,59.0,29.83,North,0,5.0,8.0,71,0.00,,---,0.00,VWS V14.01,2013-09-14 09:08:00,
2013-09-14 05:09:00,68.8,59.0,29.83,ESE,106,4.0,8.0,71,0.00,,---,0.00,VWS V14.01,2013-09-14 09:09:00,
2013-09-14 05:10:00,68.6,58.8,29.83,ENE,78,0.0,8.0,71,0.00,,---,0.00,VWS V14.01,2013-09-14 09:10:00,
2013-09-14 05:11:00,68.6,59.2,29.83,ENE,78,0.0,0.0,72,0.00,,---,0.00,VWS V14.01,2013-09-14 09:11:00,
2013-09-14 05:12:00,68.6,58.8,29.83,NE,48,0.0,4.0,71,0.00,,---,0.00,VWS V14.01,2013-09-14 09:12:00,
2013-09-14 05:13:00,68.6,58.8,29.83,NE,45,0.0,4.0,71,0.00,,---,0.00,VWS V14.01,2013-09-14 09:13:00,
2013-09-14 05:14:00,68.6,58.8,29.83,NE,45,0.0,4.0,71,0.00,,---,0.00,VWS V14.01,2013-09-14 09:14:00,
2013-09-14 05:15:00,68.6,59.2,29.83,NE,56,5.0,5.0,72,0.00,,---,0.00,VWS V14.01,2013-09-14 09:15:00,
2013-09-14 05:16:00,68.4,58.6,29.83,NE,51,0.0,5.0,71,0.00,,---,0.00,VWS V14.01,2013-09-14 09:16:00,
2013-09-14 05:17:00,68.4,58.6,29.83,NE,45,0.0,5.0,71,0.00,,---,0.00,VWS V14.01,2013-09-14 09:17:00,
2013-09-14 05:18:00,68.4,58.2,29.83,North,7,5.0,5.0,70,0.00,,---,0.00,VWS V14.01,2013-09-14 09:18:00,
2013-09-14 05:19:00,68.4,58.6,29.83,NNE,21,0.0,6.0,71,0.00,,---,0.00,VWS V14.01,2013-09-14 09:19:00,
2013-09-14 05:20:00,68.4,58.2,29.83,NNE,27,2.0,6.0,70,0.00,,---,0.00,VWS V14.01,2013-09-14 09:20:00,
2013-09-14 05:21:00,68.3,58.2,29.83,NE,55,3.0,5.0,70,0.00,,---,0.00,VWS V14.01,2013-09-14 09:21:00,
2013-09-14 05:22:00,68.3,58.2,29.83,ENE,64,1.0,6.0,70,0.00,,---,0.00,VWS V14.01,2013-09-14 09:22:00,
2013-09-14 05:23:00,68.3,58.2,29.83,ENE,64,0.0,6.0,70,0.00,,---,0.00,VWS V14.01,2013-09-14 09:23:00,
2013-09-14 05:24:00,68.3,58.5,29.83,NE,48,0.0,6.0,71,0.00,,---,0.00,VWS V14.01,2013-09-14 09:24:00,
2013-09-14 05:25:00,68.3,58.9,29.83,NNE,21,1.0,8.0,72,0.00,,---,0.00,VWS V14.01,2013-09-14 09:25:00,
2013-09-14 05:26:00,68.3,58.9,29.83,East,100,2.0,8.0,72,0.00,,---,0.00,VWS V14.01,2013-09-14 09:26:00,
2013-09-14 05:27:00,68.3,58.5,29.83,NE,41,5.0,8.0,71,0.00,,---,0.00,VWS V14.01,2013-09-14 09:27:00,
2013-09-14 05:28:00,68.3,58.5,29.83,NE,51,0.0,8.0,71,0.00,,---,0.00,VWS V14.01,2013-09-14 09:28:00,
2013-09-14 05:29:00,68.1,58.3,29.83,North,0,7.0,8.0,71,0.00,,---,0.00,VWS V14.01,2013-09-14 09:29:00,
2013-09-14 05:30:00,68.1,58.3,29.83,NNE,31,0.0,8.0,71,0.00,,---,0.00,VWS V14.01,2013-09-14 09:30:00,
2013-09-14 05:31:00,68.1,58.7,29.83,NNE,27,3.0,4.0,72,0.00,,---,0.00,VWS V14.01,2013-09-14 09:31:00,
2013-09-14 05:32:00,68.1,58.7,29.83,NE,37,4.0,5.0,72,0.00,,---,0.00,VWS V14.01,2013-09-14 09:32:00,
2013-09-14 05:33:00,68.1,58.3,29.83,NNE,30,3.0,8.0,71,0.00,,---,0.00,VWS V14.01,2013-09-14 09:33:00,
2013-09-14 05:34:00,68.1,58.7,29.83,NNE,14,1.0,8.0,72,0.00,,---,0.00,VWS V14.01,2013-09-14 09:34:00,
2013-09-14 05:35:00,68.1,58.7,29.83,NE,45,0.0,8.0,72,0.00,,---,0.00,VWS V14.01,2013-09-14 09:35:00,
2013-09-14 05:36:00,68.1,58.7,29.83,NE,47,1.0,8.0,72,0.00,,---,0.00,VWS V14.01,2013-09-14 09:36:00,
2013-09-14 05:37:00,68.1,58.7,29.83,NE,47,0.0,8.0,72,0.00,,---,0.00,VWS V14.01,2013-09-14 09:37:00,
2013-09-14 05:38:00,68.1,58.7,29.83,NE,54,0.0,8.0,72,0.00,,---,0.00,VWS V14.01,2013-09-14 09:38:00,
2013-09-14 05:39:00,68.1,58.7,29.83,NE,54,0.0,8.0,72,0.00,,---,0.00,VWS V14.01,2013-09-14 09:39:00,
2013-09-14 05:40:00,67.9,58.5,29.83,NE,40,0.0,8.0,72,0.00,,---,0.00,VWS V14.01,2013-09-14 09:40:00,
2013-09-14 05:41:00,67.9,58.2,29.83,NNE,28,1.0,3.0,71,0.00,,---,0.00,VWS V14.01,2013-09-14 09:41:00,
2013-09-14 05:42:00,67.9,58.5,29.83,NNE,23,0.0,3.0,72,0.00,,---,0.00,VWS V14.01,2013-09-14 09:42:00,
2013-09-14 05:43:00,67.9,58.5,29.83,NNE,23,0.0,3.0,72,0.00,,---,0.00,VWS V14.01,2013-09-14 09:43:00,
2013-09-14 05:44:00,67.9,58.5,29.83,NNE,23,0.0,3.0,72,0.00,,---,0.00,VWS V14.01,2013-09-14 09:44:00,
2013-09-14 05:45:00,67.9,58.5,29.84,NE,45,2.0,3.0,72,0.00,,---,0.00,VWS V14.01,2013-09-14 09:45:00,
2013-09-14 05:46:00,67.9,58.5,29.84,NNE,24,2.0,3.0,72,0.00,,---,0.00,VWS V14.01,2013-09-14 09:46:00,
2013-09-14 05:47:00,67.9,58.2,29.84,ENE,59,2.0,3.0,71,0.00,,---,0.00,VWS V14.01,2013-09-14 09:47:00,
2013-09-14 05:48:00,67.9,58.2,29.84,ENE,69,0.0,6.0,71,0.00,,---,0.00,VWS V14.01,2013-09-14 09:48:00,
2013-09-14 05:49:00,67.9,58.2,29.84,NNE,23,0.0,6.0,71,0.00,,---,0.00,VWS V14.01,2013-09-14 09:49:00,
2013-09-14 05:50:00,67.9,58.2,29.84,NNE,23,0.0,6.0,71,0.00,,---,0.00,VWS V14.01,2013-09-14 09:50:00,
2013-09-14 05:51:00,67.8,57.7,29.84,North,11,0.0,2.0,70,0.00,,---,0.00,VWS V14.01,2013-09-14 09:51:00,
2013-09-14 05:52:00,67.8,57.7,29.84,NNW,347,1.0,2.0,70,0.00,,---,0.00,VWS V14.01,2013-09-14 09:52:00,
2013-09-14 05:53:00,67.8,57.7,29.84,NNE,28,2.0,4.0,70,0.00,,---,0.00,VWS V14.01,2013-09-14 09:53:00,
2013-09-14 05:54:00,67.8,57.3,29.84,NNE,32,2.0,4.0,69,0.00,,---,0.00,VWS V14.01,2013-09-14 09:54:00,
2013-09-14 05:55:00,67.8,57.7,29.84,NNE,23,0.0,6.0,70,0.00,,---,0.00,VWS V14.01,2013-09-14 09:55:00,
2013-09-14 05:56:00,67.8,58.1,29.84,NNE,28,0.0,6.0,71,0.00,,---,0.00,VWS V14.01,2013-09-14 09:56:00,
2013-09-14 05:57:00,67.8,57.7,29.84,NE,48,0.0,6.0,70,0.00,,---,0.00,VWS V14.01,2013-09-14 09:57:00,
2013-09-14 05:58:00,67.6,57.5,29.84,North,0,2.0,6.0,70,0.00,,---,0.00,VWS V14.01,2013-09-14 09:58:00,
2013-09-14 05:59:00,67.6,57.5,29.84,NE,38,1.0,6.0,70,0.00,,---,0.00,VWS V14.01,2013-09-14 09:59:00,
2013-09-14 06:00:00,67.6,57.5,29.85,NE,44,0.0,6.0,70,0.00,,---,0.00,VWS V14.01,2013-09-14 10:00:00,
2013-09-14 06:01:00,67.6,57.5,29.85,NE,35,0.0,1.0,70,0.00,,---,0.00,VWS V14.01,2013-09-14 10:01:00,
2013-09-14 06:02:00,67.6,57.9,29.85,ENE,68,3.0,3.0,71,0.00,,---,0.00,VWS V14.01,2013-09-14 10:02:00,
2013-09-14 06:03:00,67.6,57.5,29.85,North,11,0.0,4.0,70,0.00,,---,0.00,VWS V14.01,2013-09-14 10:03:00,
2013-09-14 06:04:00,67.6,57.5,29.85,NE,55,2.0,5.0,70,0.00,,---,0.00,VWS V14.01,2013-09-14 10:04:00,
2013-09-14 06:05:00,67.4,57.7,29.85,NNE,28,4.0,5.0,71,0.00,,---,0.00,VWS V14.01,2013-09-14 10:05:00,
2013-09-14 06:06:00,67.4,57.3,29.85,NE,51,3.0,6.0,70,0.00,,---,0.00,VWS V14.01,2013-09-14 10:06:00,
2013-09-14 06:07:00,67.4,57.3,29.85,NE,52,5.0,6.0,70,0.00,,---,0.00,VWS V14.01,2013-09-14 10:07:00,
2013-09-14 06:08:00,67.4,57.3,29.85,NNE,24,0.0,6.0,70,0.00,,---,0.00,VWS V14.01,2013-09-14 10:08:00,
2013-09-14 06:09:00,67.4,57.3,29.85,ENE,59,3.0,6.0,70,0.00,,---,0.00,VWS V14.01,2013-09-14 10:09:00,
2013-09-14 06:10:00,67.4,56.9,29.85,ENE,62,0.0,6.0,69,0.00,,---,0.00,VWS V14.01,2013-09-14 10:10:00,
2013-09-14 06:11:00,67.4,57.7,29.85,NNE,14,0.0,1.0,71,0.00,,---,0.00,VWS V14.01,2013-09-14 10:11:00,
2013-09-14 06:12:00,67.4,57.7,29.85,NNE,20,3.0,3.0,71,0.00,,---,0.00,VWS V14.01,2013-09-14 10:12:00,
2013-09-14 06:13:00,67.4,57.3,29.85,NE,41,1.0,3.0,70,0.00,,---,0.00,VWS V14.01,2013-09-14 10:13:00,
2013-09-14 06:14:00,67.4,57.3,29.85,NE,41,0.0,3.0,70,0.00,,---,0.00,VWS V14.01,2013-09-14 10:14:00,
2013-09-14 06:15:00,67.4,57.3,29.85,NE,44,2.0,5.0,70,0.00,,---,0.00,VWS V14.01,2013-09-14 10:15:00,
2013-09-14 06:16:00,67.4,56.9,29.85,NE,52,0.0,5.0,69,0.00,,---,0.00,VWS V14.01,2013-09-14 10:16:00,
2013-09-14 06:17:00,67.3,57.2,29.85,NE,49,3.0,5.0,70,0.00,,---,0.00,VWS V14.01,2013-09-14 10:17:00,
2013-09-14 06:18:00,67.3,57.6,29.85,ENE,61,7.0,7.0,71,0.00,,---,0.00,VWS V14.01,2013-09-14 10:18:00,
2013-09-14 06:19:00,67.3,57.6,29.85,ENE,66,3.0,7.0,71,0.00,,---,0.00,VWS V14.01,2013-09-14 10:19:00,
2013-09-14 06:20:00,67.3,56.4,29.85,NNE,17,2.0,7.0,68,0.00,,---,0.00,VWS V14.01,2013-09-14 10:20:00,
2013-09-14 06:21:00,67.3,56.8,29.85,NE,42,2.0,6.0,69,0.00,,---,0.00,VWS V14.01,2013-09-14 10:21:00,
2013-09-14 06:22:00,67.3,56.8,29.85,NE,56,0.0,6.0,69,0.00,,---,0.00,VWS V14.01,2013-09-14 10:22:00,
2013-09-14 06:23:00,67.3,56.8,29.85,NNE,18,1.0,6.0,69,0.00,,---,0.00,VWS V14.01,2013-09-14 10:23:00,
2013-09-14 06:24:00,67.3,56.8,29.85,NNE,16,1.0,6.0,69,0.00,,---,0.00,VWS V14.01,2013-09-14 10:24:00,
2013-09-14 06:25:00,67.3,56.4,29.85,ENE,76,1.0,6.0,68,0.00,,---,0.00,VWS V14.01,2013-09-14 10:25:00,
2013-09-14 06:26:00,67.3,56.0,29.85,NNE,24,4.0,6.0,67,0.00,,---,0.00,VWS V14.01,2013-09-14 10:26:00,
2013-09-14 06:27:00,67.1,56.2,29.85,NNE,31,3.0,6.0,68,0.00,,---,0.00,VWS V14.01,2013-09-14 10:27:00,
2013-09-14 06:28:00,67.1,56.6,29.85,NE,44,0.0,6.0,69,0.00,,---,0.00,VWS V14.01,2013-09-14 10:28:00,
2013-09-14 06:29:00,67.1,56.2,29.85,NNE,25,2.0,6.0,68,0.00,,---,0.00,VWS V14.01,2013-09-14 10:29:00,
2013-09-14 06:30:00,67.1,56.2,29.86,NNE,28,2.0,6.0,68,0.00,,---,0.00,VWS V14.01,2013-09-14 10:30:00,
2013-09-14 06:31:00,67.1,56.2,29.86,NNE,17,0.0,2.0,68,0.00,,---,0.00,VWS V14.01,2013-09-14 10:31:00,
2013-09-14 06:32:00,67.1,56.2,29.86,NNE,23,2.0,2.0,68,0.00,,---,0.00,VWS V14.01,2013-09-14 10:32:00,
2013-09-14 06:33:00,67.1,56.6,29.86,NNE,18,5.0,5.0,69,0.00,,---,0.00,VWS V14.01,2013-09-14 10:33:00,
2013-09-14 06:34:00,67.1,56.6,29.86,NNE,24,0.0,5.0,69,0.00,,---,0.00,VWS V14.01,2013-09-14 10:34:00,
2013-09-14 06:35:00,67.1,56.6,29.86,NNE,31,2.0,5.0,69,0.00,,---,0.00,VWS V14.01,2013-09-14 10:35:00,
2013-09-14 06:36:00,67.1,56.6,29.86,NNE,23,4.0,5.0,69,0.00,,---,0.00,VWS V14.01,2013-09-14 10:36:00,
2013-09-14 06:37:00,67.1,56.6,29.86,North,10,0.0,5.0,69,0.00,,---,0.00,VWS V14.01,2013-09-14 10:37:00,
2013-09-14 06:38:00,67.1,56.6,29.86,ENE,68,3.0,5.0,69,0.00,,---,0.00,VWS V14.01,2013-09-14 10:38:00,
2013-09-14 06:39:00,67.1,56.6,29.86,ENE,68,3.0,5.0,69,0.00,,---,0.00,VWS V14.01,2013-09-14 10:39:00,
2013-09-14 06:40:00,67.1,56.6,29.86,NE,35,0.0,5.0,69,0.00,,---,0.00,VWS V14.01,2013-09-14 10:40:00,
2013-09-14 06:41:00,67.1,56.2,29.86,ENE,62,1.0,2.0,68,0.00,,---,0.00,VWS V14.01,2013-09-14 10:41:00,
2013-09-14 06:42:00,67.1,56.2,29.86,NNE,17,0.0,2.0,68,0.00,,---,0.00,VWS V14.01,2013-09-14 10:42:00,
2013-09-14 06:43:00,67.1,56.6,29.86,NNE,17,0.0,2.0,69,0.00,,---,0.00,VWS V14.01,2013-09-14 10:43:00,
2013-09-14 06:44:00,67.1,56.6,29.86,NE,52,4.0,4.0,69,0.00,,---,0.00,VWS V14.01,2013-09-14 10:44:00,
2013-09-14 06:45:00,67.1,56.2,29.86,NNE,30,0.0,4.0,68,0.00,,---,0.00,VWS V14.01,2013-09-14 10:45:00,
2013-09-14 06:46:00,67.1,56.2,29.86,NNE,30,0.0,4.0,68,0.00,,---,0.00,VWS V14.01,2013-09-14 10:46:00,
2013-09-14 06:47:00,67.1,56.6,29.86,NNE,21,1.0,4.0,69,0.00,,---,0.00,VWS V14.01,2013-09-14 10:47:00,
2013-09-14 06:48:00,67.1,56.6,29.86,North,10,0.0,4.0,69,0.00,,---,0.00,VWS V14.01,2013-09-14 10:48:00,
2013-09-14 06:49:00,66.9,56.0,29.86,North,10,0.0,4.0,68,0.00,,---,0.00,VWS V14.01,2013-09-14 10:49:00,
2013-09-14 06:50:00,66.9,56.4,29.86,North,10,0.0,4.0,69,0.00,,---,0.00,VWS V14.01,2013-09-14 10:50:00,
2013-09-14 06:51:00,66.9,56.4,29.86,North,10,0.0,0.0,69,0.00,,---,0.00,VWS V14.01,2013-09-14 10:51:00,
2013-09-14 06:52:00,66.9,56.8,29.86,North,10,0.0,0.0,70,0.00,,---,0.00,VWS V14.01,2013-09-14 10:52:00,
2013-09-14 06:53:00,66.9,56.8,29.86,North,10,0.0,0.0,70,0.00,,---,0.00,VWS V14.01,2013-09-14 10:53:00,
2013-09-14 06:54:00,66.9,56.8,29.86,North,3,0.0,3.0,70,0.00,,---,0.00,VWS V14.01,2013-09-14 10:54:00,
2013-09-14 06:55:00,66.9,56.4,29.86,North,7,0.0,3.0,69,0.00,,---,0.00,VWS V14.01,2013-09-14 10:55:00,
2013-09-14 06:56:00,66.9,56.8,29.86,NE,49,0.0,3.0,70,0.00,,---,0.00,VWS V14.01,2013-09-14 10:56:00,
2013-09-14 06:57:00,66.9,56.8,29.86,ENE,68,5.0,7.0,70,0.00,,---,0.00,VWS V14.01,2013-09-14 10:57:00,
2013-09-14 06:58:00,66.8,55.9,29.86,East,85,0.0,7.0,68,0.00,,---,0.00,VWS V14.01,2013-09-14 10:58:00,
2013-09-14 06:59:00,66.8,55.9,29.86,NNE,18,3.0,7.0,68,0.00,,---,0.00,VWS V14.01,2013-09-14 10:59:00,
2013-09-14 07:00:00,66.8,55.9,29.88,NNE,32,3.0,7.0,68,0.00,,---,0.00,VWS V14.01,2013-09-14 11:00:00,
2013-09-14 07:01:00,66.8,56.7,29.88,East,82,0.0,2.0,70,0.00,,---,0.00,VWS V14.01,2013-09-14 11:01:00,
2013-09-14 07:02:00,66.8,56.3,29.88,NE,48,3.0,3.0,69,0.00,,---,0.00,VWS V14.01,2013-09-14 11:02:00,
2013-09-14 07:03:00,66.8,56.3,29.88,NE,44,0.0,3.0,69,0.00,,---,0.00,VWS V14.01,2013-09-14 11:03:00,
2013-09-14 07:04:00,66.8,56.3,29.88,NE,44,0.0,3.0,69,0.00,,---,0.00,VWS V14.01,2013-09-14 11:04:00,
2013-09-14 07:05:00,66.6,56.1,29.88,NE,42,0.0,3.0,69,0.00,,---,0.00,VWS V14.01,2013-09-14 11:05:00,
2013-09-14 07:06:00,66.6,56.1,29.88,NE,44,3.0,4.0,69,0.00,,---,0.00,VWS V14.01,2013-09-14 11:06:00,
2013-09-14 07:07:00,66.6,56.1,29.88,NNE,23,2.0,5.0,69,0.00,,---,0.00,VWS V14.01,2013-09-14 11:07:00,
2013-09-14 07:08:00,66.6,56.1,29.88,NE,34,3.0,5.0,69,0.00,,---,0.00,VWS V14.01,2013-09-14 11:08:00,
2013-09-14 07:09:00,66.6,56.1,29.88,NE,37,2.0,6.0,69,0.00,,---,0.00,VWS V14.01,2013-09-14 11:09:00,
2013-09-14 07:10:00,66.6,56.1,29.88,NNE,25,0.0,6.0,69,0.00,,---,0.00,VWS V14.01,2013-09-14 11:10:00,
2013-09-14 07:11:00,66.6,55.7,29.88,North,1,2.0,3.0,68,0.00,,---,0.00,VWS V14.01,2013-09-14 11:11:00,
2013-09-14 07:12:00,66.6,56.1,29.88,NNE,24,2.0,3.0,69,0.00,,---,0.00,VWS V14.01,2013-09-14 11:12:00,
2013-09-14 07:13:00,66.6,56.5,29.88,NNE,16,1.0,5.0,70,0.00,,---,0.00,VWS V14.01,2013-09-14 11:13:00,
2013-09-14 07:14:00,66.6,56.5,29.88,NNE,16,1.0,5.0,70,0.00,,---,0.00,VWS V14.01,2013-09-14 11:14:00,
2013-09-14 07:15:00,66.4,56.3,29.88,NNE,30,2.0,5.0,70,0.00,,---,0.00,VWS V14.01,2013-09-14 11:15:00,
2013-09-14 07:16:00,66.4,55.9,29.88,NNE,30,0.0,5.0,69,0.00,,---,0.00,VWS V14.01,2013-09-14 11:16:00,
2013-09-14 07:17:00,66.4,55.9,29.88,NE,34,0.0,5.0,69,0.00,,---,0.00,VWS V14.01,2013-09-14 11:17:00,
2013-09-14 07:18:00,66.4,56.3,29.88,NE,34,0.0,5.0,70,0.00,,---,0.00,VWS V14.01,2013-09-14 11:18:00,
2013-09-14 07:19:00,66.4,56.3,29.88,NE,45,3.0,5.0,70,0.00,,---,0.00,VWS V14.01,2013-09-14 11:19:00,
2013-09-14 07:20:00,66.4,56.3,29.88,NE,45,0.0,5.0,70,0.00,,---,0.00,VWS V14.01,2013-09-14 11:20:00,
2013-09-14 07:21:00,66.4,55.9,29.88,NE,52,2.0,3.0,69,0.00,,---,0.00,VWS V14.01,2013-09-14 11:21:00,
2013-09-14 07:22:00,66.4,55.9,29.88,NNE,17,0.0,6.0,69,0.00,,---,0.00,VWS V14.01,2013-09-14 11:22:00,
2013-09-14 07:23:00,66.4,56.3,29.88,NNE,27,0.0,6.0,70,0.00,,---,0.00,VWS V14.01,2013-09-14 11:23:00,
2013-09-14 07:24:00,66.4,55.9,29.88,NE,44,1.0,6.0,69,0.00,,---,0.00,VWS V14.01,2013-09-14 11:24:00,
2013-09-14 07:25:00,66.3,56.2,29.88,NE,48,2.0,6.0,70,0.00,,---,0.00,VWS V14.01,2013-09-14 11:25:00,
2013-09-14 07:26:00,66.3,55.8,29.88,ENE,72,0.0,6.0,69,0.00,,---,0.00,VWS V14.01,2013-09-14 11:26:00,
2013-09-14 07:27:00,66.3,55.4,29.88,NE,35,2.0,8.0,68,0.00,,---,0.00,VWS V14.01,2013-09-14 11:27:00,
2013-09-14 07:28:00,66.3,55.4,29.88,NE,35,0.0,8.0,68,0.00,,---,0.00,VWS V14.01,2013-09-14 11:28:00,
2013-09-14 07:29:00,66.3,55.8,29.88,NNE,20,1.0,8.0,69,0.00,,---,0.00,VWS V14.01,2013-09-14 11:29:00,
2013-09-14 07:30:00,66.3,55.8,29.88,NE,44,2.0,8.0,69,0.00,,---,0.00,VWS V14.01,2013-09-14 11:30:00,
2013-09-14 07:31:00,66.1,55.2,29.88,North,0,1.0,4.0,68,0.00,,---,0.00,VWS V14.01,2013-09-14 11:31:00,
2013-09-14 07:32:00,66.1,55.2,29.88,NE,52,4.0,6.0,68,0.00,,---,0.00,VWS V14.01,2013-09-14 11:32:00,
2013-09-14 07:33:00,66.1,55.2,29.88,NNE,31,1.0,6.0,68,0.00,,---,0.00,VWS V14.01,2013-09-14 11:33:00,
2013-09-14 07:34:00,66.1,55.7,29.88,NNE,32,0.0,6.0,69,0.00,,---,0.00,VWS V14.01,2013-09-14 11:34:00,
2013-09-14 07:35:00,66.1,56.0,29.88,NNE,30,0.0,6.0,70,0.00,,---,0.00,VWS V14.01,2013-09-14 11:35:00,
2013-09-14 07:36:00,66.1,56.0,29.88,ENE,78,0.0,6.0,70,0.00,,---,0.00,VWS V14.01,2013-09-14 11:36:00,
2013-09-14 07:37:00,66.1,56.0,29.88,ENE,66,0.0,6.0,70,0.00,,---,0.00,VWS V14.01,2013-09-14 11:37:00,
2013-09-14 07:38:00,66.1,55.7,29.88,NNE,28,3.0,6.0,69,0.00,,---,0.00,VWS V14.01,2013-09-14 11:38:00,
2013-09-14 07:39:00,66.1,56.4,29.88,NNE,16,2.0,6.0,71,0.00,,---,0.00,VWS V14.01,2013-09-14 11:39:00,
2013-09-14 07:40:00,66.1,56.0,29.88,NE,42,2.0,6.0,70,0.00,,---,0.00,VWS V14.01,2013-09-14 11:40:00,
2013-09-14 07:41:00,66.1,55.7,29.88,ENE,73,3.0,3.0,69,0.00,,---,0.00,VWS V14.01,2013-09-14 11:41:00,
2013-09-14 07:42:00,66.1,56.0,29.88,NNE,14,1.0,8.0,70,0.00,,---,0.00,VWS V14.01,2013-09-14 11:42:00,
2013-09-14 07:43:00,66.1,55.7,29.88,NNE,13,4.0,8.0,69,0.00,,---,0.00,VWS V14.01,2013-09-14 11:43:00,
2013-09-14 07:44:00,66.1,55.7,29.88,North,6,5.0,8.0,69,0.00,,---,0.00,VWS V14.01,2013-09-14 11:44:00,
2013-09-14 07:45:00,66.1,55.7,29.89,NNE,16,1.0,8.0,69,0.00,,---,0.00,VWS V14.01,2013-09-14 11:45:00,
2013-09-14 07:46:00,66.0,56.0,29.89,North,3,3.0,8.0,70,0.00,,---,0.00,VWS V14.01,2013-09-14 11:46:00,
2013-09-14 07:47:00,66.0,54.7,29.89,NNE,27,3.0,8.0,67,0.00,,---,0.00,VWS V14.01,2013-09-14 11:47:00,
2013-09-14 07:48:00,66.0,55.5,29.89,NE,51,0.0,8.0,69,0.00,,---,0.00,VWS V14.01,2013-09-14 11:48:00,
2013-09-14 07:49:00,66.0,55.5,29.89,NNE,25,2.0,8.0,69,0.00,,---,0.00,VWS V14.01,2013-09-14 11:49:00,
2013-09-14 07:50:00,66.0,55.5,29.89,North,4,4.0,8.0,69,0.00,,---,0.00,VWS V14.01,2013-09-14 11:50:00,
2013-09-14 07:51:00,66.0,55.2,29.89,ENE,58,0.0,5.0,68,0.00,,---,0.00,VWS V14.01,2013-09-14 11:51:00,
2013-09-14 07:52:00,66.0,55.2,29.89,NE,56,0.0,5.0,68,0.00,,---,0.00,VWS V14.01,2013-09-14 11:52:00,
2013-09-14 07:53:00,66.0,55.2,29.89,NE,56,0.0,5.0,68,0.00,,---,0.00,VWS V14.01,2013-09-14 11:53:00,
2013-09-14 07:54:00,66.0,55.5,29.89,NNE,16,3.0,5.0,69,0.00,,---,0.00,VWS V14.01,2013-09-14 11:54:00,
2013-09-14 07:55:00,66.0,55.5,29.89,NNE,28,1.0,5.0,69,0.00,,---,0.00,VWS V14.01,2013-09-14 11:55:00,
2013-09-14 07:56:00,66.0,55.2,29.89,ENE,78,0.0,6.0,68,0.00,,---,0.00,VWS V14.01,2013-09-14 11:56:00,
2013-09-14 07:57:00,66.0,55.2,29.89,NE,37,6.0,6.0,68,0.00,,---,0.00,VWS V14.01,2013-09-14 11:57:00,
2013-09-14 07:58:00,66.0,55.2,29.89,NE,42,6.0,8.0,68,0.00,,---,0.00,VWS V14.01,2013-09-14 11:58:00,
2013-09-14 07:59:00,66.0,55.2,29.89,NE,48,3.0,8.0,68,0.00,,---,0.00,VWS V14.01,2013-09-14 11:59:00,
2013-09-14 08:00:00,66.0,54.7,29.90,NE,41,3.0,9.0,67,0.00,,---,0.00,VWS V14.01,2013-09-14 12:00:00,
2013-09-14 08:01:00,66.0,55.2,29.90,NNE,21,0.0,6.0,68,0.00,,---,0.00,VWS V14.01,2013-09-14 12:01:00,
2013-09-14 08:02:00,66.0,55.2,29.90,NE,34,3.0,6.0,68,0.00,,---,0.00,VWS V14.01,2013-09-14 12:02:00,
2013-09-14 08:03:00,66.0,54.3,29.90,NNE,28,7.0,10.0,66,0.00,,---,0.00,VWS V14.01,2013-09-14 12:03:00,
2013-09-14 08:04:00,66.0,53.9,29.90,ENE,64,4.0,10.0,65,0.00,,---,0.00,VWS V14.01,2013-09-14 12:04:00,
2013-09-14 08:05:00,65.8,54.1,29.90,North,3,7.0,10.0,66,0.00,,---,0.00,VWS V14.01,2013-09-14 12:05:00,
2013-09-14 08:06:00,65.8,54.1,29.90,ENE,75,3.0,10.0,66,0.00,,---,0.00,VWS V14.01,2013-09-14 12:06:00,
2013-09-14 08:07:00,65.8,54.1,29.90,NE,45,5.0,10.0,66,0.00,,---,0.00,VWS V14.01,2013-09-14 12:07:00,
2013-09-14 08:08:00,65.8,54.1,29.90,ENE,61,4.0,10.0,66,0.00,,---,0.00,VWS V14.01,2013-09-14 12:08:00,
2013-09-14 08:09:00,65.8,54.1,29.90,NE,52,8.0,10.0,66,0.00,,---,0.00,VWS V14.01,2013-09-14 12:09:00,
2013-09-14 08:10:00,65.8,54.1,29.90,ENE,76,4.0,10.0,66,0.00,,---,0.00,VWS V14.01,2013-09-14 12:10:00,
2013-09-14 08:11:00,65.8,54.5,29.90,ENE,66,0.0,6.0,67,0.00,,---,0.00,VWS V14.01,2013-09-14 12:11:00,
2013-09-14 08:12:00,65.8,55.0,29.90,ENE,68,0.0,6.0,68,0.00,,---,0.00,VWS V14.01,2013-09-14 12:12:00,
2013-09-14 08:13:00,65.8,55.0,29.90,NNE,28,0.0,6.0,68,0.00,,---,0.00,VWS V14.01,2013-09-14 12:13:00,
2013-09-14 08:14:00,65.8,55.0,29.90,NE,42,0.0,6.0,68,0.00,,---,0.00,VWS V14.01,2013-09-14 12:14:00,
2013-09-14 08:15:00,65.8,55.0,29.91,NE,48,4.0,8.0,68,0.00,,---,0.00,VWS V14.01,2013-09-14 12:15:00,
2013-09-14 08:16:00,66.0,54.7,29.91,NNE,32,3.0,8.0,67,0.00,,---,0.00,VWS V14.01,2013-09-14 12:16:00,
2013-09-14 08:17:00,66.0,54.7,29.91,NNE,31,0.0,8.0,67,0.00,,---,0.00,VWS V14.01,2013-09-14 12:17:00,
2013-09-14 08:18:00,66.0,54.7,29.91,North,11,1.0,8.0,67,0.00,,---,0.00,VWS V14.01,2013-09-14 12:18:00,
2013-09-14 08:19:00,66.0,54.7,29.91,NNE,21,6.0,10.0,67,0.00,,---,0.00,VWS V14.01,2013-09-14 12:19:00,
2013-09-14 08:20:00,66.0,54.3,29.91,NNE,18,3.0,10.0,66,0.00,,---,0.00,VWS V14.01,2013-09-14 12:20:00,
2013-09-14 08:21:00,66.0,54.7,29.91,NE,51,0.0,5.0,67,0.00,,---,0.00,VWS V14.01,2013-09-14 12:21:00,
2013-09-14 08:22:00,66.0,54.7,29.91,East,79,6.0,7.0,67,0.00,,---,0.00,VWS V14.01,2013-09-14 12:22:00,
2013-09-14 08:23:00,66.0,54.7,29.91,NNE,14,1.0,8.0,67,0.00,,---,0.00,VWS V14.01,2013-09-14 12:23:00,
2013-09-14 08:24:00,66.0,54.7,29.91,ENE,71,3.0,8.0,67,0.00,,---,0.00,VWS V14.01,2013-09-14 12:24:00,
2013-09-14 08:25:00,66.0,54.7,29.91,NNE,21,0.0,8.0,67,0.00,,---,0.00,VWS V14.01,2013-09-14 12:25:00,
2013-09-14 08:26:00,66.0,54.7,29.91,NNE,25,3.0,8.0,67,0.00,,---,0.00,VWS V14.01,2013-09-14 12:26:00,
2013-09-14 08:27:00,66.0,54.7,29.91,NE,54,0.0,8.0,67,0.00,,---,0.00,VWS V14.01,2013-09-14 12:27:00,
2013-09-14 08:28:00,66.0,54.7,29.91,NE,54,0.0,8.0,67,0.00,,---,0.00,VWS V14.01,2013-09-14 12:28:00,
2013-09-14 08:29:00,66.0,55.2,29.91,NE,55,0.0,12.0,68,0.00,,---,0.00,VWS V14.01,2013-09-14 12:29:00,
2013-09-14 08:30:00,66.0,55.2,29.91,North,356,7.0,12.0,68,0.00,,---,0.00,VWS V14.01,2013-09-14 12:30:00,
2013-09-14 08:31:00,66.0,54.3,29.91,NE,47,5.0,14.0,66,0.00,,---,0.00,VWS V14.01,2013-09-14 12:31:00,
2013-09-14 08:32:00,66.1,54.8,29.91,NNE,27,5.0,14.0,67,0.00,,---,0.00,VWS V14.01,2013-09-14 12:32:00,
2013-09-14 08:33:00,66.1,54.4,29.91,NE,34,7.0,14.0,66,0.00,,---,0.00,VWS V14.01,2013-09-14 12:33:00,
2013-09-14 08:34:00,66.1,54.4,29.91,East,86,6.0,14.0,66,0.00,,---,0.00,VWS V14.01,2013-09-14 12:34:00,
2013-09-14 08:35:00,66.1,54.4,29.91,NNE,24,10.0,14.0,66,0.00,,---,0.00,VWS V14.01,2013-09-14 12:35:00,
2013-09-14 08:36:00,66.1,54.0,29.91,NNE,32,2.0,14.0,65,0.00,,---,0.00,VWS V14.01,2013-09-14 12:36:00,
2013-09-14 08:37:00,66.1,54.0,29.91,NNE,32,2.0,14.0,65,0.00,,---,0.00,VWS V14.01,2013-09-14 12:37:00,
2013-09-14 08:38:00,66.1,54.0,29.91,ENE,73,6.0,14.0,65,0.00,,---,0.00,VWS V14.01,2013-09-14 12:38:00,
2013-09-14 08:39:00,66.1,54.0,29.91,NNE,16,7.0,14.0,65,0.00,,---,0.00,VWS V14.01,2013-09-14 12:39:00,
2013-09-14 08:40:00,66.1,54.0,29.91,NE,49,6.0,14.0,65,0.00,,---,0.00,VWS V14.01,2013-09-14 12:40:00,
2013-09-14 08:41:00,66.1,54.0,29.91,ENE,59,5.0,8.0,65,0.00,,---,0.00,VWS V14.01,2013-09-14 12:41:00,
2013-09-14 08:42:00,66.1,54.0,29.91,NNE,16,5.0,8.0,65,0.00,,---,0.00,VWS V14.01,2013-09-14 12:42:00,
2013-09-14 08:43:00,66.1,54.4,29.91,NNE,32,1.0,8.0,66,0.00,,---,0.00,VWS V14.01,2013-09-14 12:43:00,
2013-09-14 08:44:00,66.1,54.8,29.91,NNE,25,4.0,8.0,67,0.00,,---,0.00,VWS V14.01,2013-09-14 12:44:00,
2013-09-14 08:45:00,66.1,55.2,29.92,NE,56,5.0,8.0,68,0.00,,---,0.00,VWS V14.01,2013-09-14 12:45:00,
2013-09-14 08:46:00,66.1,54.8,29.92,NNE,23,8.0,12.0,67,0.00,,---,0.00,VWS V14.01,2013-09-14 12:46:00,
2013-09-14 08:47:00,66.1,54.8,29.92,NNE,28,7.0,12.0,67,0.00,,---,0.00,VWS V14.01,2013-09-14 12:47:00,
2013-09-14 08:48:00,66.3,54.6,29.92,NE,41,7.0,12.0,66,0.00,,---,0.00,VWS V14.01,2013-09-14 12:48:00,
2013-09-14 08:49:00,66.3,54.6,29.92,ENE,69,6.0,12.0,66,0.00,,---,0.00,VWS V14.01,2013-09-14 12:49:00,
2013-09-14 08:50:00,66.3,54.2,29.92,NE,42,4.0,12.0,65,0.00,,---,0.00,VWS V14.01,2013-09-14 12:50:00,
2013-09-14 08:51:00,66.3,54.6,29.92,NE,45,2.0,6.0,66,0.00,,---,0.00,VWS V14.01,2013-09-14 12:51:00,
2013-09-14 08:52:00,66.3,55.4,29.92,NNE,32,3.0,6.0,68,0.00,,---,0.00,VWS V14.01,2013-09-14 12:52:00,
2013-09-14 08:53:00,66.3,55.4,29.92,NE,49,8.0,10.0,68,0.00,,---,0.00,VWS V14.01,2013-09-14 12:53:00,
2013-09-14 08:54:00,66.3,54.6,29.92,NNE,31,0.0,10.0,66,0.00,,---,0.00,VWS V14.01,2013-09-14 12:54:00,
2013-09-14 08:55:00,66.4,54.3,29.92,NNE,23,5.0,10.0,65,0.00,,---,0.00,VWS V14.01,2013-09-14 12:55:00,
2013-09-14 08:56:00,66.4,54.7,29.92,NE,54,2.0,10.0,66,0.00,,---,0.00,VWS V14.01,2013-09-14 12:56:00,
2013-09-14 08:57:00,66.4,54.7,29.92,East,80,11.0,13.0,66,0.00,,---,0.00,VWS V14.01,2013-09-14 12:57:00,
2013-09-14 08:58:00,66.4,54.7,29.92,NE,52,2.0,13.0,66,0.00,,---,0.00,VWS V14.01,2013-09-14 12:58:00,
2013-09-14 08:59:00,66.6,54.9,29.92,NE,34,7.0,13.0,66,0.00,,---,0.00,VWS V14.01,2013-09-14 12:59:00,
2013-09-14 09:00:00,66.6,54.5,29.92,NNE,32,6.0,13.0,65,0.00,,---,0.00,VWS V14.01,2013-09-14 13:00:00,
2013-09-14 09:01:00,66.6,54.5,29.92,ENE,58,12.0,12.0,65,0.00,,---,0.00,VWS V14.01,2013-09-14 13:01:00,
2013-09-14 09:02:00,66.6,54.1,29.92,ENE,61,8.0,12.0,64,0.00,,---,0.00,VWS V14.01,2013-09-14 13:02:00,
2013-09-14 09:03:00,66.8,54.2,29.92,NE,35,6.0,12.0,64,0.00,,---,0.00,VWS V14.01,2013-09-14 13:03:00,
2013-09-14 09:04:00,66.8,53.8,29.92,ESE,109,6.0,12.0,63,0.00,,---,0.00,VWS V14.01,2013-09-14 13:04:00,
2013-09-14 09:05:00,66.8,53.8,29.92,NE,48,0.0,12.0,63,0.00,,---,0.00,VWS V14.01,2013-09-14 13:05:00,
2013-09-14 09:06:00,66.8,54.2,29.92,NE,34,0.0,12.0,64,0.00,,---,0.00,VWS V14.01,2013-09-14 13:06:00,
2013-09-14 09:07:00,66.8,55.1,29.92,NE,45,3.0,12.0,66,0.00,,---,0.00,VWS V14.01,2013-09-14 13:07:00,
2013-09-14 09:08:00,66.9,55.6,29.92,East,100,2.0,12.0,67,0.00,,---,0.00,VWS V14.01,2013-09-14 13:08:00,
2013-09-14 09:09:00,66.9,54.8,29.92,ENE,61,5.0,12.0,65,0.00,,---,0.00,VWS V14.01,2013-09-14 13:09:00,
2013-09-14 09:10:00,66.9,54.3,29.92,ESE,109,5.0,12.0,64,0.00,,---,0.00,VWS V14.01,2013-09-14 13:10:00,
2013-09-14 09:11:00,67.1,54.1,29.92,NNE,21,8.0,8.0,63,0.00,,---,0.00,VWS V14.01,2013-09-14 13:11:00,
2013-09-14 09:12:00,67.1,54.1,29.92,NNE,16,3.0,8.0,63,0.00,,---,0.00,VWS V14.01,2013-09-14 13:12:00,
2013-09-14 09:13:00,67.1,54.1,29.92,ENE,59,2.0,8.0,63,0.00,,---,0.00,VWS V14.01,2013-09-14 13:13:00,
2013-09-14 09:14:00,67.1,54.5,29.92,North,7,0.0,8.0,64,0.00,,---,0.00,VWS V14.01,2013-09-14 13:14:00,
2013-09-14 09:15:00,67.3,54.3,29.93,NE,49,11.0,11.0,63,0.00,,---,0.00,VWS V14.01,2013-09-14 13:15:00,
2013-09-14 09:16:00,67.3,54.3,29.93,ENE,62,10.0,14.0,63,0.00,,---,0.00,VWS V14.01,2013-09-14 13:16:00,
2013-09-14 09:17:00,67.3,54.3,29.93,East,83,0.0,14.0,63,0.00,,---,0.00,VWS V14.01,2013-09-14 13:17:00,
2013-09-14 09:18:00,67.3,54.3,29.93,East,79,6.0,14.0,63,0.00,,---,0.00,VWS V14.01,2013-09-14 13:18:00,
2013-09-14 09:19:00,67.3,54.3,29.93,East,83,2.0,14.0,63,0.00,,---,0.00,VWS V14.01,2013-09-14 13:19:00,
2013-09-14 09:20:00,67.3,53.8,29.93,NNE,18,7.0,14.0,62,0.00,,---,0.00,VWS V14.01,2013-09-14 13:20:00,
2013-09-14 09:21:00,67.3,54.3,29.93,NE,55,3.0,10.0,63,0.00,,---,0.00,VWS V14.01,2013-09-14 13:21:00,
2013-09-14 09:22:00,67.4,54.4,29.93,NE,51,11.0,12.0,63,0.00,,---,0.00,VWS V14.01,2013-09-14 13:22:00,
2013-09-14 09:23:00,67.4,53.9,29.93,NNE,16,6.0,12.0,62,0.00,,---,0.00,VWS V14.01,2013-09-14 13:23:00,
2013-09-14 09:24:00,67.4,53.9,29.93,NE,35,9.0,12.0,62,0.00,,---,0.00,VWS V14.01,2013-09-14 13:24:00,
2013-09-14 09:25:00,67.4,53.9,29.93,North,10,6.0,12.0,62,0.00,,---,0.00,VWS V14.01,2013-09-14 13:25:00,
2013-09-14 09:26:00,67.4,53.9,29.93,ENE,78,2.0,12.0,62,0.00,,---,0.00,VWS V14.01,2013-09-14 13:26:00,
2013-09-14 09:27:00,67.4,54.4,29.93,NNE,18,3.0,13.0,63,0.00,,---,0.00,VWS V14.01,2013-09-14 13:27:00,
2013-09-14 09:28:00,67.4,54.4,29.93,SSE,165,0.0,13.0,63,0.00,,---,0.00,VWS V14.01,2013-09-14 13:28:00,
2013-09-14 09:29:00,67.4,54.4,29.93,ENE,66,3.0,13.0,63,0.00,,---,0.00,VWS V14.01,2013-09-14 13:29:00,
2013-09-14 09:30:00,67.4,54.4,29.93,NE,56,1.0,13.0,63,0.00,,---,0.00,VWS V14.01,2013-09-14 13:30:00,
2013-09-14 09:31:00,67.6,54.6,29.93,NNE,16,2.0,11.0,63,0.00,,---,0.00,VWS V14.01,2013-09-14 13:31:00,
2013-09-14 09:32:00,67.6,54.6,29.93,NE,55,12.0,12.0,63,0.00,,---,0.00,VWS V14.01,2013-09-14 13:32:00,
2013-09-14 09:33:00,67.6,54.1,29.93,NE,34,3.0,12.0,62,0.00,,---,0.00,VWS V14.01,2013-09-14 13:33:00,
2013-09-14 09:34:00,67.6,54.1,29.93,NNE,18,1.0,12.0,62,0.00,,---,0.00,VWS V14.01,2013-09-14 13:34:00,
2013-09-14 09:35:00,67.6,53.7,29.93,ENE,64,3.0,12.0,61,0.00,,---,0.00,VWS V14.01,2013-09-14 13:35:00,
2013-09-14 09:36:00,67.6,54.6,29.93,ENE,68,7.0,12.0,63,0.00,,---,0.00,VWS V14.01,2013-09-14 13:36:00,
2013-09-14 09:37:00,67.6,54.6,29.93,North,0,2.0,12.0,63,0.00,,---,0.00,VWS V14.01,2013-09-14 13:37:00,
2013-09-14 09:38:00,67.8,54.3,29.93,East,88,4.0,12.0,62,0.00,,---,0.00,VWS V14.01,2013-09-14 13:38:00,
2013-09-14 09:39:00,67.8,54.3,29.93,North,0,3.0,12.0,62,0.00,,---,0.00,VWS V14.01,2013-09-14 13:39:00,
2013-09-14 09:40:00,67.8,54.3,29.93,ENE,68,5.0,12.0,62,0.00,,---,0.00,VWS V14.01,2013-09-14 13:40:00,
2013-09-14 09:41:00,67.8,54.3,29.93,ENE,62,6.0,11.0,62,0.00,,---,0.00,VWS V14.01,2013-09-14 13:41:00,
2013-09-14 09:42:00,67.9,54.4,29.93,NNE,32,8.0,11.0,62,0.00,,---,0.00,VWS V14.01,2013-09-14 13:42:00,
2013-09-14 09:43:00,67.9,54.0,29.93,North,0,7.0,11.0,61,0.00,,---,0.00,VWS V14.01,2013-09-14 13:43:00,
2013-09-14 09:44:00,67.9,54.0,29.93,NNE,18,5.0,11.0,61,0.00,,---,0.00,VWS V14.01,2013-09-14 13:44:00,
2013-09-14 09:45:00,67.9,54.0,29.94,NNE,18,3.0,11.0,61,0.00,,---,0.00,VWS V14.01,2013-09-14 13:45:00,
2013-09-14 09:46:00,67.9,54.4,29.94,NE,35,5.0,11.0,62,0.00,,---,0.00,VWS V14.01,2013-09-14 13:46:00,
2013-09-14 09:47:00,68.1,54.6,29.94,NNE,16,7.0,11.0,62,0.00,,---,0.00,VWS V14.01,2013-09-14 13:47:00,
2013-09-14 09:48:00,68.1,54.6,29.94,NE,42,4.0,11.0,62,0.00,,---,0.00,VWS V14.01,2013-09-14 13:48:00,
2013-09-14 09:49:00,68.1,54.6,29.94,NE,45,4.0,11.0,62,0.00,,---,0.00,VWS V14.01,2013-09-14 13:49:00,
2013-09-14 09:50:00,68.3,54.8,29.94,NE,52,2.0,11.0,62,0.00,,---,0.00,VWS V14.01,2013-09-14 13:50:00,
2013-09-14 09:51:00,68.3,55.2,29.94,North,11,2.0,6.0,63,0.00,,---,0.00,VWS V14.01,2013-09-14 13:51:00,
2013-09-14 09:52:00,68.3,55.2,29.94,ENE,61,6.0,6.0,63,0.00,,---,0.00,VWS V14.01,2013-09-14 13:52:00,
2013-09-14 09:53:00,68.4,55.3,29.94,NNE,25,1.0,6.0,63,0.00,,---,0.00,VWS V14.01,2013-09-14 13:53:00,
2013-09-14 09:54:00,68.4,55.3,29.94,East,79,5.0,6.0,63,0.00,,---,0.00,VWS V14.01,2013-09-14 13:54:00,
2013-09-14 09:55:00,68.4,55.3,29.94,NNE,31,0.0,7.0,63,0.00,,---,0.00,VWS V14.01,2013-09-14 13:55:00,
2013-09-14 09:56:00,68.6,55.5,29.94,NE,55,1.0,7.0,63,0.00,,---,0.00,VWS V14.01,2013-09-14 13:56:00,
2013-09-14 09:57:00,68.8,55.7,29.94,NNE,30,6.0,7.0,63,0.00,,---,0.00,VWS V14.01,2013-09-14 13:57:00,
2013-09-14 09:58:00,68.8,55.7,29.94,East,99,4.0,13.0,63,0.00,,---,0.00,VWS V14.01,2013-09-14 13:58:00,
2013-09-14 09:59:00,68.9,55.4,29.94,North,350,7.0,13.0,62,0.00,,---,0.00,VWS V14.01,2013-09-14 13:59:00,
2013-09-14 10:00:00,68.9,54.9,29.94,NNE,31,5.0,13.0,61,0.00,,---,0.00,VWS V14.01,2013-09-14 14:00:00,
2013-09-14 10:01:00,69.1,54.7,29.94,NNE,17,5.0,10.0,60,0.00,,---,0.00,VWS V14.01,2013-09-14 14:01:00,
2013-09-14 10:02:00,69.1,55.1,29.94,NE,55,6.0,10.0,61,0.00,,---,0.00,VWS V14.01,2013-09-14 14:02:00,
2013-09-14 10:03:00,69.3,55.7,29.94,North,359,4.0,10.0,62,0.00,,---,0.00,VWS V14.01,2013-09-14 14:03:00,
2013-09-14 10:04:00,69.3,55.7,29.94,NE,34,3.0,10.0,62,0.00,,---,0.00,VWS V14.01,2013-09-14 14:04:00,
2013-09-14 10:05:00,69.3,55.3,29.94,NNE,20,6.0,10.0,61,0.00,,---,0.00,VWS V14.01,2013-09-14 14:05:00,
2013-09-14 10:06:00,69.4,55.4,29.94,NNE,24,5.0,10.0,61,0.00,,---,0.00,VWS V14.01,2013-09-14 14:06:00,
2013-09-14 10:07:00,69.4,55.4,29.94,NNE,20,2.0,10.0,61,0.00,,---,0.00,VWS V14.01,2013-09-14 14:07:00,
2013-09-14 10:08:00,69.4,54.9,29.94,ENE,65,3.0,10.0,60,0.00,,---,0.00,VWS V14.01,2013-09-14 14:08:00,
2013-09-14 10:09:00,69.6,55.1,29.94,ENE,72,7.0,10.0,60,0.00,,---,0.00,VWS V14.01,2013-09-14 14:09:00,
2013-09-14 10:10:00,69.6,55.6,29.94,NNE,14,3.0,11.0,61,0.00,,---,0.00,VWS V14.01,2013-09-14 14:10:00,
2013-09-14 10:11:00,69.8,55.3,29.94,North,0,5.0,8.0,60,0.00,,---,0.00,VWS V14.01,2013-09-14 14:11:00,
2013-09-14 10:12:00,69.8,54.8,29.94,NE,37,10.0,10.0,59,0.00,,---,0.00,VWS V14.01,2013-09-14 14:12:00,
2013-09-14 10:13:00,69.9,54.9,29.94,NNE,25,6.0,10.0,59,0.00,,---,0.00,VWS V14.01,2013-09-14 14:13:00,
2013-09-14 10:14:00,69.9,55.8,29.94,NNE,30,2.0,10.0,61,0.00,,---,0.00,VWS V14.01,2013-09-14 14:14:00,
2013-09-14 10:15:00,69.9,55.8,29.94,NE,38,7.0,10.0,61,0.00,,---,0.00,VWS V14.01,2013-09-14 14:15:00,
2013-09-14 10:16:00,70.1,55.6,29.94,North,6,2.0,10.0,60,0.00,,---,0.00,VWS V14.01,2013-09-14 14:16:00,
2013-09-14 10:17:00,70.1,55.6,29.94,NNE,21,4.0,10.0,60,0.00,,---,0.00,VWS V14.01,2013-09-14 14:17:00,
2013-09-14 10:18:00,70.1,55.1,29.94,NE,41,7.0,11.0,59,0.00,,---,0.00,VWS V14.01,2013-09-14 14:18:00,
2013-09-14 10:19:00,70.3,55.3,29.94,ENE,62,0.0,13.0,59,0.00,,---,0.00,VWS V14.01,2013-09-14 14:19:00,
2013-09-14 10:20:00,70.3,55.3,29.94,NE,42,4.0,13.0,59,0.00,,---,0.00,VWS V14.01,2013-09-14 14:20:00,
2013-09-14 10:21:00,70.4,55.9,29.94,NE,35,6.0,6.0,60,0.00,,---,0.00,VWS V14.01,2013-09-14 14:21:00,
2013-09-14 10:22:00,70.4,55.4,29.94,NNE,21,6.0,8.0,59,0.00,,---,0.00,VWS V14.01,2013-09-14 14:22:00,
2013-09-14 10:23:00,70.4,55.4,29.94,North,0,3.0,8.0,59,0.00,,---,0.00,VWS V14.01,2013-09-14 14:23:00,
2013-09-14 10:24:00,70.4,54.9,29.94,North,4,0.0,8.0,58,0.00,,---,0.00,VWS V14.01,2013-09-14 14:24:00,
2013-09-14 10:25:00,70.6,55.6,29.94,North,0,3.0,10.0,59,0.00,,---,0.00,VWS V14.01,2013-09-14 14:25:00,
2013-09-14 10:26:00,70.6,55.6,29.94,North,1,0.0,10.0,59,0.00,,---,0.00,VWS V14.01,2013-09-14 14:26:00,
2013-09-14 10:27:00,70.8,56.2,29.94,NE,52,2.0,10.0,60,0.00,,---,0.00,VWS V14.01,2013-09-14 14:27:00,
2013-09-14 10:28:00,70.8,56.2,29.94,North,359,4.0,10.0,60,0.00,,---,0.00,VWS V14.01,2013-09-14 14:28:00,
2013-09-14 10:29:00,70.8,56.2,29.94,ENE,66,14.0,14.0,60,0.00,,---,0.00,VWS V14.01,2013-09-14 14:29:00,
2013-09-14 10:30:00,70.9,56.3,29.95,North,0,6.0,14.0,60,0.00,,---,0.00,VWS V14.01,2013-09-14 14:30:00,
2013-09-14 10:31:00,70.9,55.9,29.95,NNE,32,3.0,7.0,59,0.00,,---,0.00,VWS V14.01,2013-09-14 14:31:00,
2013-09-14 10:32:00,70.9,55.9,29.95,NE,40,6.0,10.0,59,0.00,,---,0.00,VWS V14.01,2013-09-14 14:32:00,
2013-09-14 10:33:00,71.1,56.1,29.95,NE,40,6.0,11.0,59,0.00,,---,0.00,VWS V14.01,2013-09-14 14:33:00,
2013-09-14 10:34:00,71.1,55.6,29.95,NE,37,5.0,11.0,58,0.00,,---,0.00,VWS V14.01,2013-09-14 14:34:00,
2013-09-14 10:35:00,71.1,55.6,29.95,North,0,5.0,11.0,58,0.00,,---,0.00,VWS V14.01,2013-09-14 14:35:00,
2013-09-14 10:36:00,71.1,55.6,29.95,NE,51,0.0,11.0,58,0.00,,---,0.00,VWS V14.01,2013-09-14 14:36:00,
2013-09-14 10:37:00,71.3,56.2,29.95,NE,51,2.0,11.0,59,0.00,,---,0.00,VWS V14.01,2013-09-14 14:37:00,
2013-09-14 10:38:00,71.3,56.7,29.95,ENE,72,6.0,11.0,60,0.00,,---,0.00,VWS V14.01,2013-09-14 14:38:00,
2013-09-14 10:39:00,71.5,56.9,29.95,NE,42,3.0,11.0,60,0.00,,---,0.00,VWS V14.01,2013-09-14 14:39:00,
2013-09-14 10:40:00,71.5,56.9,29.95,ESE,112,0.0,11.0,60,0.00,,---,0.00,VWS V14.01,2013-09-14 14:40:00,
2013-09-14 10:41:00,71.5,56.9,29.95,North,359,0.0,2.0,60,0.00,,---,0.00,VWS V14.01,2013-09-14 14:41:00,
2013-09-14 10:42:00,71.6,57.0,29.95,North,3,4.0,5.0,60,0.00,,---,0.00,VWS V14.01,2013-09-14 14:42:00,
2013-09-14 10:43:00,71.6,57.0,29.95,NE,41,7.0,8.0,60,0.00,,---,0.00,VWS V14.01,2013-09-14 14:43:00,
2013-09-14 10:44:00,71.6,57.0,29.95,NE,41,7.0,8.0,60,0.00,,---,0.00,VWS V14.01,2013-09-14 14:44:00,
2013-09-14 10:45:00,71.8,56.2,29.95,North,10,0.0,8.0,58,0.00,,---,0.00,VWS V14.01,2013-09-14 14:45:00,
2013-09-14 10:46:00,71.8,56.7,29.95,North,10,0.0,8.0,59,0.00,,---,0.00,VWS V14.01,2013-09-14 14:46:00,
2013-09-14 10:47:00,71.8,56.7,29.95,ENE,68,0.0,8.0,59,0.00,,---,0.00,VWS V14.01,2013-09-14 14:47:00,
2013-09-14 10:48:00,71.8,56.7,29.95,NE,56,0.0,8.0,59,0.00,,---,0.00,VWS V14.01,2013-09-14 14:48:00,
2013-09-14 10:49:00,72.0,56.9,29.95,NE,38,6.0,8.0,59,0.00,,---,0.00,VWS V14.01,2013-09-14 14:49:00,
2013-09-14 10:50:00,72.1,57.0,29.95,North,0,6.0,8.0,59,0.00,,---,0.00,VWS V14.01,2013-09-14 14:50:00,
2013-09-14 10:51:00,72.1,57.0,29.95,NNE,32,5.0,8.0,59,0.00,,---,0.00,VWS V14.01,2013-09-14 14:51:00,
2013-09-14 10:52:00,72.1,56.5,29.95,ENE,59,5.0,8.0,58,0.00,,---,0.00,VWS V14.01,2013-09-14 14:52:00,
2013-09-14 10:53:00,72.3,56.7,29.95,ENE,58,7.0,11.0,58,0.00,,---,0.00,VWS V14.01,2013-09-14 14:53:00,
2013-09-14 10:54:00,72.3,56.7,29.95,ESE,120,2.0,11.0,58,0.00,,---,0.00,VWS V14.01,2013-09-14 14:54:00,
2013-09-14 10:55:00,72.3,56.7,29.95,East,80,1.0,11.0,58,0.00,,---,0.00,VWS V14.01,2013-09-14 14:55:00,
2013-09-14 10:56:00,72.5,56.9,29.95,ENE,65,0.0,11.0,58,0.00,,---,0.00,VWS V14.01,2013-09-14 14:56:00,
2013-09-14 10:57:00,72.5,56.9,29.95,ENE,65,0.0,11.0,58,0.00,,---,0.00,VWS V14.01,2013-09-14 14:57:00,
2013-09-14 10:58:00,72.5,57.4,29.95,ENE,73,3.0,11.0,59,0.00,,---,0.00,VWS V14.01,2013-09-14 14:58:00,
2013-09-14 10:59:00,72.5,57.8,29.95,NE,51,0.0,11.0,60,0.00,,---,0.00,VWS V14.01,2013-09-14 14:59:00,
2013-09-14 11:00:00,72.7,57.6,29.95,NE,35,0.0,11.0,59,0.00,,---,0.00,VWS V14.01,2013-09-14 15:00:00,
2013-09-14 11:01:00,72.8,57.7,29.95,ENE,68,0.0,0.0,59,0.00,,---,0.00,VWS V14.01,2013-09-14 15:01:00,
2013-09-14 11:02:00,72.8,58.1,29.95,ENE,68,0.0,0.0,60,0.00,,---,0.00,VWS V14.01,2013-09-14 15:02:00,
2013-09-14 11:03:00,73.0,58.3,29.95,East,95,2.0,2.0,60,0.00,,---,0.00,VWS V14.01,2013-09-14 15:03:00,
2013-09-14 11:04:00,73.0,58.3,29.95,SE,127,0.0,3.0,60,0.00,,---,0.00,VWS V14.01,2013-09-14 15:04:00,
2013-09-14 11:05:00,73.2,58.5,29.95,East,90,0.0,3.0,60,0.00,,---,0.00,VWS V14.01,2013-09-14 15:05:00,
2013-09-14 11:06:00,73.2,58.5,29.95,ENE,66,3.0,5.0,60,0.00,,---,0.00,VWS V14.01,2013-09-14 15:06:00,
2013-09-14 11:07:00,73.3,58.6,29.95,ENE,66,0.0,5.0,60,0.00,,---,0.00,VWS V14.01,2013-09-14 15:07:00,
2013-09-14 11:08:00,73.3,58.6,29.95,ENE,65,6.0,6.0,60,0.00,,---,0.00,VWS V14.01,2013-09-14 15:08:00,
2013-09-14 11:09:00,73.3,58.6,29.95,NNE,27,3.0,6.0,60,0.00,,---,0.00,VWS V14.01,2013-09-14 15:09:00,
2013-09-14 11:10:00,73.5,58.8,29.95,NE,41,2.0,6.0,60,0.00,,---,0.00,VWS V14.01,2013-09-14 15:10:00,
2013-09-14 11:11:00,73.7,58.5,29.95,ESE,120,3.0,5.0,59,0.00,,---,0.00,VWS V14.01,2013-09-14 15:11:00,
2013-09-14 11:12:00,73.7,58.5,29.95,ENE,65,0.0,5.0,59,0.00,,---,0.00,VWS V14.01,2013-09-14 15:12:00,
2013-09-14 11:13:00,73.7,57.5,29.95,East,85,0.0,11.0,57,0.00,,---,0.00,VWS V14.01,2013-09-14 15:13:00,
2013-09-14 11:14:00,73.9,56.7,29.95,ENE,61,3.0,11.0,55,0.00,,---,0.00,VWS V14.01,2013-09-14 15:14:00,
2013-09-14 11:15:00,73.9,57.2,29.95,North,356,1.0,11.0,56,0.00,,---,0.00,VWS V14.01,2013-09-14 15:15:00,
2013-09-14 11:16:00,74.0,57.3,29.95,North,10,7.0,11.0,56,0.00,,---,0.00,VWS V14.01,2013-09-14 15:16:00,
2013-09-14 11:17:00,74.0,57.3,29.95,North,350,5.0,11.0,56,0.00,,---,0.00,VWS V14.01,2013-09-14 15:17:00,
2013-09-14 11:18:00,74.0,57.3,29.95,NE,56,0.0,11.0,56,0.00,,---,0.00,VWS V14.01,2013-09-14 15:18:00,
2013-09-14 11:19:00,74.2,57.5,29.95,NNE,16,5.0,11.0,56,0.00,,---,0.00,VWS V14.01,2013-09-14 15:19:00,
2013-09-14 11:20:00,74.2,57.0,29.95,NE,41,0.0,11.0,55,0.00,,---,0.00,VWS V14.01,2013-09-14 15:20:00,
2013-09-14 11:21:00,74.2,57.5,29.95,NNE,14,1.0,5.0,56,0.00,,---,0.00,VWS V14.01,2013-09-14 15:21:00,
2013-09-14 11:22:00,74.2,58.5,29.95,North,356,0.0,6.0,58,0.00,,---,0.00,VWS V14.01,2013-09-14 15:22:00,
2013-09-14 11:23:00,74.4,58.7,29.95,North,359,0.0,6.0,58,0.00,,---,0.00,VWS V14.01,2013-09-14 15:23:00,
2013-09-14 11:24:00,74.4,58.7,29.95,NE,38,1.0,6.0,58,0.00,,---,0.00,VWS V14.01,2013-09-14 15:24:00,
2013-09-14 11:25:00,74.4,57.2,29.95,North,11,1.0,6.0,55,0.00,,---,0.00,VWS V14.01,2013-09-14 15:25:00,
2013-09-14 11:26:00,74.4,58.2,29.95,NE,41,0.0,6.0,57,0.00,,---,0.00,VWS V14.01,2013-09-14 15:26:00,
2013-09-14 11:27:00,74.6,58.4,29.95,NNE,31,6.0,8.0,57,0.00,,---,0.00,VWS V14.01,2013-09-14 15:27:00,
2013-09-14 11:28:00,74.6,57.9,29.95,ENE,59,2.0,9.0,56,0.00,,---,0.00,VWS V14.01,2013-09-14 15:28:00,
2013-09-14 11:29:00,74.6,57.4,29.95,North,8,0.0,9.0,55,0.00,,---,0.00,VWS V14.01,2013-09-14 15:29:00,
2013-09-14 11:30:00,74.6,57.4,29.95,North,11,0.0,9.0,55,0.00,,---,0.00,VWS V14.01,2013-09-14 15:30:00,
2013-09-14 11:31:00,74.6,57.9,29.95,ENE,75,8.0,13.0,56,0.00,,---,0.00,VWS V14.01,2013-09-14 15:31:00,
2013-09-14 11:32:00,74.7,58.0,29.95,NE,49,3.0,13.0,56,0.00,,---,0.00,VWS V14.01,2013-09-14 15:32:00,
2013-09-14 11:33:00,74.7,58.5,29.95,SE,131,0.0,13.0,57,0.00,,---,0.00,VWS V14.01,2013-09-14 15:33:00,
2013-09-14 11:34:00,74.7,58.0,29.95,NNE,31,2.0,13.0,56,0.00,,---,0.00,VWS V14.01,2013-09-14 15:34:00,
2013-09-14 11:35:00,74.9,57.7,29.95,North,11,5.0,13.0,55,0.00,,---,0.00,VWS V14.01,2013-09-14 15:35:00,
2013-09-14 11:36:00,74.9,57.7,29.95,NE,55,0.0,13.0,55,0.00,,---,0.00,VWS V14.01,2013-09-14 15:36:00,
2013-09-14 11:37:00,74.9,58.2,29.95,NNE,28,0.0,13.0,56,0.00,,---,0.00,VWS V14.01,2013-09-14 15:37:00,
2013-09-14 11:38:00,75.1,58.3,29.95,ENE,61,6.0,13.0,56,0.00,,---,0.00,VWS V14.01,2013-09-14 15:38:00,
2013-09-14 11:39:00,75.1,57.8,29.95,NE,55,7.0,13.0,55,0.00,,---,0.00,VWS V14.01,2013-09-14 15:39:00,
2013-09-14 11:40:00,75.1,57.8,29.95,ESE,113,3.0,13.0,55,0.00,,---,0.00,VWS V14.01,2013-09-14 15:40:00,
2013-09-14 11:41:00,75.3,58.0,29.95,North,0,1.0,5.0,55,0.00,,---,0.00,VWS V14.01,2013-09-14 15:41:00,
2013-09-14 11:42:00,75.3,58.5,29.95,SSE,151,0.0,5.0,56,0.00,,---,0.00,VWS V14.01,2013-09-14 15:42:00,
2013-09-14 11:43:00,75.3,58.5,29.95,SE,130,0.0,5.0,56,0.00,,---,0.00,VWS V14.01,2013-09-14 15:43:00,
2013-09-14 11:44:00,75.4,58.6,29.95,NE,37,0.0,5.0,56,0.00,,---,0.00,VWS V14.01,2013-09-14 15:44:00,
2013-09-14 11:45:00,75.4,59.1,29.95,NE,37,0.0,5.0,57,0.00,,---,0.00,VWS V14.01,2013-09-14 15:45:00,
2013-09-14 11:46:00,75.4,58.6,29.95,NE,51,2.0,5.0,56,0.00,,---,0.00,VWS V14.01,2013-09-14 15:46:00,
2013-09-14 11:47:00,75.4,59.1,29.95,NE,40,2.0,5.0,57,0.00,,---,0.00,VWS V14.01,2013-09-14 15:47:00,
2013-09-14 11:48:00,75.6,59.3,29.95,NNE,18,3.0,6.0,57,0.00,,---,0.00,VWS V14.01,2013-09-14 15:48:00,
2013-09-14 11:49:00,75.6,58.3,29.95,North,11,5.0,8.0,55,0.00,,---,0.00,VWS V14.01,2013-09-14 15:49:00,
2013-09-14 11:50:00,75.6,58.3,29.95,NNE,30,7.0,8.0,55,0.00,,---,0.00,VWS V14.01,2013-09-14 15:50:00,
2013-09-14 11:51:00,75.8,57.5,29.95,NE,45,1.0,8.0,53,0.00,,---,0.00,VWS V14.01,2013-09-14 15:51:00,
2013-09-14 11:52:00,75.8,58.0,29.95,ENE,68,7.0,8.0,54,0.00,,---,0.00,VWS V14.01,2013-09-14 15:52:00,
2013-09-14 11:53:00,75.8,58.0,29.95,NE,51,2.0,8.0,54,0.00,,---,0.00,VWS V14.01,2013-09-14 15:53:00,
2013-09-14 11:54:00,76.0,58.2,29.95,ENE,59,2.0,8.0,54,0.00,,---,0.00,VWS V14.01,2013-09-14 15:54:00,
2013-09-14 11:55:00,76.0,58.7,29.95,ENE,76,2.0,8.0,55,0.00,,---,0.00,VWS V14.01,2013-09-14 15:55:00,
2013-09-14 11:56:00,76.0,58.7,29.95,ENE,59,0.0,8.0,55,0.00,,---,0.00,VWS V14.01,2013-09-14 15:56:00,
2013-09-14 11:57:00,76.1,58.3,29.95,NNE,25,3.0,8.0,54,0.00,,---,0.00,VWS V14.01,2013-09-14 15:57:00,
2013-09-14 11:58:00,76.1,58.8,29.95,ENE,69,5.0,8.0,55,0.00,,---,0.00,VWS V14.01,2013-09-14 15:58:00,
2013-09-14 11:59:00,76.3,59.0,29.95,North,0,1.0,8.0,55,0.00,,---,0.00,VWS V14.01,2013-09-14 15:59:00,
2013-09-14 12:00:00,76.3,58.5,29.95,North,8,1.0,8.0,54,0.00,,---,0.00,VWS V14.01,2013-09-14 16:00:00,
2013-09-14 12:01:00,76.3,57.9,29.95,NE,37,2.0,8.0,53,0.00,,---,0.00,VWS V14.01,2013-09-14 16:01:00,
2013-09-14 12:02:00,76.5,58.1,29.95,North,4,0.0,8.0,53,0.00,,---,0.00,VWS V14.01,2013-09-14 16:02:00,
2013-09-14 12:03:00,76.5,58.1,29.95,NE,52,1.0,8.0,53,0.00,,---,0.00,VWS V14.01,2013-09-14 16:03:00,
2013-09-14 12:04:00,76.5,59.2,29.95,NE,48,6.0,8.0,55,0.00,,---,0.00,VWS V14.01,2013-09-14 16:04:00,
2013-09-14 12:05:00,76.5,58.6,29.95,NNE,20,3.0,8.0,54,0.00,,---,0.00,VWS V14.01,2013-09-14 16:05:00,
2013-09-14 12:06:00,76.5,58.1,29.95,NE,35,5.0,8.0,53,0.00,,---,0.00,VWS V14.01,2013-09-14 16:06:00,
2013-09-14 12:07:00,76.5,58.1,29.95,East,100,3.0,8.0,53,0.00,,---,0.00,VWS V14.01,2013-09-14 16:07:00,
2013-09-14 12:08:00,76.5,58.1,29.95,NE,54,11.0,11.0,53,0.00,,---,0.00,VWS V14.01,2013-09-14 16:08:00,
2013-09-14 12:09:00,76.5,58.1,29.95,ENE,73,6.0,11.0,53,0.00,,---,0.00,VWS V14.01,2013-09-14 16:09:00,
2013-09-14 12:10:00,76.7,58.3,29.95,NE,54,2.0,11.0,53,0.00,,---,0.00,VWS V14.01,2013-09-14 16:10:00,
2013-09-14 12:11:00,76.7,58.3,29.95,NNE,20,0.0,2.0,53,0.00,,---,0.00,VWS V14.01,2013-09-14 16:11:00,
2013-09-14 12:12:00,76.7,59.3,29.95,East,88,0.0,2.0,55,0.00,,---,0.00,VWS V14.01,2013-09-14 16:12:00,
2013-09-14 12:13:00,76.7,58.8,29.95,NNE,30,6.0,6.0,54,0.00,,---,0.00,VWS V14.01,2013-09-14 16:13:00,
2013-09-14 12:14:00,76.7,57.8,29.95,NNE,20,0.0,6.0,52,0.00,,---,0.00,VWS V14.01,2013-09-14 16:14:00,
2013-09-14 12:15:00,76.8,58.4,29.95,NE,51,6.0,6.0,53,0.00,,---,0.00,VWS V14.01,2013-09-14 16:15:00,
2013-09-14 12:16:00,76.8,57.3,29.95,NE,40,3.0,6.0,51,0.00,,---,0.00,VWS V14.01,2013-09-14 16:16:00,
2013-09-14 12:17:00,76.8,57.3,29.95,NNE,18,4.0,6.0,51,0.00,,---,0.00,VWS V14.01,2013-09-14 16:17:00,
2013-09-14 12:18:00,76.8,57.9,29.95,North,11,5.0,9.0,52,0.00,,---,0.00,VWS V14.01,2013-09-14 16:18:00,
2013-09-14 12:19:00,77.0,57.5,29.95,North,0,2.0,9.0,51,0.00,,---,0.00,VWS V14.01,2013-09-14 16:19:00,
2013-09-14 12:20:00,77.0,58.0,29.95,NNE,27,1.0,9.0,52,0.00,,---,0.00,VWS V14.01,2013-09-14 16:20:00,
2013-09-14 12:21:00,77.0,58.0,29.95,NNE,27,0.0,1.0,52,0.00,,---,0.00,VWS V14.01,2013-09-14 16:21:00,
2013-09-14 12:22:00,77.2,58.8,29.95,East,100,3.0,3.0,53,0.00,,---,0.00,VWS V14.01,2013-09-14 16:22:00,
2013-09-14 12:23:00,77.2,58.8,29.95,NE,48,1.0,7.0,53,0.00,,---,0.00,VWS V14.01,2013-09-14 16:23:00,
2013-09-14 12:24:00,77.2,58.8,29.95,North,10,0.0,7.0,53,0.00,,---,0.00,VWS V14.01,2013-09-14 16:24:00,
2013-09-14 12:25:00,77.2,57.7,29.95,NNE,23,4.0,7.0,51,0.00,,---,0.00,VWS V14.01,2013-09-14 16:25:00,
2013-09-14 12:26:00,77.2,57.7,29.95,NNE,32,7.0,7.0,51,0.00,,---,0.00,VWS V14.01,2013-09-14 16:26:00,
2013-09-14 12:27:00,77.4,59.0,29.95,NNE,18,3.0,12.0,53,0.00,,---,0.00,VWS V14.01,2013-09-14 16:27:00,
2013-09-14 12:28:00,77.4,57.9,29.95,ENE,62,0.0,12.0,51,0.00,,---,0.00,VWS V14.01,2013-09-14 16:28:00,
2013-09-14 12:29:00,77.4,57.9,29.95,East,93,0.0,12.0,51,0.00,,---,0.00,VWS V14.01,2013-09-14 16:29:00,
2013-09-14 12:30:00,77.4,57.9,29.95,NNE,31,0.0,12.0,51,0.00,,---,0.00,VWS V14.01,2013-09-14 16:30:00,
2013-09-14 12:31:00,77.6,57.5,29.95,NE,49,3.0,7.0,50,0.00,,---,0.00,VWS V14.01,2013-09-14 16:31:00,
2013-09-14 12:32:00,77.6,57.5,29.95,ENE,73,1.0,7.0,50,0.00,,---,0.00,VWS V14.01,2013-09-14 16:32:00,
2013-09-14 12:33:00,77.6,57.5,29.95,NE,49,4.0,12.0,50,0.00,,---,0.00,VWS V14.01,2013-09-14 16:33:00,
2013-09-14 12:34:00,77.7,58.2,29.95,ENE,64,6.0,12.0,51,0.00,,---,0.00,VWS V14.01,2013-09-14 16:34:00,
2013-09-14 12:35:00,77.7,58.2,29.95,NNE,21,5.0,12.0,51,0.00,,---,0.00,VWS V14.01,2013-09-14 16:35:00,
2013-09-14 12:36:00,77.7,58.2,29.95,East,79,2.0,12.0,51,0.00,,---,0.00,VWS V14.01,2013-09-14 16:36:00,
2013-09-14 12:37:00,77.7,58.2,29.95,ENE,65,5.0,12.0,51,0.00,,---,0.00,VWS V14.01,2013-09-14 16:37:00,
2013-09-14 12:38:00,77.9,58.3,29.95,East,96,5.0,12.0,51,0.00,,---,0.00,VWS V14.01,2013-09-14 16:38:00,
2013-09-14 12:39:00,77.9,57.8,29.95,NNE,30,2.0,12.0,50,0.00,,---,0.00,VWS V14.01,2013-09-14 16:39:00,
2013-09-14 12:40:00,78.1,58.0,29.95,ESE,104,5.0,12.0,50,0.00,,---,0.00,VWS V14.01,2013-09-14 16:40:00,
2013-09-14 12:41:00,78.1,58.5,29.95,SSE,164,2.0,6.0,51,0.00,,---,0.00,VWS V14.01,2013-09-14 16:41:00,
2013-09-14 12:42:00,78.1,58.5,29.95,ENE,64,2.0,7.0,51,0.00,,---,0.00,VWS V14.01,2013-09-14 16:42:00,
2013-09-14 12:43:00,78.1,58.5,29.95,ESE,116,1.0,7.0,51,0.00,,---,0.00,VWS V14.01,2013-09-14 16:43:00,
2013-09-14 12:44:00,78.3,59.8,29.95,East,100,4.0,7.0,53,0.00,,---,0.00,VWS V14.01,2013-09-14 16:44:00,
2013-09-14 12:45:00,78.3,59.2,29.95,NE,54,7.0,8.0,52,0.00,,---,0.00,VWS V14.01,2013-09-14 16:45:00,
2013-09-14 12:46:00,78.3,57.6,29.95,NNE,27,4.0,8.0,49,0.00,,---,0.00,VWS V14.01,2013-09-14 16:46:00,
2013-09-14 12:47:00,78.3,57.0,29.95,East,82,3.0,8.0,48,0.00,,---,0.00,VWS V14.01,2013-09-14 16:47:00,
2013-09-14 12:48:00,78.3,58.2,29.95,NNE,16,3.0,8.0,50,0.00,,---,0.00,VWS V14.01,2013-09-14 16:48:00,
2013-09-14 12:49:00,78.3,58.2,29.95,NNE,16,0.0,8.0,50,0.00,,---,0.00,VWS V14.01,2013-09-14 16:49:00,
2013-09-14 12:50:00,78.3,58.7,29.95,North,10,0.0,8.0,51,0.00,,---,0.00,VWS V14.01,2013-09-14 16:50:00,
2013-09-14 12:51:00,78.3,59.2,29.95,North,7,1.0,1.0,52,0.00,,---,0.00,VWS V14.01,2013-09-14 16:51:00,
2013-09-14 12:52:00,78.5,58.9,29.95,NNE,23,1.0,4.0,51,0.00,,---,0.00,VWS V14.01,2013-09-14 16:52:00,
2013-09-14 12:53:00,78.5,58.9,29.95,NNE,17,1.0,4.0,51,0.00,,---,0.00,VWS V14.01,2013-09-14 16:53:00,
2013-09-14 12:54:00,78.5,58.9,29.95,East,92,0.0,5.0,51,0.00,,---,0.00,VWS V14.01,2013-09-14 16:54:00,
2013-09-14 12:55:00,78.5,58.9,29.95,East,97,7.0,8.0,51,0.00,,---,0.00,VWS V14.01,2013-09-14 16:55:00,
2013-09-14 12:56:00,78.5,58.9,29.95,North,359,0.0,8.0,51,0.00,,---,0.00,VWS V14.01,2013-09-14 16:56:00,
2013-09-14 12:57:00,78.6,59.0,29.95,North,359,0.0,8.0,51,0.00,,---,0.00,VWS V14.01,2013-09-14 16:57:00,
2013-09-14 12:58:00,78.6,59.5,29.95,North,359,0.0,8.0,52,0.00,,---,0.00,VWS V14.01,2013-09-14 16:58:00,
2013-09-14 12:59:00,78.6,59.0,29.95,NNE,17,0.0,8.0,51,0.00,,---,0.00,VWS V14.01,2013-09-14 16:59:00,
2013-09-14 13:00:00,78.5,60.0,29.95,North,0,2.0,8.0,53,0.00,,---,0.00,VWS V14.01,2013-09-14 17:00:00,
2013-09-14 13:01:00,78.5,59.4,29.95,NW,320,5.0,6.0,52,0.00,,---,0.00,VWS V14.01,2013-09-14 17:01:00,
2013-09-14 13:02:00,78.5,59.4,29.95,North,354,3.0,6.0,52,0.00,,---,0.00,VWS V14.01,2013-09-14 17:02:00,
2013-09-14 13:03:00,78.3,59.2,29.95,NE,35,5.0,6.0,52,0.00,,---,0.00,VWS V14.01,2013-09-14 17:03:00,
2013-09-14 13:04:00,78.3,58.7,29.95,NE,48,5.0,11.0,51,0.00,,---,0.00,VWS V14.01,2013-09-14 17:04:00,
2013-09-14 13:05:00,78.1,58.5,29.95,ENE,66,7.0,11.0,51,0.00,,---,0.00,VWS V14.01,2013-09-14 17:05:00,
2013-09-14 13:06:00,78.1,59.1,29.95,NNE,23,5.0,11.0,52,0.00,,---,0.00,VWS V14.01,2013-09-14 17:06:00,
2013-09-14 13:07:00,78.1,59.1,29.95,ENE,75,3.0,11.0,52,0.00,,---,0.00,VWS V14.01,2013-09-14 17:07:00,
2013-09-14 13:08:00,78.3,58.7,29.95,ESE,104,0.0,11.0,51,0.00,,---,0.00,VWS V14.01,2013-09-14 17:08:00,
2013-09-14 13:09:00,78.3,59.2,29.95,ESE,104,0.0,11.0,52,0.00,,---,0.00,VWS V14.01,2013-09-14 17:09:00,
2013-09-14 13:10:00,78.3,59.2,29.95,ENE,62,2.0,11.0,52,0.00,,---,0.00,VWS V14.01,2013-09-14 17:10:00,
2013-09-14 13:11:00,78.3,59.2,29.95,NE,54,11.0,11.0,52,0.00,,---,0.00,VWS V14.01,2013-09-14 17:11:00,
2013-09-14 13:12:00,78.5,59.4,29.95,NE,49,6.0,11.0,52,0.00,,---,0.00,VWS V14.01,2013-09-14 17:12:00,
2013-09-14 13:13:00,78.5,58.9,29.95,ENE,68,10.0,11.0,51,0.00,,---,0.00,VWS V14.01,2013-09-14 17:13:00,
2013-09-14 13:14:00,78.6,59.0,29.95,NE,44,0.0,11.0,51,0.00,,---,0.00,VWS V14.01,2013-09-14 17:14:00,
2013-09-14 13:15:00,78.6,58.4,29.96,ENE,75,5.0,11.0,50,0.00,,---,0.00,VWS V14.01,2013-09-14 17:15:00,
2013-09-14 13:16:00,78.8,58.6,29.96,North,349,3.0,11.0,50,0.00,,---,0.00,VWS V14.01,2013-09-14 17:16:00,
2013-09-14 13:17:00,78.8,58.0,29.96,NE,42,0.0,11.0,49,0.00,,---,0.00,VWS V14.01,2013-09-14 17:17:00,
2013-09-14 13:18:00,79.0,58.2,29.96,ENE,73,3.0,11.0,49,0.00,,---,0.00,VWS V14.01,2013-09-14 17:18:00,
2013-09-14 13:19:00,79.0,58.8,29.96,ENE,66,8.0,11.0,50,0.00,,---,0.00,VWS V14.01,2013-09-14 17:19:00,
2013-09-14 13:20:00,79.2,59.0,29.96,ENE,76,8.0,14.0,50,0.00,,---,0.00,VWS V14.01,2013-09-14 17:20:00,
2013-09-14 13:21:00,79.2,59.0,29.96,ENE,66,0.0,8.0,50,0.00,,---,0.00,VWS V14.01,2013-09-14 17:21:00,
2013-09-14 13:22:00,79.2,59.0,29.96,ESE,110,0.0,8.0,50,0.00,,---,0.00,VWS V14.01,2013-09-14 17:22:00,
2013-09-14 13:23:00,79.2,59.0,29.96,North,10,0.0,8.0,50,0.00,,---,0.00,VWS V14.01,2013-09-14 17:23:00,
2013-09-14 13:24:00,79.4,59.2,29.96,NNE,16,1.0,8.0,50,0.00,,---,0.00,VWS V14.01,2013-09-14 17:24:00,
2013-09-14 13:25:00,79.4,58.0,29.96,SSE,152,2.0,8.0,48,0.00,,---,0.00,VWS V14.01,2013-09-14 17:25:00,
2013-09-14 13:26:00,79.4,58.6,29.96,SE,131,5.0,8.0,49,0.00,,---,0.00,VWS V14.01,2013-09-14 17:26:00,
2013-09-14 13:27:00,79.4,59.7,29.96,ESE,104,2.0,8.0,51,0.00,,---,0.00,VWS V14.01,2013-09-14 17:27:00,
2013-09-14 13:28:00,79.4,60.8,29.96,East,95,0.0,8.0,53,0.00,,---,0.00,VWS V14.01,2013-09-14 17:28:00,
2013-09-14 13:29:00,79.6,59.9,29.96,ENE,71,4.0,8.0,51,0.00,,---,0.00,VWS V14.01,2013-09-14 17:29:00,
2013-09-14 13:30:00,79.6,59.3,29.95,East,93,4.0,8.0,50,0.00,,---,0.00,VWS V14.01,2013-09-14 17:30:00,
2013-09-14 13:31:00,79.6,59.3,29.95,NE,35,3.0,7.0,50,0.00,,---,0.00,VWS V14.01,2013-09-14 17:31:00,
2013-09-14 13:32:00,79.6,58.2,29.95,East,82,4.0,7.0,48,0.00,,---,0.00,VWS V14.01,2013-09-14 17:32:00,
2013-09-14 13:33:00,79.6,58.2,29.95,ESE,110,0.0,7.0,48,0.00,,---,0.00,VWS V14.01,2013-09-14 17:33:00,
2013-09-14 13:34:00,79.6,58.2,29.95,NNE,27,5.0,7.0,48,0.00,,---,0.00,VWS V14.01,2013-09-14 17:34:00,
2013-09-14 13:35:00,79.6,59.9,29.95,NNE,32,0.0,7.0,51,0.00,,---,0.00,VWS V14.01,2013-09-14 17:35:00,
2013-09-14 13:36:00,79.6,58.8,29.95,North,0,0.0,7.0,49,0.00,,---,0.00,VWS V14.01,2013-09-14 17:36:00,
2013-09-14 13:37:00,79.6,58.8,29.95,NE,48,0.0,7.0,49,0.00,,---,0.00,VWS V14.01,2013-09-14 17:37:00,
2013-09-14 13:38:00,79.6,59.9,29.95,East,80,5.0,7.0,51,0.00,,---,0.00,VWS V14.01,2013-09-14 17:38:00,
2013-09-14 13:39:00,79.6,59.9,29.95,NNE,32,0.0,8.0,51,0.00,,---,0.00,VWS V14.01,2013-09-14 17:39:00,
2013-09-14 13:40:00,79.4,59.2,29.95,SSW,212,0.0,8.0,50,0.00,,---,0.00,VWS V14.01,2013-09-14 17:40:00,
2013-09-14 13:41:00,79.4,60.3,29.95,NE,51,5.0,5.0,52,0.00,,---,0.00,VWS V14.01,2013-09-14 17:41:00,
2013-09-14 13:42:00,79.4,60.3,29.95,NE,51,0.0,5.0,52,0.00,,---,0.00,VWS V14.01,2013-09-14 17:42:00,
2013-09-14 13:43:00,79.4,60.3,29.95,NE,51,0.0,5.0,52,0.00,,---,0.00,VWS V14.01,2013-09-14 17:43:00,
2013-09-14 13:44:00,79.4,60.3,29.95,NE,54,0.0,5.0,52,0.00,,---,0.00,VWS V14.01,2013-09-14 17:44:00,
2013-09-14 13:45:00,79.2,60.1,29.94,East,79,1.0,5.0,52,0.00,,---,0.00,VWS V14.01,2013-09-14 17:45:00,
2013-09-14 13:46:00,79.2,60.1,29.94,NNE,28,6.0,6.0,52,0.00,,---,0.00,VWS V14.01,2013-09-14 17:46:00,
2013-09-14 13:47:00,79.2,59.5,29.94,NE,44,0.0,8.0,51,0.00,,---,0.00,VWS V14.01,2013-09-14 17:47:00,
2013-09-14 13:48:00,79.2,59.0,29.94,North,0,1.0,8.0,50,0.00,,---,0.00,VWS V14.01,2013-09-14 17:48:00,
2013-09-14 13:49:00,79.2,59.0,29.94,NE,38,1.0,8.0,50,0.00,,---,0.00,VWS V14.01,2013-09-14 17:49:00,
2013-09-14 13:50:00,79.2,59.5,29.94,NE,55,0.0,8.0,51,0.00,,---,0.00,VWS V14.01,2013-09-14 17:50:00,
2013-09-14 13:51:00,79.2,60.6,29.94,NE,41,4.0,4.0,53,0.00,,---,0.00,VWS V14.01,2013-09-14 17:51:00,
2013-09-14 13:52:00,79.2,60.6,29.94,SSW,200,0.0,4.0,53,0.00,,---,0.00,VWS V14.01,2013-09-14 17:52:00,
2013-09-14 13:53:00,79.2,60.1,29.94,North,10,4.0,6.0,52,0.00,,---,0.00,VWS V14.01,2013-09-14 17:53:00,
2013-09-14 13:54:00,79.2,60.1,29.94,NE,44,0.0,6.0,52,0.00,,---,0.00,VWS V14.01,2013-09-14 17:54:00,
2013-09-14 13:55:00,79.2,60.1,29.94,NE,51,1.0,6.0,52,0.00,,---,0.00,VWS V14.01,2013-09-14 17:55:00,
2013-09-14 13:56:00,79.4,60.3,29.94,ENE,59,3.0,6.0,52,0.00,,---,0.00,VWS V14.01,2013-09-14 17:56:00,
2013-09-14 13:57:00,79.4,60.3,29.94,NNE,16,0.0,6.0,52,0.00,,---,0.00,VWS V14.01,2013-09-14 17:57:00,
2013-09-14 13:58:00,79.4,60.3,29.94,ENE,59,4.0,6.0,52,0.00,,---,0.00,VWS V14.01,2013-09-14 17:58:00,
2013-09-14 13:59:00,79.4,60.3,29.94,North,0,5.0,7.0,52,0.00,,---,0.00,VWS V14.01,2013-09-14 17:59:00,
2013-09-14 14:00:00,79.4,59.2,29.94,ENE,58,2.0,7.0,50,0.00,,---,0.00,VWS V14.01,2013-09-14 18:00:00,
2013-09-14 14:01:00,79.4,60.3,29.94,ESE,106,1.0,3.0,52,0.00,,---,0.00,VWS V14.01,2013-09-14 18:01:00,
2013-09-14 14:02:00,79.4,60.3,29.94,ENE,72,4.0,8.0,52,0.00,,---,0.00,VWS V14.01,2013-09-14 18:02:00,
2013-09-14 14:03:00,79.4,61.3,29.94,SE,143,1.0,8.0,54,0.00,,---,0.00,VWS V14.01,2013-09-14 18:03:00,
2013-09-14 14:04:00,79.4,61.3,29.94,NE,52,0.0,8.0,54,0.00,,---,0.00,VWS V14.01,2013-09-14 18:04:00,
2013-09-14 14:05:00,79.2,60.1,29.94,NE,40,2.0,8.0,52,0.00,,---,0.00,VWS V14.01,2013-09-14 18:05:00,
2013-09-14 14:06:00,79.2,60.1,29.94,East,100,6.0,8.0,52,0.00,,---,0.00,VWS V14.01,2013-09-14 18:06:00,
2013-09-14 14:07:00,79.2,60.1,29.94,SE,138,2.0,8.0,52,0.00,,---,0.00,VWS V14.01,2013-09-14 18:07:00,
2013-09-14 14:08:00,79.2,60.1,29.94,ESE,113,1.0,8.0,52,0.00,,---,0.00,VWS V14.01,2013-09-14 18:08:00,
2013-09-14 14:09:00,79.2,60.1,29.94,East,99,3.0,8.0,52,0.00,,---,0.00,VWS V14.01,2013-09-14 18:09:00,
2013-09-14 14:10:00,79.2,60.6,29.94,SE,137,0.0,8.0,53,0.00,,---,0.00,VWS V14.01,2013-09-14 18:10:00,
2013-09-14 14:11:00,79.2,59.5,29.94,ESE,113,3.0,3.0,51,0.00,,---,0.00,VWS V14.01,2013-09-14 18:11:00,
2013-09-14 14:12:00,79.2,60.1,29.94,NNE,18,1.0,3.0,52,0.00,,---,0.00,VWS V14.01,2013-09-14 18:12:00,
2013-09-14 14:13:00,79.2,60.6,29.94,NNE,30,6.0,6.0,53,0.00,,---,0.00,VWS V14.01,2013-09-14 18:13:00,
2013-09-14 14:14:00,79.2,60.6,29.94,North,6,2.0,6.0,53,0.00,,---,0.00,VWS V14.01,2013-09-14 18:14:00,
2013-09-14 14:15:00,79.0,60.4,29.94,North,7,0.0,6.0,53,0.00,,---,0.00,VWS V14.01,2013-09-14 18:15:00,
2013-09-14 14:16:00,79.0,60.4,29.94,North,10,0.0,6.0,53,0.00,,---,0.00,VWS V14.01,2013-09-14 18:16:00,
2013-09-14 14:17:00,79.0,60.4,29.94,NE,35,1.0,6.0,53,0.00,,---,0.00,VWS V14.01,2013-09-14 18:17:00,
2013-09-14 14:18:00,79.0,61.0,29.94,ENE,71,7.0,11.0,54,0.00,,---,0.00,VWS V14.01,2013-09-14 18:18:00,
2013-09-14 14:19:00,79.0,59.9,29.94,North,8,5.0,11.0,52,0.00,,---,0.00,VWS V14.01,2013-09-14 18:19:00,
2013-09-14 14:20:00,79.0,59.9,29.94,East,83,0.0,11.0,52,0.00,,---,0.00,VWS V14.01,2013-09-14 18:20:00,
2013-09-14 14:21:00,79.0,60.4,29.94,East,99,2.0,2.0,53,0.00,,---,0.00,VWS V14.01,2013-09-14 18:21:00,
2013-09-14 14:22:00,79.0,60.4,29.94,South,182,0.0,5.0,53,0.00,,---,0.00,VWS V14.01,2013-09-14 18:22:00,
2013-09-14 14:23:00,79.0,60.4,29.94,NE,41,0.0,5.0,53,0.00,,---,0.00,VWS V14.01,2013-09-14 18:23:00,
2013-09-14 14:24:00,79.0,59.3,29.94,NE,37,2.0,5.0,51,0.00,,---,0.00,VWS V14.01,2013-09-14 18:24:00,
2013-09-14 14:25:00,79.0,59.3,29.94,North,11,0.0,5.0,51,0.00,,---,0.00,VWS V14.01,2013-09-14 18:25:00,
2013-09-14 14:26:00,79.0,59.3,29.94,North,11,0.0,5.0,51,0.00,,---,0.00,VWS V14.01,2013-09-14 18:26:00,
2013-09-14 14:27:00,79.0,59.3,29.94,NNE,32,0.0,5.0,51,0.00,,---,0.00,VWS V14.01,2013-09-14 18:27:00,
2013-09-14 14:28:00,79.0,59.3,29.94,NNE,32,0.0,5.0,51,0.00,,---,0.00,VWS V14.01,2013-09-14 18:28:00,
2013-09-14 14:29:00,79.0,59.3,29.94,ESE,104,0.0,5.0,51,0.00,,---,0.00,VWS V14.01,2013-09-14 18:29:00,
2013-09-14 14:30:00,79.0,59.3,29.94,NE,37,0.0,5.0,51,0.00,,---,0.00,VWS V14.01,2013-09-14 18:30:00,
2013-09-14 14:31:00,79.0,60.4,29.94,NNE,24,0.0,3.0,53,0.00,,---,0.00,VWS V14.01,2013-09-14 18:31:00,
2013-09-14 14:32:00,79.0,61.0,29.94,East,86,6.0,8.0,54,0.00,,---,0.00,VWS V14.01,2013-09-14 18:32:00,
2013-09-14 14:33:00,79.0,60.4,29.94,NNE,31,4.0,8.0,53,0.00,,---,0.00,VWS V14.01,2013-09-14 18:33:00,
2013-09-14 14:34:00,78.8,59.7,29.94,North,8,0.0,8.0,52,0.00,,---,0.00,VWS V14.01,2013-09-14 18:34:00,
2013-09-14 14:35:00,78.8,59.7,29.94,North,357,2.0,8.0,52,0.00,,---,0.00,VWS V14.01,2013-09-14 18:35:00,
2013-09-14 14:36:00,78.8,59.7,29.94,NE,51,3.0,8.0,52,0.00,,---,0.00,VWS V14.01,2013-09-14 18:36:00,
2013-09-14 14:37:00,78.8,59.7,29.94,NW,312,0.0,8.0,52,0.00,,---,0.00,VWS V14.01,2013-09-14 18:37:00,
2013-09-14 14:38:00,78.8,59.7,29.94,NE,41,3.0,8.0,52,0.00,,---,0.00,VWS V14.01,2013-09-14 18:38:00,
2013-09-14 14:39:00,78.8,59.2,29.94,North,359,0.0,8.0,51,0.00,,---,0.00,VWS V14.01,2013-09-14 18:39:00,
2013-09-14 14:40:00,78.8,59.7,29.94,NE,56,5.0,8.0,52,0.00,,---,0.00,VWS V14.01,2013-09-14 18:40:00,
2013-09-14 14:41:00,78.8,59.7,29.94,NE,44,0.0,5.0,52,0.00,,---,0.00,VWS V14.01,2013-09-14 18:41:00,
2013-09-14 14:42:00,78.8,59.7,29.94,NE,41,0.0,5.0,52,0.00,,---,0.00,VWS V14.01,2013-09-14 18:42:00,
2013-09-14 14:43:00,78.8,59.7,29.94,NNE,27,0.0,5.0,52,0.00,,---,0.00,VWS V14.01,2013-09-14 18:43:00,
2013-09-14 14:44:00,78.8,60.2,29.94,North,0,0.0,5.0,53,0.00,,---,0.00,VWS V14.01,2013-09-14 18:44:00,
2013-09-14 14:45:00,78.8,60.2,29.94,ENE,66,1.0,5.0,53,0.00,,---,0.00,VWS V14.01,2013-09-14 18:45:00,
2013-09-14 14:46:00,78.6,60.6,29.94,NE,52,0.0,5.0,54,0.00,,---,0.00,VWS V14.01,2013-09-14 18:46:00,
2013-09-14 14:47:00,78.6,60.6,29.94,SE,144,0.0,5.0,54,0.00,,---,0.00,VWS V14.01,2013-09-14 18:47:00,
2013-09-14 14:48:00,78.6,60.6,29.94,NE,52,6.0,6.0,54,0.00,,---,0.00,VWS V14.01,2013-09-14 18:48:00,
2013-09-14 14:49:00,78.6,60.1,29.94,ESE,123,1.0,9.0,53,0.00,,---,0.00,VWS V14.01,2013-09-14 18:49:00,
2013-09-14 14:50:00,78.6,60.1,29.94,SE,144,1.0,9.0,53,0.00,,---,0.00,VWS V14.01,2013-09-14 18:50:00,
2013-09-14 14:51:00,78.6,59.5,29.94,NE,47,1.0,7.0,52,0.00,,---,0.00,VWS V14.01,2013-09-14 18:51:00,
2013-09-14 14:52:00,78.5,59.4,29.94,North,7,0.0,7.0,52,0.00,,---,0.00,VWS V14.01,2013-09-14 18:52:00,
2013-09-14 14:53:00,78.5,60.0,29.94,ENE,64,3.0,7.0,53,0.00,,---,0.00,VWS V14.01,2013-09-14 18:53:00,
2013-09-14 14:54:00,78.5,60.0,29.94,ENE,59,2.0,7.0,53,0.00,,---,0.00,VWS V14.01,2013-09-14 18:54:00,
2013-09-14 14:55:00,78.5,60.0,29.94,NE,49,6.0,11.0,53,0.00,,---,0.00,VWS V14.01,2013-09-14 18:55:00,
2013-09-14 14:56:00,78.5,59.4,29.94,ENE,59,2.0,11.0,52,0.00,,---,0.00,VWS V14.01,2013-09-14 18:56:00,
2013-09-14 14:57:00,78.5,58.3,29.94,NNE,30,3.0,11.0,50,0.00,,---,0.00,VWS V14.01,2013-09-14 18:57:00,
2013-09-14 14:58:00,78.5,59.4,29.94,NE,35,1.0,11.0,52,0.00,,---,0.00,VWS V14.01,2013-09-14 18:58:00,
2013-09-14 14:59:00,78.5,60.5,29.94,North,0,3.0,11.0,54,0.00,,---,0.00,VWS V14.01,2013-09-14 18:59:00,
2013-09-14 15:00:00,78.5,60.0,29.94,NNE,20,0.0,11.0,53,0.00,,---,0.00,VWS V14.01,2013-09-14 19:00:00,
2013-09-14 15:01:00,78.5,60.5,29.94,NNE,20,0.0,0.0,54,0.00,,---,0.00,VWS V14.01,2013-09-14 19:01:00,
2013-09-14 15:02:00,78.5,60.5,29.94,SSE,152,3.0,3.0,54,0.00,,---,0.00,VWS V14.01,2013-09-14 19:02:00,
2013-09-14 15:03:00,78.5,60.5,29.94,NE,48,3.0,4.0,54,0.00,,---,0.00,VWS V14.01,2013-09-14 19:03:00,
2013-09-14 15:04:00,78.3,60.3,29.94,ESE,120,5.0,5.0,54,0.00,,---,0.00,VWS V14.01,2013-09-14 19:04:00,
2013-09-14 15:05:00,78.3,60.3,29.94,SE,127,3.0,5.0,54,0.00,,---,0.00,VWS V14.01,2013-09-14 19:05:00,
2013-09-14 15:06:00,78.3,60.3,29.94,NE,55,6.0,6.0,54,0.00,,---,0.00,VWS V14.01,2013-09-14 19:06:00,
2013-09-14 15:07:00,78.3,59.8,29.94,ENE,61,3.0,6.0,53,0.00,,---,0.00,VWS V14.01,2013-09-14 19:07:00,
2013-09-14 15:08:00,78.3,60.3,29.94,NE,47,1.0,6.0,54,0.00,,---,0.00,VWS V14.01,2013-09-14 19:08:00,
2013-09-14 15:09:00,78.3,60.3,29.94,NE,44,0.0,6.0,54,0.00,,---,0.00,VWS V14.01,2013-09-14 19:09:00,
2013-09-14 15:10:00,78.3,60.3,29.94,NNE,20,0.0,6.0,54,0.00,,---,0.00,VWS V14.01,2013-09-14 19:10:00,
2013-09-14 15:11:00,78.3,59.8,29.94,NE,37,3.0,6.0,53,0.00,,---,0.00,VWS V14.01,2013-09-14 19:11:00,
2013-09-14 15:12:00,78.3,59.8,29.94,North,3,0.0,6.0,53,0.00,,---,0.00,VWS V14.01,2013-09-14 19:12:00,
2013-09-14 15:13:00,78.3,59.8,29.94,NE,55,3.0,6.0,53,0.00,,---,0.00,VWS V14.01,2013-09-14 19:13:00,
2013-09-14 15:14:00,78.3,59.2,29.94,NNE,25,2.0,7.0,52,0.00,,---,0.00,VWS V14.01,2013-09-14 19:14:00,
2013-09-14 15:15:00,78.3,59.2,29.93,South,176,1.0,7.0,52,0.00,,---,0.00,VWS V14.01,2013-09-14 19:15:00,
2013-09-14 15:16:00,78.3,59.8,29.93,SSE,161,5.0,7.0,53,0.00,,---,0.00,VWS V14.01,2013-09-14 19:16:00,
2013-09-14 15:17:00,78.3,59.2,29.93,NE,42,0.0,7.0,52,0.00,,---,0.00,VWS V14.01,2013-09-14 19:17:00,
2013-09-14 15:18:00,78.3,59.8,29.93,East,89,6.0,7.0,53,0.00,,---,0.00,VWS V14.01,2013-09-14 19:18:00,
2013-09-14 15:19:00,78.3,60.3,29.93,SSE,150,2.0,7.0,54,0.00,,---,0.00,VWS V14.01,2013-09-14 19:19:00,
2013-09-14 15:20:00,78.3,59.8,29.93,ESE,107,0.0,8.0,53,0.00,,---,0.00,VWS V14.01,2013-09-14 19:20:00,
2013-09-14 15:21:00,78.3,59.2,29.93,NE,37,0.0,2.0,52,0.00,,---,0.00,VWS V14.01,2013-09-14 19:21:00,
2013-09-14 15:22:00,78.3,59.2,29.93,ENE,58,0.0,3.0,52,0.00,,---,0.00,VWS V14.01,2013-09-14 19:22:00,
2013-09-14 15:23:00,78.3,59.8,29.93,ENE,68,1.0,5.0,53,0.00,,---,0.00,VWS V14.01,2013-09-14 19:23:00,
2013-09-14 15:24:00,78.3,59.8,29.93,ESE,107,3.0,7.0,53,0.00,,---,0.00,VWS V14.01,2013-09-14 19:24:00,
2013-09-14 15:25:00,78.3,59.8,29.93,ENE,78,1.0,7.0,53,0.00,,---,0.00,VWS V14.01,2013-09-14 19:25:00,
2013-09-14 15:26:00,78.3,59.8,29.93,SSE,157,0.0,7.0,53,0.00,,---,0.00,VWS V14.01,2013-09-14 19:26:00,
2013-09-14 15:27:00,78.3,59.8,29.93,ENE,61,6.0,7.0,53,0.00,,---,0.00,VWS V14.01,2013-09-14 19:27:00,
2013-09-14 15:28:00,78.3,59.8,29.93,ENE,76,2.0,7.0,53,0.00,,---,0.00,VWS V14.01,2013-09-14 19:28:00,
2013-09-14 15:29:00,78.3,59.2,29.93,ENE,62,6.0,7.0,52,0.00,,---,0.00,VWS V14.01,2013-09-14 19:29:00,
2013-09-14 15:30:00,78.3,59.2,29.93,NNE,21,0.0,7.0,52,0.00,,---,0.00,VWS V14.01,2013-09-14 19:30:00,
2013-09-14 15:31:00,78.3,59.8,29.93,East,83,3.0,5.0,53,0.00,,---,0.00,VWS V14.01,2013-09-14 19:31:00,
2013-09-14 15:32:00,78.3,59.8,29.93,ENE,65,0.0,5.0,53,0.00,,---,0.00,VWS V14.01,2013-09-14 19:32:00,
2013-09-14 15:33:00,78.3,59.8,29.93,North,0,1.0,5.0,53,0.00,,---,0.00,VWS V14.01,2013-09-14 19:33:00,
2013-09-14 15:34:00,78.3,59.2,29.93,ENE,65,0.0,5.0,52,0.00,,---,0.00,VWS V14.01,2013-09-14 19:34:00,
2013-09-14 15:35:00,78.3,59.8,29.93,ENE,68,3.0,5.0,53,0.00,,---,0.00,VWS V14.01,2013-09-14 19:35:00,
2013-09-14 15:36:00,78.3,59.8,29.93,ENE,65,4.0,5.0,53,0.00,,---,0.00,VWS V14.01,2013-09-14 19:36:00,
2013-09-14 15:37:00,78.1,59.1,29.93,ESE,107,5.0,5.0,52,0.00,,---,0.00,VWS V14.01,2013-09-14 19:37:00,
2013-09-14 15:38:00,78.1,60.1,29.93,SE,127,0.0,6.0,54,0.00,,---,0.00,VWS V14.01,2013-09-14 19:38:00,
2013-09-14 15:39:00,78.1,59.6,29.93,ESE,119,7.0,7.0,53,0.00,,---,0.00,VWS V14.01,2013-09-14 19:39:00,
2013-09-14 15:40:00,78.1,59.6,29.93,SSE,150,2.0,7.0,53,0.00,,---,0.00,VWS V14.01,2013-09-14 19:40:00,
2013-09-14 15:41:00,78.1,59.6,29.93,East,99,3.0,3.0,53,0.00,,---,0.00,VWS V14.01,2013-09-14 19:41:00,
2013-09-14 15:42:00,78.1,60.1,29.93,SW,220,1.0,3.0,54,0.00,,---,0.00,VWS V14.01,2013-09-14 19:42:00,
2013-09-14 15:43:00,78.1,60.1,29.93,SW,220,0.0,3.0,54,0.00,,---,0.00,VWS V14.01,2013-09-14 19:43:00,
2013-09-14 15:44:00,78.1,60.1,29.93,NE,48,2.0,3.0,54,0.00,,---,0.00,VWS V14.01,2013-09-14 19:44:00,
2013-09-14 15:45:00,78.1,60.6,29.93,NE,49,0.0,3.0,55,0.00,,---,0.00,VWS V14.01,2013-09-14 19:45:00,
2013-09-14 15:46:00,78.1,60.6,29.93,NE,42,0.0,3.0,55,0.00,,---,0.00,VWS V14.01,2013-09-14 19:46:00,
2013-09-14 15:47:00,78.1,59.6,29.93,NNE,32,1.0,5.0,53,0.00,,---,0.00,VWS V14.01,2013-09-14 19:47:00,
2013-09-14 15:48:00,78.1,59.6,29.93,East,86,0.0,5.0,53,0.00,,---,0.00,VWS V14.01,2013-09-14 19:48:00,
2013-09-14 15:49:00,78.1,59.6,29.93,North,359,0.0,5.0,53,0.00,,---,0.00,VWS V14.01,2013-09-14 19:49:00,
2013-09-14 15:50:00,78.1,60.1,29.93,North,359,0.0,5.0,54,0.00,,---,0.00,VWS V14.01,2013-09-14 19:50:00,
2013-09-14 15:51:00,78.1,60.1,29.93,North,359,0.0,0.0,54,0.00,,---,0.00,VWS V14.01,2013-09-14 19:51:00,
2013-09-14 15:52:00,78.1,60.1,29.93,North,0,0.0,1.0,54,0.00,,---,0.00,VWS V14.01,2013-09-14 19:52:00,
2013-09-14 15:53:00,77.9,60.5,29.93,South,189,1.0,1.0,55,0.00,,---,0.00,VWS V14.01,2013-09-14 19:53:00,
2013-09-14 15:54:00,77.9,58.9,29.93,South,189,0.0,1.0,52,0.00,,---,0.00,VWS V14.01,2013-09-14 19:54:00,
2013-09-14 15:55:00,77.9,59.4,29.93,North,4,0.0,1.0,53,0.00,,---,0.00,VWS V14.01,2013-09-14 19:55:00,
2013-09-14 15:56:00,77.9,59.9,29.93,North,4,0.0,1.0,54,0.00,,---,0.00,VWS V14.01,2013-09-14 19:56:00,
2013-09-14 15:57:00,77.9,59.9,29.93,ESE,112,0.0,1.0,54,0.00,,---,0.00,VWS V14.01,2013-09-14 19:57:00,
2013-09-14 15:58:00,77.9,60.5,29.93,ENE,61,5.0,7.0,55,0.00,,---,0.00,VWS V14.01,2013-09-14 19:58:00,
2013-09-14 15:59:00,77.9,59.4,29.93,NE,47,2.0,7.0,53,0.00,,---,0.00,VWS V14.01,2013-09-14 19:59:00,
2013-09-14 16:00:00,77.9,59.4,29.93,NE,54,2.0,7.0,53,0.00,,---,0.00,VWS V14.01,2013-09-14 20:00:00,
2013-09-14 16:01:00,77.9,59.4,29.93,SSE,151,1.0,5.0,53,0.00,,---,0.00,VWS V14.01,2013-09-14 20:01:00,
2013-09-14 16:02:00,77.9,59.4,29.93,NE,38,1.0,5.0,53,0.00,,---,0.00,VWS V14.01,2013-09-14 20:02:00,
2013-09-14 16:03:00,77.9,59.9,29.93,ENE,73,5.0,6.0,54,0.00,,---,0.00,VWS V14.01,2013-09-14 20:03:00,
2013-09-14 16:04:00,77.9,59.9,29.93,East,85,0.0,6.0,54,0.00,,---,0.00,VWS V14.01,2013-09-14 20:04:00,
2013-09-14 16:05:00,77.9,59.4,29.93,ENE,61,2.0,6.0,53,0.00,,---,0.00,VWS V14.01,2013-09-14 20:05:00,
2013-09-14 16:06:00,77.9,58.9,29.93,ENE,62,1.0,6.0,52,0.00,,---,0.00,VWS V14.01,2013-09-14 20:06:00,
2013-09-14 16:07:00,77.9,58.9,29.93,NNE,28,0.0,6.0,52,0.00,,---,0.00,VWS V14.01,2013-09-14 20:07:00,
2013-09-14 16:08:00,77.9,59.9,29.93,NNE,28,0.0,6.0,54,0.00,,---,0.00,VWS V14.01,2013-09-14 20:08:00,
2013-09-14 16:09:00,77.9,60.5,29.93,ENE,61,0.0,6.0,55,0.00,,---,0.00,VWS V14.01,2013-09-14 20:09:00,
2013-09-14 16:10:00,77.9,60.5,29.93,ESE,116,0.0,6.0,55,0.00,,---,0.00,VWS V14.01,2013-09-14 20:10:00,
2013-09-14 16:11:00,77.9,60.5,29.93,North,356,0.0,0.0,55,0.00,,---,0.00,VWS V14.01,2013-09-14 20:11:00,
2013-09-14 16:12:00,77.9,60.5,29.93,ENE,62,4.0,4.0,55,0.00,,---,0.00,VWS V14.01,2013-09-14 20:12:00,
2013-09-14 16:13:00,77.9,60.5,29.93,ENE,65,2.0,4.0,55,0.00,,---,0.00,VWS V14.01,2013-09-14 20:13:00,
2013-09-14 16:14:00,77.7,60.3,29.93,North,10,0.0,4.0,55,0.00,,---,0.00,VWS V14.01,2013-09-14 20:14:00,
2013-09-14 16:15:00,77.7,58.7,29.93,East,83,0.0,4.0,52,0.00,,---,0.00,VWS V14.01,2013-09-14 20:15:00,
2013-09-14 16:16:00,77.7,58.7,29.93,East,85,0.0,4.0,52,0.00,,---,0.00,VWS V14.01,2013-09-14 20:16:00,
2013-09-14 16:17:00,77.7,58.7,29.93,ENE,61,0.0,4.0,52,0.00,,---,0.00,VWS V14.01,2013-09-14 20:17:00,
2013-09-14 16:18:00,77.7,59.8,29.93,ENE,75,1.0,5.0,54,0.00,,---,0.00,VWS V14.01,2013-09-14 20:18:00,
2013-09-14 16:19:00,77.7,59.8,29.93,NNE,21,2.0,5.0,54,0.00,,---,0.00,VWS V14.01,2013-09-14 20:19:00,
2013-09-14 16:20:00,77.7,59.8,29.93,NNE,21,2.0,5.0,54,0.00,,---,0.00,VWS V14.01,2013-09-14 20:20:00,
2013-09-14 16:21:00,77.7,59.2,29.93,NE,51,0.0,2.0,53,0.00,,---,0.00,VWS V14.01,2013-09-14 20:21:00,
2013-09-14 16:22:00,77.7,60.3,29.93,NE,42,0.0,2.0,55,0.00,,---,0.00,VWS V14.01,2013-09-14 20:22:00,
2013-09-14 16:23:00,77.7,60.3,29.93,East,93,0.0,2.0,55,0.00,,---,0.00,VWS V14.01,2013-09-14 20:23:00,
2013-09-14 16:24:00,77.7,60.3,29.93,East,93,0.0,2.0,55,0.00,,---,0.00,VWS V14.01,2013-09-14 20:24:00,
2013-09-14 16:25:00,77.7,60.3,29.93,ESE,119,0.0,3.0,55,0.00,,---,0.00,VWS V14.01,2013-09-14 20:25:00,
2013-09-14 16:26:00,77.7,59.8,29.93,East,97,0.0,3.0,54,0.00,,---,0.00,VWS V14.01,2013-09-14 20:26:00,
2013-09-14 16:27:00,77.7,59.8,29.93,SSE,165,0.0,3.0,54,0.00,,---,0.00,VWS V14.01,2013-09-14 20:27:00,
2013-09-14 16:28:00,77.7,59.8,29.93,SE,128,0.0,3.0,54,0.00,,---,0.00,VWS V14.01,2013-09-14 20:28:00,
2013-09-14 16:29:00,77.7,60.3,29.93,SE,128,1.0,3.0,55,0.00,,---,0.00,VWS V14.01,2013-09-14 20:29:00,
2013-09-14 16:30:00,77.7,60.8,29.94,East,80,0.0,3.0,56,0.00,,---,0.00,VWS V14.01,2013-09-14 20:30:00,
2013-09-14 16:31:00,77.7,61.3,29.94,NNE,30,1.0,2.0,57,0.00,,---,0.00,VWS V14.01,2013-09-14 20:31:00,
2013-09-14 16:32:00,77.6,60.7,29.94,ENE,73,0.0,3.0,56,0.00,,---,0.00,VWS V14.01,2013-09-14 20:32:00,
2013-09-14 16:33:00,77.6,60.7,29.94,SSE,155,0.0,3.0,56,0.00,,---,0.00,VWS V14.01,2013-09-14 20:33:00,
2013-09-14 16:34:00,77.6,60.7,29.94,NE,35,3.0,3.0,56,0.00,,---,0.00,VWS V14.01,2013-09-14 20:34:00,
2013-09-14 16:35:00,77.6,60.2,29.94,SSE,147,3.0,3.0,55,0.00,,---,0.00,VWS V14.01,2013-09-14 20:35:00,
2013-09-14 16:36:00,77.6,60.2,29.94,ENE,69,3.0,3.0,55,0.00,,---,0.00,VWS V14.01,2013-09-14 20:36:00,
2013-09-14 16:37:00,77.6,59.7,29.94,NE,42,0.0,3.0,54,0.00,,---,0.00,VWS V14.01,2013-09-14 20:37:00,
2013-09-14 16:38:00,77.6,59.7,29.94,NE,42,0.0,3.0,54,0.00,,---,0.00,VWS V14.01,2013-09-14 20:38:00,
2013-09-14 16:39:00,77.6,59.7,29.94,East,83,0.0,3.0,54,0.00,,---,0.00,VWS V14.01,2013-09-14 20:39:00,
2013-09-14 16:40:00,77.6,59.1,29.94,SSE,148,0.0,4.0,53,0.00,,---,0.00,VWS V14.01,2013-09-14 20:40:00,
2013-09-14 16:41:00,77.6,59.1,29.94,East,85,0.0,1.0,53,0.00,,---,0.00,VWS V14.01,2013-09-14 20:41:00,
2013-09-14 16:42:00,77.6,59.1,29.94,NE,51,2.0,3.0,53,0.00,,---,0.00,VWS V14.01,2013-09-14 20:42:00,
2013-09-14 16:43:00,77.6,59.7,29.94,ESE,116,0.0,5.0,54,0.00,,---,0.00,VWS V14.01,2013-09-14 20:43:00,
2013-09-14 16:44:00,77.6,59.7,29.94,ESE,116,0.0,5.0,54,0.00,,---,0.00,VWS V14.01,2013-09-14 20:44:00,
2013-09-14 16:45:00,77.6,59.7,29.94,ESE,116,0.0,5.0,54,0.00,,---,0.00,VWS V14.01,2013-09-14 20:45:00,
2013-09-14 16:46:00,77.6,59.7,29.94,ESE,116,0.0,5.0,54,0.00,,---,0.00,VWS V14.01,2013-09-14 20:46:00,
2013-09-14 16:47:00,77.6,60.2,29.94,SSE,150,0.0,5.0,55,0.00,,---,0.00,VWS V14.01,2013-09-14 20:47:00,
2013-09-14 16:48:00,77.6,60.2,29.94,East,80,0.0,5.0,55,0.00,,---,0.00,VWS V14.01,2013-09-14 20:48:00,
2013-09-14 16:49:00,77.6,60.2,29.94,NE,48,2.0,5.0,55,0.00,,---,0.00,VWS V14.01,2013-09-14 20:49:00,
2013-09-14 16:50:00,77.6,60.2,29.94,NNE,28,3.0,10.0,55,0.00,,---,0.00,VWS V14.01,2013-09-14 20:50:00,
2013-09-14 16:51:00,77.6,60.2,29.94,NE,37,0.0,1.0,55,0.00,,---,0.00,VWS V14.01,2013-09-14 20:51:00,
2013-09-14 16:52:00,77.6,59.1,29.94,NE,48,2.0,3.0,53,0.00,,---,0.00,VWS V14.01,2013-09-14 20:52:00,
2013-09-14 16:53:00,77.6,59.1,29.94,North,353,2.0,4.0,53,0.00,,---,0.00,VWS V14.01,2013-09-14 20:53:00,
2013-09-14 16:54:00,77.6,59.1,29.94,North,354,0.0,4.0,53,0.00,,---,0.00,VWS V14.01,2013-09-14 20:54:00,
2013-09-14 16:55:00,77.4,59.5,29.94,NNE,32,0.0,4.0,54,0.00,,---,0.00,VWS V14.01,2013-09-14 20:55:00,
2013-09-14 16:56:00,77.4,59.5,29.94,NE,55,3.0,5.0,54,0.00,,---,0.00,VWS V14.01,2013-09-14 20:56:00,
2013-09-14 16:57:00,77.4,59.5,29.94,NE,55,0.0,6.0,54,0.00,,---,0.00,VWS V14.01,2013-09-14 20:57:00,
2013-09-14 16:58:00,77.4,59.5,29.94,NNE,20,0.0,6.0,54,0.00,,---,0.00,VWS V14.01,2013-09-14 20:58:00,
2013-09-14 16:59:00,77.4,59.5,29.94,NNE,30,0.0,6.0,54,0.00,,---,0.00,VWS V14.01,2013-09-14 20:59:00,
2013-09-14 17:00:00,77.4,59.5,29.94,NNE,32,0.0,6.0,54,0.00,,---,0.00,VWS V14.01,2013-09-14 21:00:00,
2013-09-14 17:01:00,77.4,60.0,29.94,NNE,16,0.0,3.0,55,0.00,,---,0.00,VWS V14.01,2013-09-14 21:01:00,
2013-09-14 17:02:00,77.4,60.0,29.94,NNE,16,0.0,3.0,55,0.00,,---,0.00,VWS V14.01,2013-09-14 21:02:00,
2013-09-14 17:03:00,77.4,59.5,29.94,NNE,16,0.0,3.0,54,0.00,,---,0.00,VWS V14.01,2013-09-14 21:03:00,
2013-09-14 17:04:00,77.4,59.5,29.94,SE,130,2.0,3.0,54,0.00,,---,0.00,VWS V14.01,2013-09-14 21:04:00,
2013-09-14 17:05:00,77.4,59.5,29.94,SE,137,2.0,3.0,54,0.00,,---,0.00,VWS V14.01,2013-09-14 21:05:00,
2013-09-14 17:06:00,77.2,59.8,29.94,SE,137,0.0,3.0,55,0.00,,---,0.00,VWS V14.01,2013-09-14 21:06:00,
2013-09-14 17:07:00,77.2,59.8,29.94,NE,55,4.0,5.0,55,0.00,,---,0.00,VWS V14.01,2013-09-14 21:07:00,
2013-09-14 17:08:00,77.2,59.8,29.94,NE,51,2.0,5.0,55,0.00,,---,0.00,VWS V14.01,2013-09-14 21:08:00,
2013-09-14 17:09:00,77.2,59.8,29.94,ESE,119,1.0,5.0,55,0.00,,---,0.00,VWS V14.01,2013-09-14 21:09:00,
2013-09-14 17:10:00,77.2,59.3,29.94,NE,55,4.0,5.0,54,0.00,,---,0.00,VWS V14.01,2013-09-14 21:10:00,
2013-09-14 17:11:00,77.2,59.3,29.94,NNE,30,1.0,7.0,54,0.00,,---,0.00,VWS V14.01,2013-09-14 21:11:00,
2013-09-14 17:12:00,77.2,59.3,29.94,NNE,31,0.0,7.0,54,0.00,,---,0.00,VWS V14.01,2013-09-14 21:12:00,
2013-09-14 17:13:00,77.2,59.3,29.94,SSE,161,1.0,7.0,54,0.00,,---,0.00,VWS V14.01,2013-09-14 21:13:00,
2013-09-14 17:14:00,77.2,59.8,29.94,NE,55,2.0,7.0,55,0.00,,---,0.00,VWS V14.01,2013-09-14 21:14:00,
2013-09-14 17:15:00,77.2,59.8,29.94,NE,40,0.0,7.0,55,0.00,,---,0.00,VWS V14.01,2013-09-14 21:15:00,
2013-09-14 17:16:00,77.2,59.8,29.94,ENE,59,0.0,7.0,55,0.00,,---,0.00,VWS V14.01,2013-09-14 21:16:00,
2013-09-14 17:17:00,77.2,59.8,29.94,ENE,59,0.0,7.0,55,0.00,,---,0.00,VWS V14.01,2013-09-14 21:17:00,
2013-09-14 17:18:00,77.2,59.8,29.94,ENE,59,0.0,7.0,55,0.00,,---,0.00,VWS V14.01,2013-09-14 21:18:00,
2013-09-14 17:19:00,77.2,59.8,29.94,ENE,73,3.0,7.0,55,0.00,,---,0.00,VWS V14.01,2013-09-14 21:19:00,
2013-09-14 17:20:00,77.2,59.8,29.94,NNE,31,2.0,7.0,55,0.00,,---,0.00,VWS V14.01,2013-09-14 21:20:00,
2013-09-14 17:21:00,77.0,59.6,29.94,ENE,65,0.0,2.0,55,0.00,,---,0.00,VWS V14.01,2013-09-14 21:21:00,
2013-09-14 17:22:00,77.0,59.6,29.94,ENE,69,0.0,2.0,55,0.00,,---,0.00,VWS V14.01,2013-09-14 21:22:00,
2013-09-14 17:23:00,77.0,59.6,29.94,ENE,64,0.0,2.0,55,0.00,,---,0.00,VWS V14.01,2013-09-14 21:23:00,
2013-09-14 17:24:00,77.0,59.6,29.94,NNE,30,1.0,2.0,55,0.00,,---,0.00,VWS V14.01,2013-09-14 21:24:00,
2013-09-14 17:25:00,77.0,59.6,29.94,NE,54,2.0,6.0,55,0.00,,---,0.00,VWS V14.01,2013-09-14 21:25:00,
2013-09-14 17:26:00,77.0,59.6,29.94,NNE,32,0.0,6.0,55,0.00,,---,0.00,VWS V14.01,2013-09-14 21:26:00,
2013-09-14 17:27:00,77.0,59.6,29.94,NE,38,3.0,6.0,55,0.00,,---,0.00,VWS V14.01,2013-09-14 21:27:00,
2013-09-14 17:28:00,77.0,59.6,29.94,NNE,28,0.0,6.0,55,0.00,,---,0.00,VWS V14.01,2013-09-14 21:28:00,
2013-09-14 17:29:00,77.0,59.6,29.94,NNE,30,0.0,6.0,55,0.00,,---,0.00,VWS V14.01,2013-09-14 21:29:00,
2013-09-14 17:30:00,77.0,59.6,29.95,NE,55,0.0,6.0,55,0.00,,---,0.00,VWS V14.01,2013-09-14 21:30:00,
2013-09-14 17:31:00,77.0,59.1,29.95,North,354,0.0,1.0,54,0.00,,---,0.00,VWS V14.01,2013-09-14 21:31:00,
2013-09-14 17:32:00,77.0,59.6,29.95,NE,44,2.0,2.0,55,0.00,,---,0.00,VWS V14.01,2013-09-14 21:32:00,
2013-09-14 17:33:00,77.0,60.1,29.95,NE,56,0.0,3.0,56,0.00,,---,0.00,VWS V14.01,2013-09-14 21:33:00,
2013-09-14 17:34:00,77.0,59.6,29.95,NE,47,0.0,5.0,55,0.00,,---,0.00,VWS V14.01,2013-09-14 21:34:00,
2013-09-14 17:35:00,76.8,59.4,29.95,NE,55,2.0,6.0,55,0.00,,---,0.00,VWS V14.01,2013-09-14 21:35:00,
2013-09-14 17:36:00,76.8,59.4,29.95,NE,55,0.0,6.0,55,0.00,,---,0.00,VWS V14.01,2013-09-14 21:36:00,
2013-09-14 17:37:00,76.8,59.4,29.95,NNE,28,0.0,6.0,55,0.00,,---,0.00,VWS V14.01,2013-09-14 21:37:00,
2013-09-14 17:38:00,76.8,59.4,29.95,NE,55,3.0,6.0,55,0.00,,---,0.00,VWS V14.01,2013-09-14 21:38:00,
2013-09-14 17:39:00,76.8,59.4,29.95,NE,42,0.0,6.0,55,0.00,,---,0.00,VWS V14.01,2013-09-14 21:39:00,
2013-09-14 17:40:00,76.8,59.4,29.95,NE,42,0.0,6.0,55,0.00,,---,0.00,VWS V14.01,2013-09-14 21:40:00,
2013-09-14 17:41:00,76.8,59.4,29.95,NE,37,0.0,0.0,55,0.00,,---,0.00,VWS V14.01,2013-09-14 21:41:00,
2013-09-14 17:42:00,76.8,59.4,29.95,NNE,21,4.0,6.0,55,0.00,,---,0.00,VWS V14.01,2013-09-14 21:42:00,
2013-09-14 17:43:00,76.8,59.4,29.95,NNE,21,0.0,6.0,55,0.00,,---,0.00,VWS V14.01,2013-09-14 21:43:00,
2013-09-14 17:44:00,76.8,59.4,29.95,NNE,30,1.0,6.0,55,0.00,,---,0.00,VWS V14.01,2013-09-14 21:44:00,
2013-09-14 17:45:00,76.8,59.4,29.96,NE,54,0.0,6.0,55,0.00,,---,0.00,VWS V14.01,2013-09-14 21:45:00,
2013-09-14 17:46:00,76.8,59.4,29.96,NE,54,0.0,6.0,55,0.00,,---,0.00,VWS V14.01,2013-09-14 21:46:00,
2013-09-14 17:47:00,76.7,59.8,29.96,NE,55,0.0,6.0,56,0.00,,---,0.00,VWS V14.01,2013-09-14 21:47:00,
2013-09-14 17:48:00,76.7,60.3,29.96,NE,55,1.0,6.0,57,0.00,,---,0.00,VWS V14.01,2013-09-14 21:48:00,
2013-09-14 17:49:00,76.7,60.3,29.96,SSE,150,0.0,6.0,57,0.00,,---,0.00,VWS V14.01,2013-09-14 21:49:00,
2013-09-14 17:50:00,76.7,60.8,29.96,NNE,32,0.0,6.0,58,0.00,,---,0.00,VWS V14.01,2013-09-14 21:50:00,
2013-09-14 17:51:00,76.7,60.8,29.96,NNE,32,0.0,0.0,58,0.00,,---,0.00,VWS V14.01,2013-09-14 21:51:00,
2013-09-14 17:52:00,76.7,60.8,29.96,SE,131,0.0,0.0,58,0.00,,---,0.00,VWS V14.01,2013-09-14 21:52:00,
2013-09-14 17:53:00,76.7,59.8,29.96,SE,131,0.0,0.0,56,0.00,,---,0.00,VWS V14.01,2013-09-14 21:53:00,
2013-09-14 17:54:00,76.7,59.8,29.96,SE,131,0.0,0.0,56,0.00,,---,0.00,VWS V14.01,2013-09-14 21:54:00,
2013-09-14 17:55:00,76.7,60.3,29.96,SE,131,0.0,0.0,57,0.00,,---,0.00,VWS V14.01,2013-09-14 21:55:00,
2013-09-14 17:56:00,76.7,60.3,29.96,NNE,24,0.0,3.0,57,0.00,,---,0.00,VWS V14.01,2013-09-14 21:56:00,
2013-09-14 17:57:00,76.7,60.3,29.96,NNE,24,0.0,3.0,57,0.00,,---,0.00,VWS V14.01,2013-09-14 21:57:00,
2013-09-14 17:58:00,76.7,60.3,29.96,NNE,30,0.0,3.0,57,0.00,,---,0.00,VWS V14.01,2013-09-14 21:58:00,
2013-09-14 17:59:00,76.7,60.3,29.96,ENE,62,0.0,3.0,57,0.00,,---,0.00,VWS V14.01,2013-09-14 21:59:00,
2013-09-14 18:00:00,76.7,60.3,29.96,ENE,78,3.0,3.0,57,0.00,,---,0.00,VWS V14.01,2013-09-14 22:00:00,
2013-09-14 18:01:00,76.7,60.3,29.96,ENE,58,0.0,3.0,57,0.00,,---,0.00,VWS V14.01,2013-09-14 22:01:00,
2013-09-14 18:02:00,76.7,60.3,29.96,ENE,58,0.0,3.0,57,0.00,,---,0.00,VWS V14.01,2013-09-14 22:02:00,
2013-09-14 18:03:00,76.7,60.8,29.96,NE,48,0.0,3.0,58,0.00,,---,0.00,VWS V14.01,2013-09-14 22:03:00,
2013-09-14 18:04:00,76.7,60.8,29.96,NE,51,0.0,3.0,58,0.00,,---,0.00,VWS V14.01,2013-09-14 22:04:00,
2013-09-14 18:05:00,76.8,60.4,29.96,NE,51,0.0,3.0,57,0.00,,---,0.00,VWS V14.01,2013-09-14 22:05:00,
2013-09-14 18:06:00,77.0,60.1,29.96,NE,44,0.0,3.0,56,0.00,,---,0.00,VWS V14.01,2013-09-14 22:06:00,
2013-09-14 18:07:00,77.0,60.1,29.96,ENE,58,1.0,3.0,56,0.00,,---,0.00,VWS V14.01,2013-09-14 22:07:00,
2013-09-14 18:08:00,77.2,60.3,29.96,NE,35,0.0,3.0,56,0.00,,---,0.00,VWS V14.01,2013-09-14 22:08:00,
2013-09-14 18:09:00,77.2,60.3,29.96,NE,35,0.0,3.0,56,0.00,,---,0.00,VWS V14.01,2013-09-14 22:09:00,
2013-09-14 18:10:00,77.2,60.3,29.96,NE,35,0.0,3.0,56,0.00,,---,0.00,VWS V14.01,2013-09-14 22:10:00,
2013-09-14 18:11:00,77.4,60.5,29.96,East,83,0.0,0.0,56,0.00,,---,0.00,VWS V14.01,2013-09-14 22:11:00,
2013-09-14 18:12:00,77.4,60.0,29.96,NE,40,0.0,2.0,55,0.00,,---,0.00,VWS V14.01,2013-09-14 22:12:00,
2013-09-14 18:13:00,77.4,60.0,29.96,NE,40,0.0,2.0,55,0.00,,---,0.00,VWS V14.01,2013-09-14 22:13:00,
2013-09-14 18:14:00,77.4,61.0,29.96,NE,40,0.0,2.0,57,0.00,,---,0.00,VWS V14.01,2013-09-14 22:14:00,
2013-09-14 18:15:00,77.4,61.0,29.96,ENE,62,0.0,3.0,57,0.00,,---,0.00,VWS V14.01,2013-09-14 22:15:00,
2013-09-14 18:16:00,77.4,60.5,29.96,ENE,62,0.0,3.0,56,0.00,,---,0.00,VWS V14.01,2013-09-14 22:16:00,
2013-09-14 18:17:00,77.4,60.5,29.96,NE,54,0.0,3.0,56,0.00,,---,0.00,VWS V14.01,2013-09-14 22:17:00,
2013-09-14 18:18:00,77.4,60.5,29.96,NE,56,1.0,3.0,56,0.00,,---,0.00,VWS V14.01,2013-09-14 22:18:00,
2013-09-14 18:19:00,77.4,60.5,29.96,NE,56,2.0,3.0,56,0.00,,---,0.00,VWS V14.01,2013-09-14 22:19:00,
2013-09-14 18:20:00,77.4,61.0,29.96,NE,56,0.0,3.0,57,0.00,,---,0.00,VWS V14.01,2013-09-14 22:20:00,
2013-09-14 18:21:00,77.4,61.0,29.96,NE,56,0.0,1.0,57,0.00,,---,0.00,VWS V14.01,2013-09-14 22:21:00,
2013-09-14 18:22:00,77.4,61.5,29.96,NE,56,0.0,1.0,58,0.00,,---,0.00,VWS V14.01,2013-09-14 22:22:00,
2013-09-14 18:23:00,77.4,61.5,29.96,NE,49,2.0,3.0,58,0.00,,---,0.00,VWS V14.01,2013-09-14 22:23:00,
2013-09-14 18:24:00,77.4,61.5,29.96,NE,49,0.0,3.0,58,0.00,,---,0.00,VWS V14.01,2013-09-14 22:24:00,
2013-09-14 18:25:00,77.4,60.5,29.96,NE,49,0.0,3.0,56,0.00,,---,0.00,VWS V14.01,2013-09-14 22:25:00,
2013-09-14 18:26:00,77.4,61.5,29.96,NE,49,0.0,3.0,58,0.00,,---,0.00,VWS V14.01,2013-09-14 22:26:00,
2013-09-14 18:27:00,77.4,61.5,29.96,NE,49,0.0,3.0,58,0.00,,---,0.00,VWS V14.01,2013-09-14 22:27:00,
2013-09-14 18:28:00,77.4,61.5,29.96,ENE,65,1.0,6.0,58,0.00,,---,0.00,VWS V14.01,2013-09-14 22:28:00,
2013-09-14 18:29:00,77.4,61.5,29.96,ENE,65,0.0,6.0,58,0.00,,---,0.00,VWS V14.01,2013-09-14 22:29:00,
2013-09-14 18:30:00,77.4,61.5,29.96,ENE,65,0.0,6.0,58,0.00,,---,0.00,VWS V14.01,2013-09-14 22:30:00,
2013-09-14 18:31:00,77.4,60.5,29.96,ENE,65,0.0,0.0,56,0.00,,---,0.00,VWS V14.01,2013-09-14 22:31:00,
2013-09-14 18:32:00,77.4,60.5,29.96,ENE,65,0.0,0.0,56,0.00,,---,0.00,VWS V14.01,2013-09-14 22:32:00,
2013-09-14 18:33:00,77.7,60.8,29.96,ENE,65,0.0,0.0,56,0.00,,---,0.00,VWS V14.01,2013-09-14 22:33:00,
2013-09-14 18:34:00,77.9,61.0,29.96,ENE,65,0.0,0.0,56,0.00,,---,0.00,VWS V14.01,2013-09-14 22:34:00,
2013-09-14 18:35:00,77.9,61.0,29.96,ENE,65,0.0,0.0,56,0.00,,---,0.00,VWS V14.01,2013-09-14 22:35:00,
2013-09-14 18:36:00,77.9,61.5,29.96,ENE,65,0.0,0.0,57,0.00,,---,0.00,VWS V14.01,2013-09-14 22:36:00,
2013-09-14 18:37:00,77.9,61.5,29.96,ENE,65,0.0,0.0,57,0.00,,---,0.00,VWS V14.01,2013-09-14 22:37:00,
2013-09-14 18:38:00,77.9,61.5,29.96,ENE,65,0.0,0.0,57,0.00,,---,0.00,VWS V14.01,2013-09-14 22:38:00,
2013-09-14 18:39:00,77.9,61.5,29.96,ENE,65,0.0,0.0,57,0.00,,---,0.00,VWS V14.01,2013-09-14 22:39:00,
2013-09-14 18:40:00,77.9,61.5,29.96,ENE,65,0.0,0.0,57,0.00,,---,0.00,VWS V14.01,2013-09-14 22:40:00,
2013-09-14 18:41:00,77.7,61.8,29.96,ENE,65,0.0,0.0,58,0.00,,---,0.00,VWS V14.01,2013-09-14 22:41:00,
2013-09-14 18:42:00,77.7,61.3,29.96,ENE,65,0.0,0.0,57,0.00,,---,0.00,VWS V14.01,2013-09-14 22:42:00,
2013-09-14 18:43:00,77.7,61.3,29.96,ENE,65,0.0,0.0,57,0.00,,---,0.00,VWS V14.01,2013-09-14 22:43:00,
2013-09-14 18:44:00,77.6,61.2,29.96,ENE,65,0.0,0.0,57,0.00,,---,0.00,VWS V14.01,2013-09-14 22:44:00,
2013-09-14 18:45:00,77.6,61.7,29.96,ENE,65,0.0,0.0,58,0.00,,---,0.00,VWS V14.01,2013-09-14 22:45:00,
2013-09-14 18:46:00,77.6,61.7,29.96,ENE,65,0.0,0.0,58,0.00,,---,0.00,VWS V14.01,2013-09-14 22:46:00,
2013-09-14 18:47:00,77.4,61.5,29.96,ENE,65,0.0,0.0,58,0.00,,---,0.00,VWS V14.01,2013-09-14 22:47:00,
2013-09-14 18:48:00,77.4,62.4,29.96,ENE,65,0.0,0.0,60,0.00,,---,0.00,VWS V14.01,2013-09-14 22:48:00,
2013-09-14 18:49:00,77.4,62.9,29.96,ENE,65,0.0,0.0,61,0.00,,---,0.00,VWS V14.01,2013-09-14 22:49:00,
2013-09-14 18:50:00,77.2,62.7,29.96,ENE,65,0.0,0.0,61,0.00,,---,0.00,VWS V14.01,2013-09-14 22:50:00,
2013-09-14 18:51:00,77.0,62.5,29.96,ENE,65,0.0,0.0,61,0.00,,---,0.00,VWS V14.01,2013-09-14 22:51:00,
2013-09-14 18:52:00,77.0,62.5,29.96,ENE,65,0.0,0.0,61,0.00,,---,0.00,VWS V14.01,2013-09-14 22:52:00,
2013-09-14 18:53:00,76.8,62.3,29.96,ENE,65,0.0,0.0,61,0.00,,---,0.00,VWS V14.01,2013-09-14 22:53:00,
2013-09-14 18:54:00,76.7,62.2,29.96,ENE,65,0.0,0.0,61,0.00,,---,0.00,VWS V14.01,2013-09-14 22:54:00,
2013-09-14 18:55:00,76.7,62.2,29.96,ENE,65,0.0,0.0,61,0.00,,---,0.00,VWS V14.01,2013-09-14 22:55:00,
2013-09-14 18:56:00,76.5,62.5,29.96,ENE,65,0.0,0.0,62,0.00,,---,0.00,VWS V14.01,2013-09-14 22:56:00,
2013-09-14 18:57:00,76.5,62.5,29.96,ENE,65,0.0,0.0,62,0.00,,---,0.00,VWS V14.01,2013-09-14 22:57:00,
2013-09-14 18:58:00,76.3,62.3,29.96,ENE,65,0.0,0.0,62,0.00,,---,0.00,VWS V14.01,2013-09-14 22:58:00,
2013-09-14 18:59:00,76.3,62.3,29.96,ENE,65,0.0,0.0,62,0.00,,---,0.00,VWS V14.01,2013-09-14 22:59:00,
2013-09-14 19:00:00,76.1,62.2,29.97,ENE,65,0.0,0.0,62,0.00,,---,0.00,VWS V14.01,2013-09-14 23:00:00,
2013-09-14 19:01:00,76.1,62.6,29.97,ENE,65,0.0,0.0,63,0.00,,---,0.00,VWS V14.01,2013-09-14 23:01:00,
2013-09-14 19:02:00,76.0,62.5,29.97,ENE,65,0.0,0.0,63,0.00,,---,0.00,VWS V14.01,2013-09-14 23:02:00,
2013-09-14 19:03:00,75.8,62.8,29.97,ENE,65,0.0,0.0,64,0.00,,---,0.00,VWS V14.01,2013-09-14 23:03:00,
2013-09-14 19:04:00,75.8,62.8,29.97,ENE,65,0.0,0.0,64,0.00,,---,0.00,VWS V14.01,2013-09-14 23:04:00,
2013-09-14 19:05:00,75.8,62.8,29.97,ENE,65,0.0,0.0,64,0.00,,---,0.00,VWS V14.01,2013-09-14 23:05:00,
2013-09-14 19:06:00,75.6,63.0,29.97,ENE,65,0.0,0.0,65,0.00,,---,0.00,VWS V14.01,2013-09-14 23:06:00,
2013-09-14 19:07:00,75.4,62.8,29.97,ENE,65,0.0,0.0,65,0.00,,---,0.00,VWS V14.01,2013-09-14 23:07:00,
2013-09-14 19:08:00,75.4,62.8,29.97,ENE,65,0.0,0.0,65,0.00,,---,0.00,VWS V14.01,2013-09-14 23:08:00,
2013-09-14 19:09:00,75.3,62.7,29.97,ENE,65,0.0,0.0,65,0.00,,---,0.00,VWS V14.01,2013-09-14 23:09:00,
2013-09-14 19:10:00,75.3,62.7,29.97,ENE,65,0.0,0.0,65,0.00,,---,0.00,VWS V14.01,2013-09-14 23:10:00,
2013-09-14 19:11:00,75.1,62.5,29.97,ENE,65,0.0,0.0,65,0.00,,---,0.00,VWS V14.01,2013-09-14 23:11:00,
2013-09-14 19:12:00,75.1,62.5,29.97,ENE,65,0.0,0.0,65,0.00,,---,0.00,VWS V14.01,2013-09-14 23:12:00,
2013-09-14 19:13:00,74.9,62.3,29.97,ENE,65,0.0,0.0,65,0.00,,---,0.00,VWS V14.01,2013-09-14 23:13:00,
2013-09-14 19:14:00,74.9,62.8,29.97,ENE,65,0.0,0.0,66,0.00,,---,0.00,VWS V14.01,2013-09-14 23:14:00,
2013-09-14 19:15:00,74.7,62.6,29.97,ENE,65,0.0,0.0,66,0.00,,---,0.00,VWS V14.01,2013-09-14 23:15:00,
2013-09-14 19:16:00,74.7,62.6,29.97,ENE,65,0.0,0.0,66,0.00,,---,0.00,VWS V14.01,2013-09-14 23:16:00,
2013-09-14 19:17:00,74.7,63.0,29.97,ENE,65,0.0,0.0,67,0.00,,---,0.00,VWS V14.01,2013-09-14 23:17:00,
2013-09-14 19:18:00,74.6,62.9,29.97,ENE,65,0.0,0.0,67,0.00,,---,0.00,VWS V14.01,2013-09-14 23:18:00,
2013-09-14 19:19:00,74.6,62.5,29.97,ENE,65,0.0,0.0,66,0.00,,---,0.00,VWS V14.01,2013-09-14 23:19:00,
2013-09-14 19:20:00,74.4,62.3,29.97,ENE,65,0.0,0.0,66,0.00,,---,0.00,VWS V14.01,2013-09-14 23:20:00,
2013-09-14 19:21:00,74.4,62.3,29.97,ENE,65,0.0,0.0,66,0.00,,---,0.00,VWS V14.01,2013-09-14 23:21:00,
2013-09-14 19:22:00,74.4,62.7,29.97,ENE,65,0.0,0.0,67,0.00,,---,0.00,VWS V14.01,2013-09-14 23:22:00,
2013-09-14 19:23:00,74.2,62.5,29.97,ENE,65,0.0,0.0,67,0.00,,---,0.00,VWS V14.01,2013-09-14 23:23:00,
2013-09-14 19:24:00,74.2,62.5,29.97,ENE,65,0.0,0.0,67,0.00,,---,0.00,VWS V14.01,2013-09-14 23:24:00,
2013-09-14 19:25:00,74.0,62.4,29.97,ENE,65,0.0,0.0,67,0.00,,---,0.00,VWS V14.01,2013-09-14 23:25:00,
2013-09-14 19:26:00,74.0,62.4,29.97,ENE,65,0.0,0.0,67,0.00,,---,0.00,VWS V14.01,2013-09-14 23:26:00,
2013-09-14 19:27:00,73.9,62.3,29.97,ENE,65,0.0,0.0,67,0.00,,---,0.00,VWS V14.01,2013-09-14 23:27:00,
2013-09-14 19:28:00,73.9,61.8,29.97,ENE,65,0.0,0.0,66,0.00,,---,0.00,VWS V14.01,2013-09-14 23:28:00,
2013-09-14 19:29:00,73.7,61.7,29.97,ENE,65,0.0,0.0,66,0.00,,---,0.00,VWS V14.01,2013-09-14 23:29:00,
2013-09-14 19:30:00,73.7,62.1,29.97,ENE,65,0.0,0.0,67,0.00,,---,0.00,VWS V14.01,2013-09-14 23:30:00,
2013-09-14 19:31:00,73.7,62.1,29.97,ENE,65,0.0,0.0,67,0.00,,---,0.00,VWS V14.01,2013-09-14 23:31:00,
2013-09-14 19:32:00,73.5,61.9,29.97,ENE,65,0.0,0.0,67,0.00,,---,0.00,VWS V14.01,2013-09-14 23:32:00,
2013-09-14 19:33:00,73.5,62.7,29.97,ENE,65,0.0,0.0,69,0.00,,---,0.00,VWS V14.01,2013-09-14 23:33:00,
2013-09-14 19:34:00,73.5,62.3,29.97,ENE,65,0.0,0.0,68,0.00,,---,0.00,VWS V14.01,2013-09-14 23:34:00,
2013-09-14 19:35:00,73.3,62.1,29.97,ENE,65,0.0,0.0,68,0.00,,---,0.00,VWS V14.01,2013-09-14 23:35:00,
2013-09-14 19:36:00,73.3,62.1,29.97,ENE,65,0.0,0.0,68,0.00,,---,0.00,VWS V14.01,2013-09-14 23:36:00,
2013-09-14 19:37:00,73.2,62.0,29.97,ENE,65,0.0,0.0,68,0.00,,---,0.00,VWS V14.01,2013-09-14 23:37:00,
2013-09-14 19:38:00,73.2,62.0,29.97,ENE,65,0.0,0.0,68,0.00,,---,0.00,VWS V14.01,2013-09-14 23:38:00,
2013-09-14 19:39:00,73.2,62.0,29.97,ENE,65,0.0,0.0,68,0.00,,---,0.00,VWS V14.01,2013-09-14 23:39:00,
2013-09-14 19:40:00,73.0,62.2,29.97,ENE,65,0.0,0.0,69,0.00,,---,0.00,VWS V14.01,2013-09-14 23:40:00,
2013-09-14 19:41:00,73.0,62.2,29.97,ENE,65,0.0,0.0,69,0.00,,---,0.00,VWS V14.01,2013-09-14 23:41:00,
2013-09-14 19:42:00,73.0,62.2,29.97,ENE,65,0.0,0.0,69,0.00,,---,0.00,VWS V14.01,2013-09-14 23:42:00,
2013-09-14 19:43:00,73.0,61.8,29.97,ENE,65,0.0,0.0,68,0.00,,---,0.00,VWS V14.01,2013-09-14 23:43:00,
2013-09-14 19:44:00,72.8,61.6,29.97,ENE,65,0.0,0.0,68,0.00,,---,0.00,VWS V14.01,2013-09-14 23:44:00,
2013-09-14 19:45:00,72.8,62.0,29.98,ENE,65,0.0,0.0,69,0.00,,---,0.00,VWS V14.01,2013-09-14 23:45:00,
2013-09-14 19:46:00,72.8,61.6,29.98,ENE,65,0.0,0.0,68,0.00,,---,0.00,VWS V14.01,2013-09-14 23:46:00,
2013-09-14 19:47:00,72.8,61.6,29.98,ENE,65,0.0,1.0,68,0.00,,---,0.00,VWS V14.01,2013-09-14 23:47:00,
2013-09-14 19:48:00,72.7,61.5,29.98,ENE,65,0.0,1.0,68,0.00,,---,0.00,VWS V14.01,2013-09-14 23:48:00,
2013-09-14 19:49:00,72.7,61.5,29.98,ENE,65,0.0,1.0,68,0.00,,---,0.00,VWS V14.01,2013-09-14 23:49:00,
2013-09-14 19:50:00,72.7,61.5,29.98,ENE,65,0.0,1.0,68,0.00,,---,0.00,VWS V14.01,2013-09-14 23:50:00,
2013-09-14 19:51:00,72.7,61.5,29.98,ENE,65,0.0,0.0,68,0.00,,---,0.00,VWS V14.01,2013-09-14 23:51:00,
2013-09-14 19:52:00,72.5,61.3,29.98,ENE,65,0.0,0.0,68,0.00,,---,0.00,VWS V14.01,2013-09-14 23:52:00,
2013-09-14 19:53:00,72.5,61.3,29.98,ENE,65,0.0,0.0,68,0.00,,---,0.00,VWS V14.01,2013-09-14 23:53:00,
2013-09-14 19:54:00,72.5,61.8,29.98,ENE,65,0.0,0.0,69,0.00,,---,0.00,VWS V14.01,2013-09-14 23:54:00,
2013-09-14 19:55:00,72.5,62.2,29.98,ENE,65,0.0,0.0,70,0.00,,---,0.00,VWS V14.01,2013-09-14 23:55:00,
2013-09-14 19:56:00,72.5,62.2,29.98,ENE,65,0.0,0.0,70,0.00,,---,0.00,VWS V14.01,2013-09-14 23:56:00,
2013-09-14 19:57:00,72.3,61.6,29.98,ENE,65,0.0,0.0,69,0.00,,---,0.00,VWS V14.01,2013-09-14 23:57:00,
2013-09-14 19:58:00,72.3,61.6,29.98,ENE,65,0.0,0.0,69,0.00,,---,0.00,VWS V14.01,2013-09-14 23:58:00,
2013-09-14 19:59:00,72.3,61.6,29.98,ENE,65,0.0,0.0,69,0.00,,---,0.00,VWS V14.01,2013-09-14 23:59:00,
2013-09-14 20:00:00,72.3,60.7,29.99,ENE,65,0.0,0.0,67,0.00,,---,0.00,VWS V14.01,2013-09-15 00:00:00,
2013-09-14 20:01:00,72.3,60.7,29.99,ENE,65,0.0,0.0,67,0.00,,---,0.00,VWS V14.01,2013-09-15 00:01:00,
2013-09-14 20:02:00,72.1,60.1,29.99,ENE,65,0.0,0.0,66,0.00,,---,0.00,VWS V14.01,2013-09-15 00:02:00,
2013-09-14 20:03:00,72.1,60.5,29.99,ENE,65,0.0,0.0,67,0.00,,---,0.00,VWS V14.01,2013-09-15 00:03:00,
2013-09-14 20:04:00,72.1,60.5,29.99,ENE,65,0.0,0.0,67,0.00,,---,0.00,VWS V14.01,2013-09-15 00:04:00,
2013-09-14 20:05:00,72.1,60.5,29.99,ENE,65,0.0,0.0,67,0.00,,---,0.00,VWS V14.01,2013-09-15 00:05:00,
2013-09-14 20:06:00,72.1,60.5,29.99,ENE,65,0.0,0.0,67,0.00,,---,0.00,VWS V14.01,2013-09-15 00:06:00,
2013-09-14 20:07:00,72.1,60.5,29.99,ENE,65,0.0,0.0,67,0.00,,---,0.00,VWS V14.01,2013-09-15 00:07:00,
2013-09-14 20:08:00,72.1,61.0,29.99,ENE,65,0.0,0.0,68,0.00,,---,0.00,VWS V14.01,2013-09-15 00:08:00,
2013-09-14 20:09:00,72.1,61.0,29.99,ENE,65,0.0,0.0,68,0.00,,---,0.00,VWS V14.01,2013-09-15 00:09:00,
2013-09-14 20:10:00,72.0,60.9,29.99,ENE,65,0.0,0.0,68,0.00,,---,0.00,VWS V14.01,2013-09-15 00:10:00,
2013-09-14 20:11:00,72.0,60.9,29.99,ENE,65,0.0,0.0,68,0.00,,---,0.00,VWS V14.01,2013-09-15 00:11:00,
2013-09-14 20:12:00,72.0,60.9,29.99,ENE,65,0.0,0.0,68,0.00,,---,0.00,VWS V14.01,2013-09-15 00:12:00,
2013-09-14 20:13:00,72.0,60.9,29.99,ENE,65,0.0,0.0,68,0.00,,---,0.00,VWS V14.01,2013-09-15 00:13:00,
2013-09-14 20:14:00,72.0,60.5,29.99,ENE,65,0.0,0.0,67,0.00,,---,0.00,VWS V14.01,2013-09-15 00:14:00,
2013-09-14 20:15:00,72.0,60.9,29.99,ENE,65,0.0,0.0,68,0.00,,---,0.00,VWS V14.01,2013-09-15 00:15:00,
2013-09-14 20:16:00,72.0,60.9,29.99,ENE,65,0.0,0.0,68,0.00,,---,0.00,VWS V14.01,2013-09-15 00:16:00,
2013-09-14 20:17:00,71.8,60.3,29.99,ENE,65,0.0,0.0,67,0.00,,---,0.00,VWS V14.01,2013-09-15 00:17:00,
2013-09-14 20:18:00,71.8,60.3,29.99,ENE,65,0.0,0.0,67,0.00,,---,0.00,VWS V14.01,2013-09-15 00:18:00,
2013-09-14 20:19:00,71.8,60.3,29.99,ENE,65,0.0,0.0,67,0.00,,---,0.00,VWS V14.01,2013-09-15 00:19:00,
2013-09-14 20:20:00,71.8,60.7,29.99,ENE,65,0.0,1.0,68,0.00,,---,0.00,VWS V14.01,2013-09-15 00:20:00,
2013-09-14 20:21:00,71.8,60.3,29.99,ENE,65,0.0,0.0,67,0.00,,---,0.00,VWS V14.01,2013-09-15 00:21:00,
2013-09-14 20:22:00,71.8,60.3,29.99,ENE,65,0.0,0.0,67,0.00,,---,0.00,VWS V14.01,2013-09-15 00:22:00,
2013-09-14 20:23:00,71.6,60.5,29.99,ENE,65,0.0,0.0,68,0.00,,---,0.00,VWS V14.01,2013-09-15 00:23:00,
2013-09-14 20:24:00,71.6,60.5,29.99,ENE,65,0.0,0.0,68,0.00,,---,0.00,VWS V14.01,2013-09-15 00:24:00,
2013-09-14 20:25:00,71.6,60.5,29.99,ENE,65,0.0,0.0,68,0.00,,---,0.00,VWS V14.01,2013-09-15 00:25:00,
2013-09-14 20:26:00,71.6,60.5,29.99,ENE,65,0.0,0.0,68,0.00,,---,0.00,VWS V14.01,2013-09-15 00:26:00,
2013-09-14 20:27:00,71.6,60.5,29.99,ENE,65,0.0,0.0,68,0.00,,---,0.00,VWS V14.01,2013-09-15 00:27:00,
2013-09-14 20:28:00,71.6,60.5,29.99,ENE,65,0.0,0.0,68,0.00,,---,0.00,VWS V14.01,2013-09-15 00:28:00,
2013-09-14 20:29:00,71.6,60.5,29.99,NE,55,0.0,1.0,68,0.00,,---,0.00,VWS V14.01,2013-09-15 00:29:00,
2013-09-14 20:30:00,71.5,60.4,30.00,NE,55,0.0,1.0,68,0.00,,---,0.00,VWS V14.01,2013-09-15 00:30:00,
2013-09-14 20:31:00,71.5,60.8,30.00,NE,55,0.0,0.0,69,0.00,,---,0.00,VWS V14.01,2013-09-15 00:31:00,
2013-09-14 20:32:00,71.5,60.0,30.00,NE,55,0.0,0.0,67,0.00,,---,0.00,VWS V14.01,2013-09-15 00:32:00,
2013-09-14 20:33:00,71.5,60.0,30.00,NE,55,0.0,0.0,67,0.00,,---,0.00,VWS V14.01,2013-09-15 00:33:00,
2013-09-14 20:34:00,71.5,60.0,30.00,NE,55,0.0,0.0,67,0.00,,---,0.00,VWS V14.01,2013-09-15 00:34:00,
2013-09-14 20:35:00,71.5,60.4,30.00,NE,55,0.0,0.0,68,0.00,,---,0.00,VWS V14.01,2013-09-15 00:35:00,
2013-09-14 20:36:00,71.5,60.8,30.00,NE,55,0.0,0.0,69,0.00,,---,0.00,VWS V14.01,2013-09-15 00:36:00,
2013-09-14 20:37:00,71.3,60.6,30.00,NE,55,0.0,0.0,69,0.00,,---,0.00,VWS V14.01,2013-09-15 00:37:00,
2013-09-14 20:38:00,71.3,60.6,30.00,NE,55,0.0,0.0,69,0.00,,---,0.00,VWS V14.01,2013-09-15 00:38:00,
2013-09-14 20:39:00,71.3,60.6,30.00,NE,55,0.0,0.0,69,0.00,,---,0.00,VWS V14.01,2013-09-15 00:39:00,
2013-09-14 20:40:00,71.3,60.6,30.00,NE,55,0.0,0.0,69,0.00,,---,0.00,VWS V14.01,2013-09-15 00:40:00,
2013-09-14 20:41:00,71.3,60.2,30.00,NE,55,0.0,0.0,68,0.00,,---,0.00,VWS V14.01,2013-09-15 00:41:00,
2013-09-14 20:42:00,71.3,60.6,30.00,NE,55,0.0,0.0,69,0.00,,---,0.00,VWS V14.01,2013-09-15 00:42:00,
2013-09-14 20:43:00,71.3,60.6,30.00,NE,55,0.0,0.0,69,0.00,,---,0.00,VWS V14.01,2013-09-15 00:43:00,
2013-09-14 20:44:00,71.3,60.6,30.00,NE,55,1.0,1.0,69,0.00,,---,0.00,VWS V14.01,2013-09-15 00:44:00,
2013-09-14 20:45:00,71.3,61.0,30.01,NE,55,0.0,1.0,70,0.00,,---,0.00,VWS V14.01,2013-09-15 00:45:00,
2013-09-14 20:46:00,71.1,60.4,30.01,NE,55,0.0,1.0,69,0.00,,---,0.00,VWS V14.01,2013-09-15 00:46:00,
2013-09-14 20:47:00,71.1,60.4,30.01,NE,55,0.0,1.0,69,0.00,,---,0.00,VWS V14.01,2013-09-15 00:47:00,
2013-09-14 20:48:00,71.1,60.8,30.01,NE,55,0.0,1.0,70,0.00,,---,0.00,VWS V14.01,2013-09-15 00:48:00,
2013-09-14 20:49:00,71.1,60.8,30.01,NE,55,0.0,1.0,70,0.00,,---,0.00,VWS V14.01,2013-09-15 00:49:00,
2013-09-14 20:50:00,71.1,60.8,30.01,NE,55,0.0,1.0,70,0.00,,---,0.00,VWS V14.01,2013-09-15 00:50:00,
2013-09-14 20:51:00,71.1,60.4,30.01,NE,55,0.0,0.0,69,0.00,,---,0.00,VWS V14.01,2013-09-15 00:51:00,
2013-09-14 20:52:00,71.1,60.4,30.01,NE,55,0.0,0.0,69,0.00,,---,0.00,VWS V14.01,2013-09-15 00:52:00,
2013-09-14 20:53:00,70.9,60.2,30.01,NE,55,0.0,0.0,69,0.00,,---,0.00,VWS V14.01,2013-09-15 00:53:00,
2013-09-14 20:54:00,70.9,60.2,30.01,NE,55,0.0,0.0,69,0.00,,---,0.00,VWS V14.01,2013-09-15 00:54:00,
2013-09-14 20:55:00,70.9,60.2,30.01,NE,55,0.0,0.0,69,0.00,,---,0.00,VWS V14.01,2013-09-15 00:55:00,
2013-09-14 20:56:00,70.9,60.2,30.01,NE,55,0.0,0.0,69,0.00,,---,0.00,VWS V14.01,2013-09-15 00:56:00,
2013-09-14 20:57:00,70.9,60.2,30.01,NE,55,0.0,0.0,69,0.00,,---,0.00,VWS V14.01,2013-09-15 00:57:00,
2013-09-14 20:58:00,70.9,60.6,30.01,NE,55,0.0,0.0,70,0.00,,---,0.00,VWS V14.01,2013-09-15 00:58:00,
2013-09-14 20:59:00,70.9,60.6,30.01,NE,55,0.0,0.0,70,0.00,,---,0.00,VWS V14.01,2013-09-15 00:59:00,
2013-09-14 21:00:00,70.9,60.2,30.02,NE,55,0.0,0.0,69,0.00,,---,0.00,VWS V14.01,2013-09-15 01:00:00,
2013-09-14 21:01:00,70.9,60.6,30.02,NE,55,0.0,0.0,70,0.00,,---,0.00,VWS V14.01,2013-09-15 01:01:00,
2013-09-14 21:02:00,70.9,60.6,30.02,NE,55,0.0,0.0,70,0.00,,---,0.00,VWS V14.01,2013-09-15 01:02:00,
2013-09-14 21:03:00,70.8,60.5,30.02,NE,55,0.0,0.0,70,0.00,,---,0.00,VWS V14.01,2013-09-15 01:03:00,
2013-09-14 21:04:00,70.8,60.5,30.02,NE,55,0.0,0.0,70,0.00,,---,0.00,VWS V14.01,2013-09-15 01:04:00,
2013-09-14 21:05:00,70.8,60.5,30.02,NE,55,0.0,0.0,70,0.00,,---,0.00,VWS V14.01,2013-09-15 01:05:00,
2013-09-14 21:06:00,70.8,60.1,30.02,NE,55,0.0,1.0,69,0.00,,---,0.00,VWS V14.01,2013-09-15 01:06:00,
2013-09-14 21:07:00,70.8,59.7,30.02,NE,55,0.0,1.0,68,0.00,,---,0.00,VWS V14.01,2013-09-15 01:07:00,
2013-09-14 21:08:00,70.6,59.5,30.02,NE,55,0.0,1.0,68,0.00,,---,0.00,VWS V14.01,2013-09-15 01:08:00,
2013-09-14 21:09:00,70.6,59.5,30.02,NE,55,0.0,1.0,68,0.00,,---,0.00,VWS V14.01,2013-09-15 01:09:00,
2013-09-14 21:10:00,70.6,60.0,30.02,NE,55,0.0,1.0,69,0.00,,---,0.00,VWS V14.01,2013-09-15 01:10:00,
2013-09-14 21:11:00,70.6,60.3,30.02,NE,55,0.0,0.0,70,0.00,,---,0.00,VWS V14.01,2013-09-15 01:11:00,
2013-09-14 21:12:00,70.6,60.3,30.02,NE,55,0.0,0.0,70,0.00,,---,0.00,VWS V14.01,2013-09-15 01:12:00,
2013-09-14 21:13:00,70.6,60.3,30.02,NE,55,0.0,0.0,70,0.00,,---,0.00,VWS V14.01,2013-09-15 01:13:00,
2013-09-14 21:14:00,70.6,60.3,30.02,NE,55,0.0,0.0,70,0.00,,---,0.00,VWS V14.01,2013-09-15 01:14:00,
2013-09-14 21:15:00,70.6,60.0,30.03,NE,55,0.0,0.0,69,0.00,,---,0.00,VWS V14.01,2013-09-15 01:15:00,
2013-09-14 21:16:00,70.4,60.2,30.03,NE,55,0.0,0.0,70,0.00,,---,0.00,VWS V14.01,2013-09-15 01:16:00,
2013-09-14 21:17:00,70.4,59.8,30.03,NE,55,0.0,0.0,69,0.00,,---,0.00,VWS V14.01,2013-09-15 01:17:00,
2013-09-14 21:18:00,70.4,59.8,30.03,NE,55,0.0,1.0,69,0.00,,---,0.00,VWS V14.01,2013-09-15 01:18:00,
2013-09-14 21:19:00,70.4,60.2,30.03,NE,55,0.0,1.0,70,0.00,,---,0.00,VWS V14.01,2013-09-15 01:19:00,
2013-09-14 21:20:00,70.4,60.2,30.03,NE,55,0.0,1.0,70,0.00,,---,0.00,VWS V14.01,2013-09-15 01:20:00,
2013-09-14 21:21:00,70.4,60.2,30.03,NE,55,0.0,0.0,70,0.00,,---,0.00,VWS V14.01,2013-09-15 01:21:00,
2013-09-14 21:22:00,70.4,60.2,30.03,NE,55,0.0,0.0,70,0.00,,---,0.00,VWS V14.01,2013-09-15 01:22:00,
2013-09-14 21:23:00,70.4,60.2,30.03,NE,55,0.0,0.0,70,0.00,,---,0.00,VWS V14.01,2013-09-15 01:23:00,
2013-09-14 21:24:00,70.4,60.2,30.03,NE,55,0.0,0.0,70,0.00,,---,0.00,VWS V14.01,2013-09-15 01:24:00,
2013-09-14 21:25:00,70.3,60.1,30.03,NE,55,0.0,0.0,70,0.00,,---,0.00,VWS V14.01,2013-09-15 01:25:00,
2013-09-14 21:26:00,70.3,60.1,30.03,NE,55,0.0,0.0,70,0.00,,---,0.00,VWS V14.01,2013-09-15 01:26:00,
2013-09-14 21:27:00,70.3,60.1,30.03,NE,55,0.0,0.0,70,0.00,,---,0.00,VWS V14.01,2013-09-15 01:27:00,
2013-09-14 21:28:00,70.3,60.1,30.03,NE,55,0.0,0.0,70,0.00,,---,0.00,VWS V14.01,2013-09-15 01:28:00,
2013-09-14 21:29:00,70.3,60.1,30.03,NE,55,0.0,0.0,70,0.00,,---,0.00,VWS V14.01,2013-09-15 01:29:00,
2013-09-14 21:30:00,70.3,60.1,30.03,NE,55,0.0,0.0,70,0.00,,---,0.00,VWS V14.01,2013-09-15 01:30:00,
2013-09-14 21:31:00,70.3,60.1,30.03,NE,55,0.0,0.0,70,0.00,,---,0.00,VWS V14.01,2013-09-15 01:31:00,
2013-09-14 21:32:00,70.3,60.1,30.03,NE,55,0.0,1.0,70,0.00,,---,0.00,VWS V14.01,2013-09-15 01:32:00,
2013-09-14 21:33:00,70.3,60.1,30.03,NE,55,0.0,1.0,70,0.00,,---,0.00,VWS V14.01,2013-09-15 01:33:00,
2013-09-14 21:34:00,70.1,59.9,30.03,NE,55,0.0,1.0,70,0.00,,---,0.00,VWS V14.01,2013-09-15 01:34:00,
2013-09-14 21:35:00,70.1,59.9,30.03,NE,55,0.0,1.0,70,0.00,,---,0.00,VWS V14.01,2013-09-15 01:35:00,
2013-09-14 21:36:00,70.1,59.9,30.03,NE,55,0.0,1.0,70,0.00,,---,0.00,VWS V14.01,2013-09-15 01:36:00,
2013-09-14 21:37:00,70.1,59.5,30.03,NE,55,0.0,1.0,69,0.00,,---,0.00,VWS V14.01,2013-09-15 01:37:00,
2013-09-14 21:38:00,70.1,59.9,30.03,NE,55,0.0,1.0,70,0.00,,---,0.00,VWS V14.01,2013-09-15 01:38:00,
2013-09-14 21:39:00,70.1,59.5,30.03,NE,55,0.0,1.0,69,0.00,,---,0.00,VWS V14.01,2013-09-15 01:39:00,
2013-09-14 21:40:00,70.1,59.5,30.03,NE,55,0.0,1.0,69,0.00,,---,0.00,VWS V14.01,2013-09-15 01:40:00,
2013-09-14 21:41:00,70.1,59.5,30.03,NE,55,0.0,0.0,69,0.00,,---,0.00,VWS V14.01,2013-09-15 01:41:00,
2013-09-14 21:42:00,69.9,59.3,30.03,NE,55,0.0,0.0,69,0.00,,---,0.00,VWS V14.01,2013-09-15 01:42:00,
2013-09-14 21:43:00,69.9,59.3,30.03,NE,55,0.0,0.0,69,0.00,,---,0.00,VWS V14.01,2013-09-15 01:43:00,
2013-09-14 21:44:00,69.9,59.7,30.03,NE,55,0.0,0.0,70,0.00,,---,0.00,VWS V14.01,2013-09-15 01:44:00,
2013-09-14 21:45:00,69.9,59.7,30.03,NE,55,0.0,0.0,70,0.00,,---,0.00,VWS V14.01,2013-09-15 01:45:00,
2013-09-14 21:46:00,69.9,59.7,30.03,NE,55,0.0,0.0,70,0.00,,---,0.00,VWS V14.01,2013-09-15 01:46:00,
2013-09-14 21:47:00,69.9,59.7,30.03,NE,55,0.0,0.0,70,0.00,,---,0.00,VWS V14.01,2013-09-15 01:47:00,
2013-09-14 21:48:00,69.8,59.6,30.03,NE,55,0.0,0.0,70,0.00,,---,0.00,VWS V14.01,2013-09-15 01:48:00,
2013-09-14 21:49:00,69.8,59.6,30.03,NE,55,0.0,0.0,70,0.00,,---,0.00,VWS V14.01,2013-09-15 01:49:00,
2013-09-14 21:50:00,69.8,60.0,30.03,NE,55,0.0,0.0,71,0.00,,---,0.00,VWS V14.01,2013-09-15 01:50:00,
2013-09-14 21:51:00,69.8,59.6,30.03,NE,55,0.0,0.0,70,0.00,,---,0.00,VWS V14.01,2013-09-15 01:51:00,
2013-09-14 21:52:00,69.8,60.0,30.03,NE,55,0.0,0.0,71,0.00,,---,0.00,VWS V14.01,2013-09-15 01:52:00,
2013-09-14 21:53:00,69.8,60.0,30.03,NE,55,0.0,0.0,71,0.00,,---,0.00,VWS V14.01,2013-09-15 01:53:00,
2013-09-14 21:54:00,69.8,59.6,30.03,NE,55,0.0,0.0,70,0.00,,---,0.00,VWS V14.01,2013-09-15 01:54:00,
2013-09-14 21:55:00,69.8,59.6,30.03,NE,55,0.0,0.0,70,0.00,,---,0.00,VWS V14.01,2013-09-15 01:55:00,
2013-09-14 21:56:00,69.6,59.4,30.03,NE,55,0.0,0.0,70,0.00,,---,0.00,VWS V14.01,2013-09-15 01:56:00,
2013-09-14 21:57:00,69.6,59.4,30.03,NE,55,0.0,0.0,70,0.00,,---,0.00,VWS V14.01,2013-09-15 01:57:00,
2013-09-14 21:58:00,69.6,59.4,30.03,NE,55,0.0,0.0,70,0.00,,---,0.00,VWS V14.01,2013-09-15 01:58:00,
2013-09-14 21:59:00,69.6,59.4,30.03,NE,55,0.0,0.0,70,0.00,,---,0.00,VWS V14.01,2013-09-15 01:59:00,
2013-09-14 22:00:00,69.6,59.4,30.03,NE,55,0.0,0.0,70,0.00,,---,0.00,VWS V14.01,2013-09-15 02:00:00,
2013-09-14 22:01:00,69.6,59.4,30.03,NE,55,0.0,0.0,70,0.00,,---,0.00,VWS V14.01,2013-09-15 02:01:00,
2013-09-14 22:02:00,69.6,59.4,30.03,NE,55,0.0,0.0,70,0.00,,---,0.00,VWS V14.01,2013-09-15 02:02:00,
2013-09-14 22:03:00,69.4,59.2,30.03,NE,55,0.0,0.0,70,0.00,,---,0.00,VWS V14.01,2013-09-15 02:03:00,
2013-09-14 22:04:00,69.4,59.6,30.03,NE,55,0.0,0.0,71,0.00,,---,0.00,VWS V14.01,2013-09-15 02:04:00,
2013-09-14 22:05:00,69.4,59.6,30.03,NE,55,0.0,0.0,71,0.00,,---,0.00,VWS V14.01,2013-09-15 02:05:00,
2013-09-14 22:06:00,69.4,59.6,30.03,NE,55,0.0,0.0,71,0.00,,---,0.00,VWS V14.01,2013-09-15 02:06:00,
2013-09-14 22:07:00,69.4,59.6,30.03,NE,55,0.0,0.0,71,0.00,,---,0.00,VWS V14.01,2013-09-15 02:07:00,
2013-09-14 22:08:00,69.4,59.6,30.03,NE,55,0.0,0.0,71,0.00,,---,0.00,VWS V14.01,2013-09-15 02:08:00,
2013-09-14 22:09:00,69.4,59.6,30.03,NE,55,0.0,0.0,71,0.00,,---,0.00,VWS V14.01,2013-09-15 02:09:00,
2013-09-14 22:10:00,69.4,60.0,30.03,NE,55,0.0,0.0,72,0.00,,---,0.00,VWS V14.01,2013-09-15 02:10:00,
2013-09-14 22:11:00,69.3,59.5,30.03,NE,55,0.0,0.0,71,0.00,,---,0.00,VWS V14.01,2013-09-15 02:11:00,
2013-09-14 22:12:00,69.3,59.1,30.03,NE,55,0.0,0.0,70,0.00,,---,0.00,VWS V14.01,2013-09-15 02:12:00,
2013-09-14 22:13:00,69.3,58.7,30.03,NE,55,0.0,0.0,69,0.00,,---,0.00,VWS V14.01,2013-09-15 02:13:00,
2013-09-14 22:14:00,69.3,59.1,30.03,NE,55,0.0,0.0,70,0.00,,---,0.00,VWS V14.01,2013-09-15 02:14:00,
2013-09-14 22:15:00,69.3,59.1,30.03,NE,55,0.0,0.0,70,0.00,,---,0.00,VWS V14.01,2013-09-15 02:15:00,
2013-09-14 22:16:00,69.3,59.1,30.03,NE,55,0.0,0.0,70,0.00,,---,0.00,VWS V14.01,2013-09-15 02:16:00,
2013-09-14 22:17:00,69.3,59.1,30.03,NE,55,0.0,0.0,70,0.00,,---,0.00,VWS V14.01,2013-09-15 02:17:00,
2013-09-14 22:18:00,69.1,59.3,30.03,NE,55,0.0,1.0,71,0.00,,---,0.00,VWS V14.01,2013-09-15 02:18:00,
2013-09-14 22:19:00,69.1,58.9,30.03,NE,55,0.0,1.0,70,0.00,,---,0.00,VWS V14.01,2013-09-15 02:19:00,
2013-09-14 22:20:00,69.1,59.3,30.03,NE,55,0.0,1.0,71,0.00,,---,0.00,VWS V14.01,2013-09-15 02:20:00,
2013-09-14 22:21:00,69.1,59.3,30.03,NE,55,0.0,0.0,71,0.00,,---,0.00,VWS V14.01,2013-09-15 02:21:00,
2013-09-14 22:22:00,69.1,59.7,30.03,NE,55,0.0,0.0,72,0.00,,---,0.00,VWS V14.01,2013-09-15 02:22:00,
2013-09-14 22:23:00,69.1,59.7,30.03,NE,55,1.0,1.0,72,0.00,,---,0.00,VWS V14.01,2013-09-15 02:23:00,
2013-09-14 22:24:00,69.1,59.3,30.03,NE,55,2.0,2.0,71,0.00,,---,0.00,VWS V14.01,2013-09-15 02:24:00,
2013-09-14 22:25:00,69.1,58.9,30.03,NE,55,0.0,2.0,70,0.00,,---,0.00,VWS V14.01,2013-09-15 02:25:00,
2013-09-14 22:26:00,69.1,58.9,30.03,NNE,30,0.0,2.0,70,0.00,,---,0.00,VWS V14.01,2013-09-15 02:26:00,
2013-09-14 22:27:00,68.9,59.1,30.03,NNE,30,0.0,2.0,71,0.00,,---,0.00,VWS V14.01,2013-09-15 02:27:00,
2013-09-14 22:28:00,68.9,59.1,30.03,NE,38,0.0,2.0,71,0.00,,---,0.00,VWS V14.01,2013-09-15 02:28:00,
2013-09-14 22:29:00,68.9,59.1,30.03,NE,38,0.0,2.0,71,0.00,,---,0.00,VWS V14.01,2013-09-15 02:29:00,
2013-09-14 22:30:00,68.9,59.1,30.03,NE,38,0.0,2.0,71,0.00,,---,0.00,VWS V14.01,2013-09-15 02:30:00,
2013-09-14 22:31:00,68.9,59.5,30.03,NE,38,0.0,0.0,72,0.00,,---,0.00,VWS V14.01,2013-09-15 02:31:00,
2013-09-14 22:32:00,68.9,59.5,30.03,NE,38,0.0,0.0,72,0.00,,---,0.00,VWS V14.01,2013-09-15 02:32:00,
2013-09-14 22:33:00,68.9,59.5,30.03,NE,38,0.0,0.0,72,0.00,,---,0.00,VWS V14.01,2013-09-15 02:33:00,
2013-09-14 22:34:00,68.8,59.4,30.03,NE,38,0.0,0.0,72,0.00,,---,0.00,VWS V14.01,2013-09-15 02:34:00,
2013-09-14 22:35:00,68.8,59.0,30.03,NE,38,0.0,0.0,71,0.00,,---,0.00,VWS V14.01,2013-09-15 02:35:00,
2013-09-14 22:36:00,68.8,59.4,30.03,NE,38,0.0,0.0,72,0.00,,---,0.00,VWS V14.01,2013-09-15 02:36:00,
2013-09-14 22:37:00,68.8,59.4,30.03,NE,47,0.0,0.0,72,0.00,,---,0.00,VWS V14.01,2013-09-15 02:37:00,
2013-09-14 22:38:00,68.8,59.4,30.03,NE,47,0.0,0.0,72,0.00,,---,0.00,VWS V14.01,2013-09-15 02:38:00,
2013-09-14 22:39:00,68.8,59.0,30.03,NE,47,0.0,0.0,71,0.00,,---,0.00,VWS V14.01,2013-09-15 02:39:00,
2013-09-14 22:40:00,68.8,59.4,30.03,NE,47,0.0,0.0,72,0.00,,---,0.00,VWS V14.01,2013-09-15 02:40:00,
2013-09-14 22:41:00,68.6,59.2,30.03,NE,47,0.0,0.0,72,0.00,,---,0.00,VWS V14.01,2013-09-15 02:41:00,
2013-09-14 22:42:00,68.6,59.2,30.03,NE,47,0.0,0.0,72,0.00,,---,0.00,VWS V14.01,2013-09-15 02:42:00,
2013-09-14 22:43:00,68.6,59.2,30.03,NE,47,0.0,0.0,72,0.00,,---,0.00,VWS V14.01,2013-09-15 02:43:00,
2013-09-14 22:44:00,68.6,59.2,30.03,NE,47,0.0,0.0,72,0.00,,---,0.00,VWS V14.01,2013-09-15 02:44:00,
2013-09-14 22:45:00,68.6,58.8,30.03,NE,47,0.0,0.0,71,0.00,,---,0.00,VWS V14.01,2013-09-15 02:45:00,
2013-09-14 22:46:00,68.6,58.8,30.03,NE,47,0.0,0.0,71,0.00,,---,0.00,VWS V14.01,2013-09-15 02:46:00,
2013-09-14 22:47:00,68.6,58.4,30.03,NE,47,0.0,0.0,70,0.00,,---,0.00,VWS V14.01,2013-09-15 02:47:00,
2013-09-14 22:48:00,68.6,58.8,30.03,NE,47,0.0,0.0,71,0.00,,---,0.00,VWS V14.01,2013-09-15 02:48:00,
2013-09-14 22:49:00,68.4,59.0,30.03,NE,47,0.0,0.0,72,0.00,,---,0.00,VWS V14.01,2013-09-15 02:49:00,
2013-09-14 22:50:00,68.4,59.0,30.03,NE,47,0.0,0.0,72,0.00,,---,0.00,VWS V14.01,2013-09-15 02:50:00,
2013-09-14 22:51:00,68.4,59.0,30.03,NE,47,0.0,0.0,72,0.00,,---,0.00,VWS V14.01,2013-09-15 02:51:00,
2013-09-14 22:52:00,68.4,59.0,30.03,NE,47,0.0,1.0,72,0.00,,---,0.00,VWS V14.01,2013-09-15 02:52:00,
2013-09-14 22:53:00,68.4,59.0,30.03,NE,47,0.0,1.0,72,0.00,,---,0.00,VWS V14.01,2013-09-15 02:53:00,
2013-09-14 22:54:00,68.4,59.0,30.03,NE,47,0.0,1.0,72,0.00,,---,0.00,VWS V14.01,2013-09-15 02:54:00,
2013-09-14 22:55:00,68.4,58.6,30.03,NE,47,0.0,1.0,71,0.00,,---,0.00,VWS V14.01,2013-09-15 02:55:00,
2013-09-14 22:56:00,68.4,59.0,30.03,NE,47,0.0,1.0,72,0.00,,---,0.00,VWS V14.01,2013-09-15 02:56:00,
2013-09-14 22:57:00,68.4,59.0,30.03,NE,47,0.0,1.0,72,0.00,,---,0.00,VWS V14.01,2013-09-15 02:57:00,
2013-09-14 22:58:00,68.4,59.0,30.03,NE,47,0.0,1.0,72,0.00,,---,0.00,VWS V14.01,2013-09-15 02:58:00,
2013-09-14 22:59:00,68.4,59.0,30.03,NE,47,0.0,1.0,72,0.00,,---,0.00,VWS V14.01,2013-09-15 02:59:00,
2013-09-14 23:00:00,68.4,59.0,30.04,NE,47,0.0,1.0,72,0.00,,---,0.00,VWS V14.01,2013-09-15 03:00:00,
2013-09-14 23:01:00,68.4,59.0,30.04,NE,47,0.0,0.0,72,0.00,,---,0.00,VWS V14.01,2013-09-15 03:01:00,
2013-09-14 23:02:00,68.4,59.0,30.04,NE,47,0.0,0.0,72,0.00,,---,0.00,VWS V14.01,2013-09-15 03:02:00,
2013-09-14 23:03:00,68.3,58.9,30.04,NE,47,0.0,0.0,72,0.00,,---,0.00,VWS V14.01,2013-09-15 03:03:00,
2013-09-14 23:04:00,68.3,58.9,30.04,NE,47,0.0,0.0,72,0.00,,---,0.00,VWS V14.01,2013-09-15 03:04:00,
2013-09-14 23:05:00,68.3,58.9,30.04,NE,47,0.0,0.0,72,0.00,,---,0.00,VWS V14.01,2013-09-15 03:05:00,
2013-09-14 23:06:00,68.3,59.3,30.04,NE,47,0.0,0.0,73,0.00,,---,0.00,VWS V14.01,2013-09-15 03:06:00,
2013-09-14 23:07:00,68.3,59.3,30.04,NE,47,0.0,0.0,73,0.00,,---,0.00,VWS V14.01,2013-09-15 03:07:00,
2013-09-14 23:08:00,68.3,58.9,30.04,NE,47,0.0,0.0,72,0.00,,---,0.00,VWS V14.01,2013-09-15 03:08:00,
2013-09-14 23:09:00,68.3,58.9,30.04,NE,47,0.0,0.0,72,0.00,,---,0.00,VWS V14.01,2013-09-15 03:09:00,
2013-09-14 23:10:00,68.3,58.9,30.04,NE,47,0.0,0.0,72,0.00,,---,0.00,VWS V14.01,2013-09-15 03:10:00,
2013-09-14 23:11:00,68.3,58.9,30.04,NE,47,0.0,1.0,72,0.00,,---,0.00,VWS V14.01,2013-09-15 03:11:00,
2013-09-14 23:12:00,68.3,58.9,30.04,NE,47,0.0,1.0,72,0.00,,---,0.00,VWS V14.01,2013-09-15 03:12:00,
2013-09-14 23:13:00,68.3,58.9,30.04,NE,47,0.0,1.0,72,0.00,,---,0.00,VWS V14.01,2013-09-15 03:13:00,
2013-09-14 23:14:00,68.3,58.9,30.04,NE,47,0.0,1.0,72,0.00,,---,0.00,VWS V14.01,2013-09-15 03:14:00,
2013-09-14 23:15:00,68.1,58.7,30.05,NE,47,0.0,1.0,72,0.00,,---,0.00,VWS V14.01,2013-09-15 03:15:00,
2013-09-14 23:16:00,68.1,58.7,30.05,NE,47,0.0,1.0,72,0.00,,---,0.00,VWS V14.01,2013-09-15 03:16:00,
2013-09-14 23:17:00,68.1,58.7,30.05,NE,47,0.0,1.0,72,0.00,,---,0.00,VWS V14.01,2013-09-15 03:17:00,
2013-09-14 23:18:00,68.1,58.7,30.05,NE,47,0.0,1.0,72,0.00,,---,0.00,VWS V14.01,2013-09-15 03:18:00,
2013-09-14 23:19:00,68.1,58.7,30.05,NE,47,0.0,1.0,72,0.00,,---,0.00,VWS V14.01,2013-09-15 03:19:00,
2013-09-14 23:20:00,68.1,58.7,30.05,NE,47,0.0,1.0,72,0.00,,---,0.00,VWS V14.01,2013-09-15 03:20:00,
2013-09-14 23:21:00,67.9,58.5,30.05,NE,47,0.0,0.0,72,0.00,,---,0.00,VWS V14.01,2013-09-15 03:21:00,
2013-09-14 23:22:00,67.9,58.5,30.05,NE,47,0.0,0.0,72,0.00,,---,0.00,VWS V14.01,2013-09-15 03:22:00,
2013-09-14 23:23:00,67.9,58.5,30.05,NE,47,0.0,0.0,72,0.00,,---,0.00,VWS V14.01,2013-09-15 03:23:00,
2013-09-14 23:24:00,67.9,58.5,30.05,NE,47,0.0,0.0,72,0.00,,---,0.00,VWS V14.01,2013-09-15 03:24:00,
2013-09-14 23:25:00,67.9,58.5,30.05,NE,47,0.0,0.0,72,0.00,,---,0.00,VWS V14.01,2013-09-15 03:25:00,
2013-09-14 23:26:00,67.9,58.9,30.05,NE,47,0.0,0.0,73,0.00,,---,0.00,VWS V14.01,2013-09-15 03:26:00,
2013-09-14 23:27:00,67.8,58.8,30.05,NE,47,0.0,0.0,73,0.00,,---,0.00,VWS V14.01,2013-09-15 03:27:00,
2013-09-14 23:28:00,67.8,58.8,30.05,NE,47,0.0,0.0,73,0.00,,---,0.00,VWS V14.01,2013-09-15 03:28:00,
2013-09-14 23:29:00,67.8,58.8,30.05,NE,47,0.0,0.0,73,0.00,,---,0.00,VWS V14.01,2013-09-15 03:29:00,
2013-09-14 23:30:00,67.8,58.8,30.05,NE,47,0.0,0.0,73,0.00,,---,0.00,VWS V14.01,2013-09-15 03:30:00,
2013-09-14 23:31:00,67.8,58.8,30.05,NE,47,0.0,0.0,73,0.00,,---,0.00,VWS V14.01,2013-09-15 03:31:00,
2013-09-14 23:32:00,67.8,58.8,30.05,NE,47,0.0,0.0,73,0.00,,---,0.00,VWS V14.01,2013-09-15 03:32:00,
2013-09-14 23:33:00,67.6,58.7,30.05,NE,47,0.0,0.0,73,0.00,,---,0.00,VWS V14.01,2013-09-15 03:33:00,
2013-09-14 23:34:00,67.6,58.7,30.05,NE,47,0.0,0.0,73,0.00,,---,0.00,VWS V14.01,2013-09-15 03:34:00,
2013-09-14 23:35:00,67.6,59.0,30.05,NE,47,0.0,0.0,74,0.00,,---,0.00,VWS V14.01,2013-09-15 03:35:00,
2013-09-14 23:36:00,67.6,58.7,30.05,NE,47,0.0,0.0,73,0.00,,---,0.00,VWS V14.01,2013-09-15 03:36:00,
2013-09-14 23:37:00,67.6,59.0,30.05,NE,47,0.0,0.0,74,0.00,,---,0.00,VWS V14.01,2013-09-15 03:37:00,
2013-09-14 23:38:00,67.6,59.0,30.05,NE,47,0.0,0.0,74,0.00,,---,0.00,VWS V14.01,2013-09-15 03:38:00,
2013-09-14 23:39:00,67.6,58.7,30.05,NE,47,0.0,0.0,73,0.00,,---,0.00,VWS V14.01,2013-09-15 03:39:00,
2013-09-14 23:40:00,67.4,58.5,30.05,NE,47,0.0,0.0,73,0.00,,---,0.00,VWS V14.01,2013-09-15 03:40:00,
2013-09-14 23:41:00,67.4,58.5,30.05,NE,47,0.0,0.0,73,0.00,,---,0.00,VWS V14.01,2013-09-15 03:41:00,
2013-09-14 23:42:00,67.4,58.5,30.05,NE,47,0.0,0.0,73,0.00,,---,0.00,VWS V14.01,2013-09-15 03:42:00,
2013-09-14 23:43:00,67.4,58.5,30.05,NE,47,0.0,0.0,73,0.00,,---,0.00,VWS V14.01,2013-09-15 03:43:00,
2013-09-14 23:44:00,67.4,58.5,30.05,NE,47,0.0,0.0,73,0.00,,---,0.00,VWS V14.01,2013-09-15 03:44:00,
2013-09-14 23:45:00,67.4,58.5,30.05,NE,47,0.0,0.0,73,0.00,,---,0.00,VWS V14.01,2013-09-15 03:45:00,
2013-09-14 23:46:00,67.4,58.5,30.05,NE,47,0.0,0.0,73,0.00,,---,0.00,VWS V14.01,2013-09-15 03:46:00,
2013-09-14 23:47:00,67.4,58.8,30.05,NE,47,0.0,0.0,74,0.00,,---,0.00,VWS V14.01,2013-09-15 03:47:00,
2013-09-14 23:48:00,67.3,58.7,30.05,NE,47,0.0,0.0,74,0.00,,---,0.00,VWS V14.01,2013-09-15 03:48:00,
2013-09-14 23:49:00,67.3,58.7,30.05,NE,47,0.0,0.0,74,0.00,,---,0.00,VWS V14.01,2013-09-15 03:49:00,
2013-09-14 23:50:00,67.3,58.7,30.05,NE,47,0.0,0.0,74,0.00,,---,0.00,VWS V14.01,2013-09-15 03:50:00,
2013-09-14 23:51:00,67.3,58.7,30.05,NE,47,0.0,0.0,74,0.00,,---,0.00,VWS V14.01,2013-09-15 03:51:00,
2013-09-14 23:52:00,67.3,58.4,30.05,NE,47,0.0,0.0,73,0.00,,---,0.00,VWS V14.01,2013-09-15 03:52:00,
2013-09-14 23:53:00,67.3,58.4,30.05,NE,47,0.0,0.0,73,0.00,,---,0.00,VWS V14.01,2013-09-15 03:53:00,
2013-09-14 23:54:00,67.3,58.7,30.05,NE,47,0.0,0.0,74,0.00,,---,0.00,VWS V14.01,2013-09-15 03:54:00,
2013-09-14 23:55:00,67.1,58.5,30.05,NE,47,0.0,0.0,74,0.00,,---,0.00,VWS V14.01,2013-09-15 03:55:00,
2013-09-14 23:56:00,67.1,58.5,30.05,NE,47,0.0,0.0,74,0.00,,---,0.00,VWS V14.01,2013-09-15 03:56:00,
2013-09-14 23:57:00,67.1,58.5,30.05,NE,47,0.0,0.0,74,0.00,,---,0.00,VWS V14.01,2013-09-15 03:57:00,
2013-09-14 23:58:00,67.1,58.5,30.05,NE,47,0.0,0.0,74,0.00,,---,0.00,VWS V14.01,2013-09-15 03:58:00,
2013-09-14 23:59:00,67.1,58.9,30.05,NE,47,0.0,0.0,75,0.00,,---,0.00,VWS V14.01,2013-09-15 03:59:00,